GFSSW_925_spd_000.txt.gz
Wind_Speed
24 26 27 28 27 27 27 28 28 27 29 30 24 23 20 14 14 12 7 20 8 11 9 16 13 11 8 3 4 4 5 3 5 7 3 7 11 12 8 16 10 4 12 21 32
24 26 27 28 28 28 28 28 29 28 30 30 22 20 18 15 12 13 34 29 20 17 10 7 5 1 2 4 6 5 5 11 6 4 7 8 18 13 9 15 13 17 17 28 32
26 26 27 28 29 29 29 29 29 29 29 30 21 19 14 12 4 9 10 12 21 17 12 11 11 1 5 7 7 7 11 9 9 6 10 8 8 2 19 14 26 23 23 26 29
28 28 28 28 29 30 30 30 30 29 30 28 20 17 10 3 5 4 8 6 23 18 13 5 3 3 3 3 4 5 11 18 8 9 9 8 7 6 8 11 21 21 23 24 22
28 29 29 29 29 30 31 31 31 30 31 25 18 14 3 1 11 23 20 13 19 21 16 5 1 2 4 3 4 16 13 14 14 10 10 8 7 9 14 21 19 20 21 20 19
30 29 30 30 30 31 32 33 33 33 31 21 13 7 1 4 9 8 15 7 17 23 11 8 5 5 6 5 3 12 24 21 17 10 7 17 12 8 17 20 19 18 13 15 15
31 31 31 31 32 32 33 34 34 34 30 15 6 2 2 17 5 9 7 12 23 23 5 10 18 2 5 10 6 25 20 13 13 11 7 16 7 10 20 20 20 16 13 11 11
32 31 32 32 33 34 35 35 37 32 18 6 3 3 7 11 13 19 15 12 18 21 17 19 11 4 5 6 7 8 14 8 7 14 9 10 6 12 21 20 17 18 16 15 12
33 34 32 33 34 36 38 36 35 14 3 3 2 3 10 14 4 17 15 11 16 19 20 17 6 7 5 1 5 5 8 12 6 5 9 6 8 13 15 17 17 17 17 16 13
34 34 35 35 35 37 39 37 12 2 4 1 3 3 7 4 7 16 13 24 4 2 4 5 3 2 3 4 4 5 7 17 14 11 3 11 8 19 16 15 17 15 14 14 16
35 35 35 37 36 39 39 11 4 2 3 6 9 8 18 13 18 13 15 8 5 4 6 4 3 6 9 8 6 5 7 12 10 11 8 16 12 19 17 14 15 14 12 13 16
35 36 37 37 36 35 11 2 4 5 11 11 18 16 27 19 9 10 22 7 6 7 5 3 7 11 6 4 6 4 6 8 3 12 7 13 17 19 19 20 18 16 14 14 11
36 36 37 38 37 5 14 11 19 23 5 11 14 12 13 11 15 17 13 8 5 7 6 7 7 7 5 9 4 6 8 9 10 6 6 11 1 8 14 14 13 14 18 18 18
36 37 40 40 6 19 11 13 22 16 3 9 5 8 8 10 7 12 19 9 6 14 6 6 11 8 8 8 7 8 10 14 8 16 7 8 6 6 17 15 11 13 16 17 18
38 38 38 27 19 8 9 19 26 2 4 5 6 5 10 10 3 8 23 5 11 7 8 9 10 10 9 16 7 13 8 12 11 16 7 3 5 10 8 9 11 15 21 20 19
40 39 36 14 12 26 16 27 3 5 7 6 5 6 7 7 7 7 12 6 5 5 4 10 6 8 11 17 9 14 5 6 5 5 2 11 7 4 10 25 21 12 19 19 19
45 35 35 21 7 5 14 5 4 4 5 6 4 6 10 8 9 6 17 13 15 6 8 4 17 10 9 6 7 4 6 2 2 1 6 8 8 11 21 24 18 20 21 22 20
43 38 28 27 21 11 10 4 5 10 16 6 10 14 4 3 9 10 8 13 11 5 3 9 12 15 6 11 11 8 10 6 7 3 5 8 7 11 17 26 20 19 24 22 20
40 27 19 20 13 13 4 3 9 7 3 3 7 7 5 3 3 11 11 17 17 11 14 6 8 8 11 11 11 9 4 10 7 1 3 4 7 6 6 16 16 18 17 20 20
29 13 13 10 18 13 3 7 7 4 7 9 1 4 8 6 7 10 12 13 17 13 9 8 4 8 14 5 7 15 8 3 3 7 4 5 4 6 4 12 12 13 16 18 18
8 5 6 12 22 4 4 8 7 6 11 4 4 9 13 16 14 11 15 13 24 20 12 12 5 13 1 6 10 2 3 4 6 5 6 3 6 7 15 17 17 17 17 13 17
9 4 10 28 3 3 3 5 4 8 8 10 7 15 13 17 21 17 22 17 24 24 12 10 7 13 18 12 8 8 9 7 6 5 1 5 7 5 13 13 16 16 14 12 18
5 4 10 13 3 3 6 8 7 10 10 7 9 15 14 15 16 10 8 10 13 26 20 11 6 8 8 7 3 7 6 6 6 5 7 6 5 1 4 4 8 10 9 9 14
3 4 4 4 3 1 5 7 9 7 11 12 19 21 15 16 8 5 6 6 8 26 30 13 6 11 14 9 5 6 7 7 8 5 6 6 5 4 6 10 7 10 12 10 10
3 4 1 4 3 9 3 5 12 14 7 5 10 4 7 8 6 4 5 7 2 11 22 12 9 7 10 19 10 14 12 9 6 9 9 8 11 10 11 12 13 13 11 10 9
2 3 5 4 7 5 5 2 9 14 7 6 4 8 10 3 6 3 2 3 3 9 7 6 7 9 16 8 8 7 9 14 7 5 2 6 7 11 12 9 8 13 11 9 7
9 9 2 5 5 4 1 8 15 17 5 3 3 4 3 6 14 9 8 6 7 4 4 11 7 5 9 7 6 4 2 6 3 4 6 7 11 10 5 9 10 9 9 10 9

GFSSW_925_spd_003.txt.gz
Wind_Speed
23 24 24 24 25 25 26 26 26 26 27 28 26 19 19 20 19 14 7 16 6 15 13 6 9 9 11 5 6 4 4 2 6 5 5 9 5 7 5 11 4 5 8 15 27
25 25 26 26 25 26 27 27 26 26 26 29 26 18 18 18 15 13 29 23 20 17 11 11 5 6 3 2 2 4 5 8 7 8 10 13 14 14 6 11 3 11 16 26 28
28 28 27 27 27 27 27 28 27 27 27 29 26 17 16 12 5 9 3 5 17 24 18 6 4 4 2 4 5 6 8 9 7 7 20 15 12 3 18 7 10 23 21 23 24
29 30 29 28 28 28 28 29 30 29 28 28 25 14 12 4 6 2 7 11 10 22 16 6 5 5 3 4 4 5 13 7 8 8 13 18 9 7 7 4 17 19 22 21 18
29 30 30 30 30 30 30 31 31 30 31 28 22 10 3 2 11 22 21 21 11 20 13 5 5 6 4 5 5 7 4 11 10 9 13 10 9 7 5 12 17 18 20 20 18
32 30 30 31 32 33 32 32 34 32 33 27 15 2 1 5 7 11 13 6 16 22 11 7 7 7 2 4 1 4 6 11 9 8 7 12 7 6 8 15 18 21 20 19 18
33 34 31 30 32 34 36 34 33 36 30 19 5 2 2 16 15 9 3 5 11 23 6 13 6 1 2 7 4 14 7 8 3 3 6 14 4 7 17 18 18 19 17 18 17
33 34 34 33 33 34 36 36 34 32 16 6 5 4 7 9 12 14 10 9 5 13 18 7 9 4 5 5 5 7 4 10 4 6 8 6 4 12 17 19 19 17 16 16 17
33 33 34 35 35 36 35 34 34 12 5 4 2 3 9 11 8 9 14 6 4 9 11 6 3 6 3 5 5 6 14 4 5 8 4 2 5 15 17 16 16 15 16 15 13
35 34 34 35 37 39 37 32 9 2 3 2 4 2 6 3 7 13 13 14 3 5 3 5 2 3 3 5 7 13 6 8 13 15 7 6 6 19 19 17 18 16 15 15 14
36 35 35 37 36 38 34 6 4 3 2 6 8 8 20 16 15 6 8 6 3 4 7 4 4 7 11 8 7 11 4 15 12 7 5 7 10 21 20 16 16 16 15 15 15
37 36 37 39 40 26 6 3 3 2 11 12 20 16 26 2 6 16 7 7 6 7 5 2 8 10 7 6 8 5 5 7 3 7 6 4 6 18 21 22 21 19 17 18 16
37 35 40 39 30 1 18 9 4 16 4 9 11 10 10 13 10 15 9 5 5 6 6 7 5 8 7 5 7 5 6 5 7 9 6 9 3 9 13 9 13 15 16 14 18
38 36 40 41 3 18 12 2 18 5 3 8 5 7 8 10 7 12 12 7 3 11 6 6 8 8 5 5 7 3 9 8 9 16 7 7 5 9 14 15 13 14 14 16 17
38 38 38 27 19 6 6 20 22 4 5 5 5 1 4 14 5 9 9 6 13 6 7 8 7 7 5 7 7 9 7 8 9 15 6 4 4 6 12 11 20 20 19 18 17
40 36 36 16 11 23 18 19 1 5 8 7 3 3 4 4 6 2 7 5 6 6 3 11 4 6 8 6 8 3 4 7 5 5 5 12 7 5 12 27 27 17 18 20 19
46 37 35 20 7 8 10 6 3 4 4 5 4 5 3 1 9 4 7 10 11 8 6 3 8 4 4 5 4 5 7 3 3 2 5 8 4 9 19 25 25 26 21 22 19
49 38 28 24 21 16 4 4 5 7 8 6 6 8 3 2 5 4 6 12 8 5 6 6 9 9 4 9 8 7 10 7 7 5 6 5 7 10 15 22 22 16 20 19 21
44 25 21 11 13 15 4 3 8 6 4 3 5 4 4 4 5 5 7 14 15 11 9 7 8 5 6 7 11 5 5 9 6 1 3 4 6 8 7 11 16 18 17 19 22
30 14 12 8 11 12 4 7 6 5 5 4 1 2 2 3 7 6 4 6 12 12 7 9 2 7 8 5 6 13 7 2 2 6 5 4 4 6 8 8 11 13 17 20 19
8 5 6 4 16 4 4 8 7 7 7 4 2 5 5 6 6 2 8 10 11 14 14 8 6 8 6 8 10 2 2 4 5 4 7 4 6 8 8 9 17 20 23 18 17
7 4 5 19 1 1 4 7 4 5 4 4 4 6 5 5 7 5 10 10 12 17 13 10 7 11 12 5 4 7 11 10 8 5 1 4 7 5 9 9 12 13 14 10 12
7 4 5 5 2 3 6 4 2 2 7 4 5 4 6 10 6 6 10 22 18 20 18 9 5 5 7 4 1 5 6 5 4 4 8 7 6 1 4 6 10 11 10 11 13
3 4 4 3 1 1 5 6 4 4 6 8 7 7 9 4 8 8 15 15 14 15 27 17 5 15 14 9 6 6 6 7 8 5 6 6 5 4 7 8 8 9 11 14 16
2 4 2 4 3 6 3 4 5 3 4 7 4 11 8 8 5 5 11 10 11 8 8 15 11 8 20 15 6 6 6 7 7 9 9 8 10 10 12 13 14 14 9 12 13
2 3 5 4 4 4 2 3 3 2 4 7 7 10 8 7 5 3 6 6 6 8 7 6 7 9 8 12 13 10 14 12 14 6 4 8 7 8 14 5 5 11 12 10 10
4 6 0 5 5 3 3 5 9 12 7 10 9 5 4 4 6 8 10 12 8 4 5 1 9 6 17 6 7 5 8 16 7 1 7 6 10 6 4 8 12 12 14 14 10

GFSSW_925_spd_006.txt.gz
Wind_Speed
24 25 26 25 25 26 25 25 24 24 23 24 24 25 22 24 24 16 7 12 8 16 11 18 10 8 8 3 6 3 2 3 7 9 6 7 4 5 5 10 3 5 5 12 26
25 25 26 25 25 25 26 27 26 25 25 24 24 23 21 22 19 13 28 21 16 15 17 16 7 7 2 4 3 3 2 7 7 7 10 11 8 10 4 10 1 7 15 26 26
28 29 29 25 25 25 26 27 28 29 28 27 25 21 17 16 5 8 8 9 20 20 16 15 8 9 5 4 4 6 7 6 5 8 16 13 9 6 10 6 6 13 19 22 23
27 29 31 29 28 27 27 27 28 30 29 29 27 18 10 5 7 1 2 11 8 24 15 9 5 7 5 6 5 3 8 8 7 8 12 15 9 6 12 5 7 14 20 20 18
29 28 28 30 31 30 30 30 28 28 30 31 26 10 3 1 11 23 19 12 6 23 20 8 7 7 6 5 4 6 2 8 9 12 11 14 10 5 9 5 14 17 18 17 14
30 30 29 29 31 33 33 32 31 29 30 28 18 3 1 5 8 7 11 3 10 22 14 9 8 7 5 4 4 3 4 9 7 9 5 9 6 9 5 13 15 18 17 16 16
31 32 32 31 32 34 34 34 33 31 26 17 6 5 1 17 15 12 15 3 12 17 7 12 5 3 4 1 3 5 7 9 3 4 5 12 2 6 11 16 16 16 15 14 14
33 33 33 34 34 35 35 33 32 26 12 6 7 5 7 9 11 16 10 6 6 19 8 11 10 3 3 1 5 3 5 6 4 6 8 6 6 2 15 17 17 15 14 14 14
35 35 33 34 38 37 37 32 27 5 3 5 4 3 9 8 8 7 10 5 10 12 14 6 6 3 1 6 4 4 7 3 3 6 7 3 3 8 13 14 15 16 15 14 13
36 36 35 37 38 39 36 26 4 1 2 1 1 1 6 3 5 11 5 9 2 6 4 3 3 3 3 4 6 7 7 3 7 9 9 5 3 12 14 13 16 15 14 15 14
37 37 38 39 39 37 25 4 4 2 2 6 5 5 10 12 12 3 4 5 4 4 6 5 4 7 10 9 7 7 8 17 1 3 3 5 5 15 15 12 14 14 14 16 16
36 36 40 39 39 22 8 4 4 1 10 11 19 15 22 2 5 11 4 6 4 6 2 3 9 9 8 6 8 9 7 10 2 4 4 2 3 10 16 18 17 15 15 14 14
37 37 41 39 27 3 21 3 2 13 3 9 7 6 7 13 13 18 9 5 5 7 4 6 4 10 8 5 7 6 9 6 14 6 3 6 2 8 11 9 11 13 11 12 15
39 38 41 42 4 22 12 4 17 2 3 8 5 6 4 8 5 16 15 7 4 12 7 6 6 11 9 11 8 7 8 7 9 10 6 5 5 8 12 17 14 17 15 16 15
40 38 38 26 18 8 4 21 18 3 5 4 4 3 3 8 3 6 10 4 9 6 6 7 5 8 5 8 9 8 8 11 8 8 5 1 2 6 14 11 22 21 19 19 18
41 39 36 13 11 22 10 18 1 4 7 6 3 0 4 2 5 3 6 4 6 6 3 10 3 8 11 5 9 10 7 6 4 4 1 8 9 5 7 24 25 18 19 20 17
45 40 34 17 6 5 10 4 2 5 4 4 1 3 3 5 5 2 8 7 6 6 6 2 7 3 4 5 1 6 7 2 2 2 6 3 4 12 10 16 24 23 24 21 19
47 38 24 20 14 11 3 4 6 5 8 5 4 4 2 4 6 6 5 5 2 6 4 7 6 8 4 7 8 6 9 6 6 5 5 4 8 10 21 12 9 8 18 15 18
43 23 14 5 6 13 4 4 8 7 5 2 5 2 3 4 4 3 4 9 10 10 10 7 7 4 4 5 9 4 4 6 7 2 2 5 8 9 6 7 8 14 14 18 20
30 13 9 9 8 11 4 6 7 6 2 3 3 3 1 3 6 5 3 4 6 11 6 8 1 8 6 2 3 9 9 4 3 5 5 4 4 6 6 11 9 8 16 18 19
9 4 10 3 12 4 4 7 7 8 4 4 4 1 1 1 5 3 6 5 5 4 9 7 5 6 6 12 14 3 3 5 6 5 7 4 6 8 10 11 11 14 19 18 18
5 3 6 8 1 1 3 6 5 5 3 4 1 5 7 6 5 7 9 9 6 6 5 10 10 10 12 4 6 11 11 9 7 6 2 4 7 5 12 6 9 12 15 8 12
4 4 3 2 3 3 5 5 3 3 4 2 4 6 4 6 4 8 9 9 15 8 7 7 5 10 7 6 2 5 5 6 5 4 8 6 6 2 5 8 8 11 10 9 11
3 4 4 3 0 2 5 5 4 5 6 5 6 4 3 5 7 6 4 4 5 5 15 13 6 12 18 17 6 5 7 7 7 5 6 7 7 7 9 9 8 9 9 10 12
2 4 1 4 2 3 2 4 4 4 3 3 4 8 10 8 7 9 11 15 5 2 7 4 13 11 22 11 8 8 8 10 8 7 8 10 11 11 12 13 13 12 7 8 9
3 3 4 4 4 4 2 3 3 4 3 6 6 9 9 10 11 9 9 7 5 4 5 4 7 7 20 16 12 10 8 10 9 3 7 3 9 10 4 5 6 10 10 10 12
4 4 2 4 4 2 3 1 7 11 9 12 8 6 11 8 7 9 7 6 7 7 3 3 2 3 12 7 7 7 20 10 7 6 10 8 13 7 6 9 10 10 12 16 15

GFSSW_925_spd_009.txt.gz
Wind_Speed
21 21 23 25 22 20 20 20 20 21 22 22 23 24 24 24 23 15 8 10 10 14 12 18 8 10 5 4 4 3 2 5 6 9 8 14 9 6 6 11 6 8 7 12 24
25 25 24 23 23 24 22 23 24 22 21 22 23 23 24 22 18 13 16 14 16 22 18 18 9 10 3 2 4 4 3 5 8 9 11 17 14 13 6 11 7 4 9 24 26
26 26 27 25 22 24 25 26 26 26 24 22 22 23 19 14 6 4 8 6 17 23 20 14 12 7 4 4 6 4 9 4 5 8 16 17 13 11 8 13 12 13 17 24 25
27 27 27 27 27 25 25 27 26 27 28 24 23 20 10 4 7 2 2 10 7 21 14 11 9 8 6 8 7 8 8 9 5 11 16 19 16 11 13 5 11 15 22 24 19
27 28 28 27 26 27 28 27 28 26 26 27 23 15 2 2 11 18 14 9 9 28 21 14 15 9 10 7 7 8 8 8 8 15 14 16 17 12 13 4 10 18 22 23 20
28 29 29 28 27 29 30 29 29 28 25 25 18 4 2 10 8 7 2 4 7 24 22 15 13 9 9 5 9 4 4 3 9 13 13 16 9 10 9 9 14 20 23 21 20
30 30 31 31 32 33 30 30 29 28 26 15 8 5 3 18 9 7 8 6 8 22 17 21 7 11 5 4 4 7 6 10 10 15 8 16 8 13 10 13 15 18 20 19 20
32 32 32 33 35 34 32 30 29 25 11 4 8 4 8 7 7 11 12 7 7 12 16 16 5 1 4 3 4 3 5 6 8 14 9 15 13 13 15 17 17 19 19 18 19
32 34 34 34 36 37 34 30 20 3 4 9 4 3 8 5 5 0 9 7 7 11 6 7 6 5 5 6 6 4 8 9 9 12 9 13 6 11 17 17 17 18 19 17 17
34 34 35 36 36 36 32 17 2 3 4 1 2 3 7 2 2 4 5 12 5 9 7 5 4 9 4 10 14 12 9 8 10 12 10 13 6 9 15 18 18 18 18 18 19
34 37 37 37 39 29 20 3 2 3 4 6 3 6 5 5 11 3 5 8 6 5 9 6 10 16 18 15 10 15 15 15 9 11 12 13 11 7 13 16 17 17 18 19 20
36 37 41 38 35 10 14 3 5 2 10 13 21 20 23 9 8 13 5 6 8 10 7 5 17 13 15 14 9 15 19 16 7 10 12 9 14 10 15 20 19 19 19 19 18
37 39 42 38 21 4 12 4 6 7 5 8 6 6 4 16 11 19 13 9 7 11 11 14 7 10 11 12 14 14 19 16 14 9 3 7 15 10 13 17 17 19 17 19 19
37 38 42 42 3 18 4 7 18 3 4 6 4 4 5 6 7 17 19 8 5 16 10 9 9 16 13 17 15 18 14 15 16 12 13 11 14 12 17 18 22 21 21 20 20
39 39 40 25 17 7 1 12 12 3 5 2 3 3 4 6 5 8 16 9 11 10 7 8 10 13 20 20 14 11 12 17 15 16 7 8 6 11 9 17 24 25 24 24 22
38 40 40 13 10 16 9 11 4 3 8 3 3 4 3 6 2 5 10 5 8 10 5 14 3 14 14 14 17 10 11 6 5 8 9 14 13 9 9 16 25 22 24 25 23
42 41 34 12 5 3 8 4 4 6 2 4 3 2 7 3 5 7 15 15 11 15 15 12 14 7 9 14 13 14 13 6 9 7 9 5 11 17 11 17 22 20 26 26 24
44 41 22 17 9 11 4 3 10 5 12 1 2 3 4 0 5 11 13 18 15 14 12 14 13 17 14 16 12 19 21 12 16 10 12 5 11 8 16 16 14 16 18 22 24
42 25 13 3 4 11 4 9 8 8 4 3 3 5 4 1 4 9 10 19 19 18 13 12 16 4 12 8 17 9 13 15 14 2 6 6 5 10 14 13 11 17 16 22 25
25 11 8 10 5 9 5 12 8 7 3 3 7 4 3 1 3 1 7 6 12 19 18 11 6 16 10 12 8 12 13 11 7 18 17 9 5 7 6 11 12 12 19 23 24
8 5 7 3 10 3 6 8 10 11 6 7 8 7 4 2 4 3 3 2 5 15 20 15 13 6 6 16 22 9 8 2 6 7 14 15 13 8 13 13 12 15 19 19 22
6 4 3 5 3 2 4 5 3 6 13 14 5 7 9 7 8 6 8 8 3 10 11 13 10 13 21 5 9 19 19 18 12 12 5 9 13 4 14 14 11 13 12 14 20
6 4 3 4 4 5 4 5 5 7 7 8 14 13 9 8 7 11 11 10 12 3 7 9 6 9 11 16 15 10 19 20 15 11 17 15 13 3 6 11 15 13 10 10 15
3 4 2 2 2 2 4 6 6 5 10 7 7 7 7 7 9 6 5 5 3 12 6 8 8 11 15 19 16 16 17 17 20 16 15 16 18 11 11 13 15 13 13 10 13
2 2 3 4 1 8 4 4 10 5 4 4 7 14 11 10 15 17 16 18 17 10 5 8 7 15 24 26 27 25 24 20 20 25 21 19 19 18 15 16 18 16 9 10 14
3 3 3 6 10 8 5 3 6 5 3 10 7 12 12 9 15 15 14 16 12 3 6 4 2 2 16 26 23 28 27 23 23 24 19 21 13 13 13 11 10 14 13 14 16
2 2 3 6 4 4 4 4 4 8 8 12 11 10 11 11 6 12 13 13 7 3 4 6 1 4 9 12 17 22 25 24 21 22 21 20 16 10 11 12 16 16 15 17 17

GFSSW_925_spd_012.txt.gz
Wind_Speed
23 22 21 20 19 18 20 21 22 22 20 20 21 21 21 22 22 8 10 9 9 12 16 14 12 11 12 8 8 4 6 4 7 3 11 14 11 7 7 11 7 8 7 23 25
24 24 24 22 19 20 21 21 22 22 21 22 21 22 21 21 14 17 13 14 19 19 22 20 15 15 9 10 6 9 7 5 3 1 11 16 12 14 10 11 10 11 9 26 26
24 24 25 25 23 21 22 23 23 22 22 22 22 22 20 14 12 3 5 7 18 22 17 19 14 15 14 9 10 8 11 6 3 2 8 18 12 12 10 12 12 15 15 24 26
25 25 25 25 24 25 26 25 25 24 23 22 22 21 13 4 6 4 5 5 6 19 14 19 15 16 13 14 11 10 9 9 8 5 11 17 15 12 10 4 13 14 18 24 22
26 26 26 26 26 26 28 28 27 25 22 22 22 16 4 8 14 9 10 6 12 20 20 19 20 18 16 11 10 12 11 8 9 7 12 14 15 9 11 8 12 15 19 23 20
27 28 28 29 29 30 30 31 29 27 24 21 19 5 5 16 5 5 8 8 9 22 23 22 14 20 10 11 11 0 6 8 5 10 12 13 13 11 12 11 13 17 20 21 22
27 29 29 29 30 31 32 32 31 29 25 19 10 6 8 18 6 9 9 8 10 21 18 26 20 17 14 10 11 7 7 5 9 13 10 11 12 14 13 13 13 17 18 20 20
31 32 33 34 34 32 32 32 31 23 13 5 6 6 8 4 5 14 14 14 9 16 21 16 26 15 16 4 8 14 12 10 11 14 8 16 13 16 14 16 14 16 17 19 21
30 33 34 35 33 37 33 26 16 4 3 10 5 7 7 4 8 7 13 11 11 12 12 15 18 16 16 15 15 14 14 13 11 14 7 15 4 15 15 16 15 15 17 19 19
32 35 37 37 36 36 25 14 4 2 3 3 5 6 7 6 10 2 8 12 11 15 11 16 12 15 15 17 18 18 18 14 13 15 12 16 6 5 14 16 16 16 17 19 20
33 36 38 39 39 30 18 5 5 6 9 10 4 12 4 7 5 6 10 15 11 18 14 19 18 21 23 22 20 17 16 14 15 14 16 15 13 11 10 15 16 16 18 19 20
34 36 39 39 37 11 12 6 4 5 12 16 23 24 23 11 9 15 14 15 15 18 18 16 23 22 22 21 23 20 18 17 13 9 15 13 15 13 14 17 18 19 19 19 19
34 37 41 39 21 6 7 3 5 9 8 9 11 11 10 20 18 19 22 19 19 21 21 19 18 21 20 21 24 23 21 18 15 11 15 11 15 17 15 16 17 19 20 21 21
35 36 40 43 3 16 2 3 10 7 6 6 8 7 8 7 9 21 28 22 17 23 21 21 20 23 19 24 23 24 23 19 16 14 13 16 13 14 17 17 20 21 21 22 23
38 35 38 26 17 7 2 9 12 4 6 8 8 9 9 9 3 9 24 24 22 19 21 20 22 22 23 24 25 24 21 19 19 17 19 15 11 13 4 14 20 24 24 24 23
40 40 41 13 11 15 13 11 3 7 9 6 8 12 11 13 6 5 16 22 17 20 17 23 15 20 23 22 23 21 19 16 17 16 18 22 15 15 12 15 17 18 23 24 23
43 41 32 13 5 4 8 6 6 11 4 9 10 13 10 8 12 13 20 24 19 20 20 20 22 15 18 23 24 22 18 12 15 15 15 18 20 16 12 10 15 12 19 24 23
46 37 13 14 8 6 8 7 14 5 19 3 5 12 13 9 9 16 18 22 25 22 14 18 20 26 16 27 25 27 26 15 24 16 14 21 16 18 19 18 21 11 12 20 24
42 19 13 6 8 10 8 15 11 16 11 16 13 14 17 13 7 13 20 22 25 24 23 19 24 23 22 19 26 26 26 25 24 20 17 17 14 23 16 16 15 14 14 18 23
23 19 12 6 8 12 9 25 21 16 10 12 19 14 18 18 13 12 17 18 22 26 22 13 13 24 23 20 26 27 22 24 20 25 22 20 20 12 19 17 17 13 16 18 21
14 6 6 2 11 7 15 22 23 23 18 15 20 17 13 12 15 12 8 9 16 21 22 21 12 14 22 26 25 20 19 21 23 22 19 18 19 16 15 14 13 12 14 16 18
7 6 4 4 7 9 15 17 8 18 23 22 16 19 18 14 15 13 12 9 5 15 25 22 14 16 19 22 26 24 25 24 17 26 19 22 18 19 18 18 21 19 11 10 14
5 7 3 7 7 13 15 14 15 23 22 24 27 20 18 18 20 17 16 12 11 9 15 20 19 14 19 18 18 22 28 28 26 22 26 20 19 18 12 12 12 13 13 8 10
5 4 5 7 10 12 16 13 20 18 20 23 21 22 23 23 19 11 12 12 11 16 4 7 18 24 17 22 21 25 24 26 27 21 22 27 21 21 22 18 16 14 14 12 10
5 4 2 6 6 6 12 14 16 15 15 16 22 21 21 21 21 21 17 12 9 9 6 16 15 15 21 21 19 23 28 29 30 29 28 22 29 23 23 18 19 19 18 11 12
4 5 4 10 13 14 12 14 14 15 12 15 17 18 22 20 19 18 19 17 17 14 18 15 14 16 22 21 22 27 27 29 30 30 29 30 33 24 24 24 23 22 19 16 16
5 8 5 9 8 8 11 11 8 10 11 16 15 12 11 9 9 9 11 13 13 15 15 16 14 12 18 22 17 21 27 29 28 32 28 28 26 26 30 23 25 24 21 17 18

GFSSW_925_spd_015.txt.gz
Wind_Speed
23 22 21 21 21 21 24 24 23 21 20 20 21 22 21 23 22 7 11 12 12 14 12 11 16 15 15 16 16 14 5 3 2 15 10 12 12 8 11 12 11 2 20 23 25
24 24 23 23 22 21 23 25 25 24 22 21 20 22 21 22 19 22 18 16 18 15 14 19 16 16 13 14 12 4 8 7 8 11 15 10 12 11 12 14 13 8 25 28 26
24 24 23 23 23 22 25 27 26 26 25 23 21 20 19 18 18 9 10 3 18 20 20 19 17 15 17 16 14 13 16 25 5 4 8 13 11 12 11 12 16 15 21 23 24
26 26 26 25 24 24 25 26 26 26 26 25 23 21 16 7 7 8 4 5 2 19 21 19 19 18 18 17 14 15 11 2 5 9 7 15 13 12 8 12 16 17 20 22 20
26 28 29 28 27 26 27 29 27 25 24 25 24 20 7 10 18 9 7 6 10 18 23 19 21 19 21 17 16 11 12 7 5 9 9 14 13 11 9 7 14 19 20 22 20
27 28 30 30 29 29 30 31 29 27 25 24 22 11 8 19 15 8 7 11 13 19 23 22 18 18 18 20 16 9 9 9 5 10 10 10 16 10 13 10 15 18 20 21 21
28 30 32 33 33 31 33 32 31 27 24 20 16 7 13 19 7 6 13 14 15 18 19 25 24 18 20 20 17 14 9 9 8 11 12 12 14 14 18 13 16 17 18 20 20
30 32 34 34 33 34 36 32 26 22 14 8 5 8 9 10 13 18 16 17 14 16 21 20 24 23 19 19 22 18 16 14 14 14 11 18 16 16 17 17 16 17 17 18 20
33 32 34 34 34 39 38 24 21 8 2 7 7 10 15 8 13 17 19 19 18 16 17 19 14 22 18 18 16 17 17 20 16 16 14 16 11 18 16 17 16 16 17 18 19
34 33 36 36 34 39 30 16 12 2 2 6 11 7 12 13 12 10 14 18 16 14 13 17 14 19 19 18 18 20 22 20 18 17 12 14 3 18 16 16 16 16 17 18 20
36 36 36 37 37 29 23 6 5 7 15 15 7 12 9 10 8 12 13 17 16 17 18 21 18 24 27 25 24 23 20 15 14 25 19 18 14 13 14 16 16 18 17 19 20
37 38 38 39 35 10 12 8 7 8 14 20 26 27 26 17 14 16 17 17 18 20 21 17 24 25 25 26 24 27 23 18 14 21 21 18 19 18 18 15 16 18 19 20 20
37 38 40 38 21 6 13 8 5 15 9 17 26 25 25 23 25 19 21 21 21 23 24 24 22 25 25 26 27 26 25 19 17 25 19 15 18 18 16 19 16 17 18 21 22
37 39 40 40 11 21 7 3 10 11 7 13 10 10 16 15 18 27 27 23 20 23 25 24 21 25 27 28 27 25 25 24 20 13 12 19 16 21 19 20 20 19 19 21 22
37 39 40 26 20 9 8 12 12 6 7 10 12 15 16 18 11 19 29 27 26 22 19 25 24 25 29 30 29 25 24 24 23 18 24 24 17 13 22 20 22 20 22 21 21
37 39 42 17 14 17 16 8 9 8 14 8 11 14 18 21 14 10 20 25 24 23 24 25 21 27 23 26 24 24 24 25 24 19 17 23 18 20 16 15 14 19 22 22 22
38 40 33 20 11 3 10 9 7 11 3 12 15 19 21 21 20 15 20 26 25 25 24 23 28 23 25 24 24 28 25 16 20 18 19 22 21 22 19 16 20 16 19 23 23
39 33 20 16 13 11 10 9 17 12 29 2 16 20 24 20 19 20 18 22 29 24 17 21 21 29 20 28 28 31 29 20 26 18 19 23 22 22 17 11 7 10 11 15 22
37 21 18 16 11 14 9 16 15 22 17 19 13 20 23 22 19 20 24 23 27 28 25 20 25 19 29 26 26 30 29 28 27 24 19 20 25 23 12 19 17 17 17 12 20
26 26 21 9 8 13 11 29 22 32 15 16 25 19 22 24 20 20 22 23 25 29 26 21 17 23 25 24 26 33 24 27 22 28 26 24 23 18 21 19 19 14 17 13 18
15 6 7 4 9 9 16 24 27 35 33 25 24 26 27 24 26 22 24 21 24 26 26 25 18 15 22 29 30 21 27 24 26 24 21 20 19 20 17 17 20 22 21 15 17
12 7 8 5 9 9 18 27 26 30 27 29 24 27 27 25 26 22 23 25 20 22 29 26 16 15 20 25 26 27 28 32 18 27 21 22 19 15 16 16 13 12 12 16 15
7 12 21 11 12 15 22 29 28 29 29 30 28 30 28 27 23 23 20 17 6 16 21 22 20 17 20 19 23 30 31 32 31 22 26 22 20 22 13 17 22 18 18 19 5
7 7 9 11 12 18 21 22 23 20 22 22 26 25 28 29 26 22 23 20 16 15 5 9 21 24 18 22 18 28 29 30 29 22 22 26 26 24 21 13 11 14 13 10 8
7 10 11 11 12 12 17 22 13 20 25 21 25 30 27 29 26 25 26 21 23 18 19 17 19 23 26 25 21 23 28 28 31 29 28 24 29 25 23 23 19 20 16 16 15
5 7 8 13 18 20 19 20 18 19 16 23 24 21 25 26 24 26 28 23 19 21 21 21 18 19 21 24 25 24 23 30 29 30 30 29 31 25 27 25 18 17 18 17 17
13 16 8 9 17 14 12 21 26 13 9 19 9 15 20 16 20 19 20 22 25 18 19 22 17 19 21 22 19 23 27 25 24 28 28 28 31 27 28 25 23 24 21 21 21

GFSSW_925_spd_021.txt.gz
Wind_Speed
24 24 25 25 24 23 23 24 23 22 22 23 22 21 22 24 28 15 10 22 16 22 9 6 14 17 19 9 11 4 4 4 5 3 6 12 19 19 21 28 19 6 20 29 35
26 26 26 26 26 25 25 25 25 26 25 24 23 22 21 23 21 16 39 29 23 25 22 15 11 14 8 6 9 7 5 13 13 7 4 19 23 16 19 17 9 24 23 33 36
27 27 28 28 27 26 26 27 27 29 27 25 25 23 20 18 6 8 10 17 21 23 24 18 17 12 13 13 12 9 7 9 17 15 8 10 15 12 15 10 20 25 26 27 33
30 29 29 30 31 31 29 28 30 31 28 26 25 23 18 4 6 2 9 9 16 22 19 17 9 9 10 14 16 7 12 9 4 14 6 7 11 12 14 19 24 25 24 28 24
32 32 30 31 32 32 32 30 32 31 29 27 24 21 5 5 13 20 9 9 11 13 18 14 13 12 13 14 16 12 14 16 15 16 11 12 4 20 15 27 26 23 19 26 23
34 34 33 33 33 35 34 33 36 33 29 25 20 11 2 10 20 18 30 19 13 15 15 16 8 14 9 16 14 17 15 10 15 18 13 21 10 10 23 27 27 25 18 13 14
34 36 36 36 36 37 37 38 38 32 26 19 13 3 6 21 10 12 23 23 16 20 10 21 22 11 7 13 17 16 14 15 6 4 7 22 12 17 22 27 26 24 20 15 12
35 36 36 37 38 40 39 43 37 28 23 13 5 6 9 20 18 17 27 27 20 17 21 22 26 13 7 9 15 12 8 6 8 10 12 15 25 13 17 24 23 23 21 18 15
36 38 39 38 40 42 43 43 36 23 10 5 5 5 10 15 14 31 24 17 22 25 26 19 13 10 8 8 7 7 9 11 15 7 10 9 10 15 14 21 21 22 20 18 15
38 40 41 40 41 41 45 37 16 1 3 3 9 2 10 10 15 23 26 29 9 8 10 9 6 7 9 6 10 8 8 13 14 9 9 11 11 14 8 7 21 20 20 19 18
38 40 41 40 40 40 42 14 4 0 6 8 9 7 21 15 15 17 24 16 9 8 11 11 8 16 13 14 11 14 15 16 19 9 7 5 14 10 12 7 9 20 20 21 21
39 41 42 42 39 29 12 4 15 14 12 15 25 26 34 28 13 15 29 13 12 14 11 10 18 12 12 11 18 20 19 20 14 12 12 13 16 14 11 16 12 19 21 22 21
39 42 42 44 37 4 22 21 19 24 7 15 23 18 25 19 23 16 14 17 15 17 16 17 9 16 18 17 18 21 20 16 10 9 9 10 3 4 14 6 14 19 22 22 24
39 41 40 49 7 27 13 27 23 22 5 8 8 10 13 15 15 25 22 15 11 18 18 14 17 18 22 21 19 18 22 20 19 10 14 15 7 9 15 14 15 18 21 22 22
39 40 39 39 20 10 13 24 26 15 6 6 7 11 11 21 9 24 24 18 18 17 10 19 18 20 21 23 19 21 13 19 21 15 9 12 4 10 19 18 21 21 23 22 22
40 42 43 26 15 26 28 29 17 2 9 7 8 8 13 20 18 3 25 19 9 15 17 18 11 19 20 16 21 16 14 17 16 12 10 15 16 6 14 28 22 20 19 24 22
41 43 42 25 8 13 18 8 2 7 8 8 5 11 17 13 22 24 19 25 21 17 20 19 22 19 20 18 14 19 8 12 12 11 9 12 13 9 21 16 26 24 19 19 21
40 44 34 24 20 16 7 2 10 8 13 19 12 12 14 13 19 24 21 24 25 20 8 15 18 23 13 20 15 16 16 12 13 14 9 9 12 13 18 14 23 25 16 22 19
40 28 23 28 23 23 6 9 6 8 9 14 20 10 15 16 14 19 23 20 23 26 20 15 18 8 24 20 18 11 21 14 5 8 6 8 9 11 15 19 16 17 19 22 19
30 15 18 21 17 17 8 14 9 13 24 17 9 11 10 16 15 16 21 20 21 25 24 10 7 20 21 22 17 19 6 11 14 15 19 16 10 12 8 18 14 12 13 17 17
9 6 19 20 16 9 14 10 16 20 23 14 18 24 24 24 18 22 14 23 23 25 27 25 17 18 15 19 23 12 17 12 7 13 12 10 16 8 10 16 16 18 20 17 29
8 5 24 30 7 8 13 18 22 23 22 23 17 23 26 25 28 24 24 20 17 27 24 24 15 16 25 17 24 24 13 11 9 6 4 8 15 9 13 7 26 30 20 11 9
5 9 27 16 5 9 13 21 22 22 20 21 22 24 21 25 22 21 25 28 24 21 24 16 19 11 17 17 19 26 19 14 15 5 12 5 14 18 17 3 6 4 7 6 8
4 5 5 7 6 13 15 12 14 16 18 20 18 18 17 20 16 17 24 21 24 23 16 10 19 27 19 19 5 9 22 20 17 13 16 22 14 18 5 7 14 14 11 8 10
3 5 10 8 13 19 15 6 18 13 12 14 11 18 22 14 23 12 14 21 20 24 14 5 19 20 26 19 14 24 14 25 22 21 16 13 16 14 10 9 9 10 9 9 7
3 4 5 9 14 17 15 14 16 14 11 14 10 14 17 10 16 20 19 17 11 15 19 12 8 12 17 26 25 26 19 20 25 22 19 17 19 6 6 11 13 9 14 12 7
6 10 2 6 10 11 11 17 20 3 7 12 16 14 18 17 10 17 19 21 21 24 22 10 5 3 8 7 5 20 28 18 11 17 18 17 18 7 9 6 8 4 4 6 8

GFSSW_925_spd_024.txt.gz
Wind_Speed
23 23 24 25 25 23 23 23 23 23 25 26 24 22 21 23 24 14 9 23 20 23 7 25 15 20 22 5 4 3 2 3 4 2 10 20 15 14 10 21 11 5 14 28 34
25 26 25 25 25 25 25 24 25 25 26 26 26 22 20 21 20 15 38 32 25 18 21 21 13 17 8 7 5 3 3 5 6 5 18 22 21 18 11 21 7 19 22 31 31
27 29 30 29 29 29 29 28 28 27 29 27 25 23 20 15 5 9 12 11 23 27 22 24 17 12 8 5 7 6 7 6 16 5 12 20 22 17 24 16 22 26 25 26 29
29 31 31 31 31 31 32 31 30 30 32 28 24 21 15 3 6 2 6 7 19 25 19 13 7 7 7 15 10 8 17 11 19 18 9 13 23 16 25 13 24 29 31 26 23
33 34 34 33 33 34 34 35 33 33 34 27 21 14 2 2 13 14 2 7 15 22 17 11 10 7 7 7 10 18 14 17 21 12 8 12 14 25 15 24 22 24 26 25 23
35 36 36 35 35 36 37 37 36 37 33 24 15 6 3 9 13 14 13 20 15 20 13 13 8 9 5 8 8 6 10 11 14 19 11 9 6 7 16 23 24 27 26 23 23
35 38 39 36 36 38 40 38 38 38 33 21 10 3 5 19 7 4 4 25 27 22 7 20 24 6 3 8 6 7 8 13 9 13 8 11 5 14 24 26 26 26 24 24 24
37 39 41 38 38 40 40 42 40 37 22 12 7 7 9 13 17 24 18 23 22 23 23 19 22 9 4 7 7 5 2 4 1 9 6 9 10 20 26 25 25 26 24 22 23
39 40 43 43 40 43 43 41 34 10 4 9 9 6 11 8 8 26 23 17 27 24 24 22 8 8 4 4 5 3 6 6 11 13 10 4 4 14 23 24 23 22 21 23 22
40 41 44 45 45 44 45 33 8 6 8 6 3 2 8 6 5 9 25 25 6 7 5 6 4 6 1 4 7 6 4 5 6 3 11 6 11 17 25 24 24 23 20 19 18
40 41 45 47 45 48 32 9 4 2 4 8 7 7 13 5 13 10 25 13 6 4 8 5 6 13 10 8 6 5 6 8 7 4 7 13 13 21 28 23 23 22 21 21 22
40 42 45 50 48 24 9 4 2 12 12 15 23 25 37 9 8 8 21 9 7 12 6 4 12 7 8 7 10 10 12 18 8 6 4 9 16 19 26 27 27 23 22 23 21
40 42 46 51 37 5 24 8 24 31 5 8 15 16 12 17 15 20 8 9 8 10 9 12 8 14 9 11 10 14 16 15 10 7 3 6 2 3 8 5 16 22 24 22 24
39 42 44 53 8 32 13 23 27 18 4 8 6 8 11 10 9 23 11 14 6 17 9 9 13 12 19 14 12 11 15 16 10 2 5 7 4 7 12 8 17 22 21 22 24
39 41 42 42 21 10 16 26 33 2 5 3 5 6 8 14 6 12 22 6 13 8 8 10 18 20 16 16 16 13 9 10 12 7 4 10 2 7 8 15 12 17 24 23 24
39 41 43 27 16 23 19 34 7 4 8 7 5 6 7 4 3 1 11 6 6 10 9 15 8 15 15 13 17 14 6 7 5 8 9 14 12 6 8 14 17 18 22 25 24
39 41 43 27 7 12 22 6 3 5 5 3 5 7 6 8 7 3 20 16 15 8 19 8 17 5 11 8 9 10 7 6 6 8 11 9 8 11 15 17 24 26 22 25 25
40 41 41 36 30 17 8 3 6 5 9 7 11 11 4 4 6 7 6 19 17 4 5 13 12 13 10 14 19 9 13 9 9 4 5 6 8 13 15 18 26 28 22 22 23
37 38 26 25 11 14 3 4 6 6 6 13 10 5 6 6 12 6 15 16 19 16 12 7 14 4 19 10 15 10 8 13 7 3 1 5 6 8 11 13 20 25 18 23 26
30 15 16 14 12 14 3 4 5 3 12 9 3 3 9 12 10 15 5 7 16 19 18 12 4 11 21 9 21 11 8 3 1 14 16 5 5 10 7 12 11 22 26 26 29
11 4 14 17 25 3 5 7 4 16 11 7 13 13 14 9 5 8 11 15 3 6 23 20 11 11 5 14 18 10 11 3 5 8 11 4 16 8 11 9 9 18 27 28 28
6 3 14 35 4 2 6 5 8 13 19 13 11 17 13 11 15 10 12 12 17 18 11 13 14 15 26 11 14 20 13 11 8 8 8 17 24 5 9 9 11 16 21 25 23
3 4 12 4 4 5 8 8 8 8 5 7 6 6 7 4 6 5 9 8 21 15 6 9 5 10 8 9 8 8 14 19 6 4 16 9 6 6 7 6 9 8 8 5 6
2 4 4 3 1 10 10 7 11 11 12 3 5 3 5 2 2 6 11 10 20 16 22 10 6 14 19 16 6 6 16 16 19 14 13 21 8 5 4 4 7 11 10 15 14
1 4 3 4 6 10 9 8 12 9 7 4 5 4 3 4 5 4 4 11 13 6 15 8 6 4 15 16 21 14 11 21 23 23 22 21 10 10 10 9 10 10 9 10 11
2 3 4 6 5 6 5 4 8 11 5 6 3 11 3 3 5 13 11 3 4 7 10 6 5 8 7 13 24 24 21 22 22 23 20 7 7 10 13 8 8 10 10 10 16
5 10 3 5 4 4 4 8 15 7 10 9 10 8 9 10 8 12 12 13 10 5 5 4 4 8 6 6 20 20 30 15 13 11 15 14 9 10 8 10 10 9 9 9 9

GFSSW_925_spd_027.txt.gz
Wind_Speed
23 24 24 24 24 24 23 24 23 22 21 23 23 19 19 21 22 14 8 21 20 13 22 25 20 19 21 5 4 3 0 3 7 7 5 8 5 9 4 13 5 4 8 17 31
24 25 26 26 25 25 25 26 25 25 24 25 23 19 18 19 17 15 35 27 23 28 29 20 14 17 6 7 5 4 3 6 6 1 12 19 16 16 6 13 2 8 16 29 31
26 27 28 27 26 26 26 27 27 27 25 27 24 19 15 11 5 9 8 7 27 35 28 29 16 12 5 4 6 5 6 1 6 9 6 22 15 9 13 9 8 21 23 23 28
28 29 31 31 29 28 28 29 30 28 27 26 21 16 9 0 5 2 11 7 30 34 23 19 8 7 7 8 5 4 10 8 14 3 7 14 12 7 19 8 15 24 28 25 22
33 34 35 37 36 34 33 34 32 31 30 26 18 9 1 2 11 11 7 10 30 30 22 9 8 9 7 5 8 8 10 8 16 14 9 15 16 13 23 7 17 19 21 23 21
38 38 38 39 40 39 39 38 38 35 31 26 13 2 3 8 12 11 13 13 25 28 16 12 8 8 6 6 7 6 20 20 13 15 13 18 14 8 17 17 20 21 23 21 21
38 39 39 42 44 43 42 44 42 37 30 19 10 7 3 17 6 4 7 17 20 30 8 21 15 10 6 6 6 6 6 8 11 13 10 20 17 22 15 22 23 23 21 20 20
39 40 41 44 47 46 44 43 38 27 12 7 13 9 8 10 12 31 23 21 19 25 25 25 26 6 3 4 7 3 3 3 4 3 6 23 17 19 20 24 22 23 20 20 20
41 42 44 47 50 50 47 39 20 7 5 16 12 6 9 3 7 24 22 12 22 20 24 12 7 6 2 4 4 4 5 5 5 4 6 6 4 12 22 23 22 20 20 19 17
41 42 45 49 50 52 38 19 4 9 9 6 3 1 6 4 5 7 16 23 6 7 2 7 5 5 3 4 9 5 4 5 4 2 2 3 4 18 21 22 23 22 20 19 19
41 42 46 50 52 33 33 4 4 2 3 7 6 5 6 7 8 6 11 12 4 6 8 7 8 10 10 7 6 3 4 6 5 5 5 11 7 20 20 17 18 19 20 20 21
42 44 46 50 50 10 28 4 6 5 12 16 23 22 34 3 5 5 18 8 7 9 6 3 16 9 9 8 9 7 8 12 0 7 5 6 13 19 22 26 25 23 22 23 22
41 43 46 50 34 10 20 3 20 22 5 8 9 9 7 19 12 12 12 7 6 9 9 12 6 9 9 7 8 6 9 10 8 2 0 5 3 10 20 12 15 18 23 21 23
39 41 43 51 8 30 13 23 31 11 4 8 5 7 6 8 8 16 16 13 5 18 8 7 9 12 8 8 9 8 6 8 3 4 3 5 4 6 16 21 20 19 19 20 21
39 41 40 40 17 11 13 31 33 3 6 3 4 7 5 11 3 11 17 6 14 9 9 9 14 16 12 19 8 11 5 6 4 5 1 5 1 6 17 18 20 20 21 22 21
40 42 41 23 18 22 20 35 6 3 9 5 3 3 4 4 5 6 13 2 6 6 5 16 5 14 10 8 14 5 1 4 3 3 6 16 9 9 12 22 23 19 23 26 24
41 43 45 22 8 19 24 8 3 5 5 5 4 5 2 4 4 4 16 15 10 11 16 7 20 5 7 10 6 5 7 4 3 4 10 9 6 15 8 22 28 27 26 28 27
39 42 37 19 18 18 6 3 6 4 5 5 6 9 2 9 2 6 12 18 15 5 8 9 6 17 6 10 11 9 11 6 7 4 9 5 9 8 17 11 20 25 28 24 24
37 38 19 14 19 4 3 4 7 3 4 9 7 5 5 6 8 9 7 13 14 11 9 10 11 4 15 8 15 7 10 13 2 1 2 5 8 6 8 11 10 13 15 21 24
30 16 14 13 27 3 4 4 4 2 6 5 4 5 5 8 7 7 5 4 8 3 3 7 2 8 9 7 8 15 8 4 2 11 12 5 7 5 8 15 10 11 12 17 21
10 5 5 27 12 3 3 6 6 8 8 7 4 4 2 5 6 4 4 5 12 10 8 3 4 6 7 9 18 6 7 3 7 6 9 4 10 9 10 10 11 12 14 17 19
4 4 16 25 5 3 4 12 8 14 10 4 3 4 4 5 3 3 5 7 14 8 6 6 3 15 19 7 17 14 16 9 5 12 9 12 11 1 13 15 11 10 11 18 23
4 3 11 6 4 6 9 8 8 11 7 6 4 4 4 3 3 4 5 7 16 12 5 7 4 2 6 5 3 9 13 16 12 3 20 10 7 6 9 8 9 10 9 9 15
3 5 4 4 2 4 6 5 10 12 9 8 3 4 4 4 5 4 6 3 12 8 12 2 3 3 7 5 2 7 11 16 16 13 16 19 7 4 8 10 9 8 7 8 9
0 2 1 4 5 5 7 5 7 8 8 8 3 8 3 1 2 1 4 9 8 7 5 4 2 3 6 12 15 14 12 26 20 23 17 16 12 12 10 11 10 11 7 8 11
1 2 1 3 6 5 5 2 2 8 3 6 10 13 3 3 1 6 1 1 5 6 7 4 3 6 5 9 13 17 17 23 28 25 14 15 8 9 16 9 5 10 10 10 10
5 5 2 4 3 3 2 2 8 14 3 5 11 13 5 1 6 9 10 8 7 3 2 3 1 5 5 9 12 9 29 20 15 15 18 17 10 9 9 10 12 13 11 11 10

GFSSW_925_spd_030.txt.gz
Wind_Speed
25 25 25 26 26 24 24 23 23 22 22 21 21 21 20 19 21 13 9 21 15 17 24 24 19 20 14 3 2 2 3 3 4 2 3 8 5 5 6 10 3 4 6 13 30
26 26 26 26 27 27 26 24 24 23 23 21 21 21 18 16 17 14 35 22 20 22 30 24 12 18 3 6 3 3 3 6 5 4 6 8 9 9 5 9 1 4 13 28 29
27 28 28 27 27 28 28 27 27 25 24 23 21 18 14 11 5 8 4 6 25 29 33 23 17 10 8 4 5 5 6 5 4 3 7 7 4 5 8 8 7 15 21 23 26
30 31 30 30 30 30 30 32 30 29 26 24 20 15 8 2 6 2 7 9 33 36 28 20 11 7 6 7 6 4 11 7 6 3 5 9 9 4 12 4 9 16 28 22 21
33 34 34 34 35 34 35 35 35 30 27 22 18 11 2 3 12 9 9 10 34 33 25 13 17 6 7 6 6 6 6 7 11 4 6 7 13 9 13 2 13 19 22 23 19
36 37 37 38 40 40 39 40 37 33 28 24 14 5 3 7 8 8 9 19 29 28 20 12 11 6 2 4 7 6 9 14 10 10 6 11 14 9 10 9 15 20 20 20 19
35 37 39 41 44 42 45 42 37 31 26 20 13 11 3 15 4 9 14 21 35 32 8 16 10 13 7 3 8 7 9 7 8 6 8 8 5 21 6 17 17 18 17 17 17
36 38 40 43 47 48 45 36 30 17 8 7 15 11 8 8 15 23 13 17 30 31 17 28 16 3 2 2 7 4 2 2 4 5 6 14 21 21 14 19 18 18 17 17 17
39 41 43 46 49 51 32 30 6 10 8 20 13 5 9 3 7 18 27 12 24 27 20 1 6 5 2 2 4 3 4 5 6 7 2 12 7 15 17 18 18 18 18 17 15
40 42 45 47 49 46 32 9 9 10 11 3 5 1 6 5 5 8 21 23 6 8 4 6 3 5 2 5 11 6 4 3 5 1 5 7 6 8 17 19 20 19 17 17 17
41 43 45 49 50 32 35 3 4 3 3 8 4 4 4 4 4 6 11 13 7 5 8 6 4 14 11 7 5 5 5 4 3 3 6 10 3 6 16 15 17 18 17 18 20
40 43 46 50 45 17 15 6 7 3 11 15 21 17 23 4 4 4 22 9 8 7 8 4 20 11 9 8 9 6 5 7 4 7 2 3 9 9 15 22 22 20 18 20 18
42 43 46 50 27 17 13 7 13 13 4 9 8 7 6 13 11 8 15 7 7 9 17 19 7 12 13 7 11 6 12 6 4 3 1 4 6 5 12 4 13 16 18 17 18
41 43 46 52 7 27 11 10 28 4 3 7 5 6 5 8 6 11 19 7 5 21 9 7 8 19 8 13 10 9 8 5 7 4 4 4 5 5 8 20 16 15 18 18 19
40 41 44 33 16 9 10 25 28 4 6 1 2 8 6 7 0 8 10 2 10 9 9 11 12 14 16 11 8 8 9 9 6 5 3 4 1 6 7 11 17 18 19 20 21
41 43 47 23 16 15 26 30 2 3 9 3 3 1 4 4 3 4 7 2 6 5 1 8 5 13 11 7 10 7 4 5 5 4 6 9 8 5 7 14 17 18 18 20 20
41 44 36 16 10 25 23 6 3 5 7 5 4 5 4 3 3 5 11 15 11 8 11 6 13 3 6 7 5 6 8 2 2 4 9 8 7 14 9 14 20 24 22 22 22
41 41 27 9 25 22 8 4 5 2 3 4 5 8 2 7 3 5 10 17 6 5 7 11 7 17 6 10 10 8 10 6 8 5 5 7 9 6 13 11 17 19 25 23 21
39 33 13 10 29 14 4 1 5 2 6 8 7 4 5 5 2 3 3 10 9 5 7 8 10 4 10 5 17 6 10 9 4 1 2 5 7 6 6 9 12 18 17 16 20
31 12 13 14 26 1 4 4 5 6 11 5 3 5 6 7 6 6 5 7 10 7 5 4 1 6 18 6 9 11 9 4 1 6 6 5 4 6 8 14 14 10 15 18 18
11 4 8 32 6 4 2 5 7 13 11 6 5 5 4 5 4 5 5 6 11 9 8 6 3 3 9 11 19 4 6 3 6 6 6 0 7 8 10 13 15 17 17 18 16
4 4 17 22 5 2 4 9 9 12 7 5 5 3 2 4 4 5 4 4 10 7 4 2 2 7 6 2 7 22 12 8 6 10 5 4 9 4 10 9 12 12 11 11 14
3 2 9 10 4 4 6 7 5 11 9 7 5 4 4 4 3 5 5 3 12 9 4 5 2 2 5 6 2 5 10 8 14 2 16 8 8 14 3 8 10 10 9 8 10
3 4 4 4 1 3 5 5 8 8 4 9 6 6 5 5 4 3 6 6 8 6 8 2 2 3 4 1 4 6 5 9 15 13 15 18 11 4 6 8 8 10 10 10 9
2 2 1 4 3 6 2 4 8 6 6 5 4 10 6 3 5 4 6 4 5 7 5 4 0 2 2 11 6 11 14 12 12 21 15 17 21 11 8 10 13 15 8 7 10
1 2 1 4 7 8 4 3 5 7 3 4 4 12 13 3 2 3 6 3 3 6 5 4 1 1 3 9 12 11 13 15 14 11 8 20 14 8 14 11 9 11 9 10 11
3 4 2 2 2 3 2 3 6 10 9 3 6 10 10 3 4 7 8 7 8 1 3 3 3 2 4 4 10 13 9 14 8 8 11 16 10 8 9 11 14 16 13 13 13

GFSSW_925_spd_033.txt.gz
Wind_Speed
26 27 28 27 26 26 26 25 24 23 22 21 19 20 19 19 19 8 10 17 14 13 19 23 19 18 16 6 2 1 3 2 1 3 1 10 4 5 6 12 6 6 8 17 30
26 28 28 28 28 28 27 26 26 25 23 22 21 19 17 16 15 14 33 19 20 26 27 29 20 21 7 7 4 4 3 2 3 2 5 12 9 10 4 12 7 7 14 30 30
27 29 29 29 29 30 29 27 27 27 25 23 21 17 13 11 6 8 3 7 22 29 24 25 26 17 9 5 7 6 5 3 2 5 3 12 10 8 7 10 11 15 22 27 29
27 28 29 29 31 32 31 33 32 30 27 23 19 15 7 2 6 2 3 7 29 29 29 26 20 14 9 8 11 5 11 8 2 0 3 11 11 8 12 3 11 17 25 28 25
29 30 32 33 35 36 35 40 36 29 25 22 15 10 2 4 12 16 12 8 31 28 33 19 24 13 14 10 8 14 9 5 11 11 9 7 15 10 16 10 12 20 24 24 22
32 34 36 38 38 39 41 40 31 31 26 19 11 4 3 9 8 10 7 25 33 32 30 23 16 12 10 7 15 4 12 13 10 13 11 13 10 9 11 14 16 22 26 23 24
34 36 38 40 42 43 44 33 34 31 23 17 11 9 5 16 4 10 15 21 33 34 27 26 15 16 8 5 10 10 13 13 14 10 8 11 9 18 10 19 20 22 23 22 22
36 38 40 42 45 46 40 33 19 12 5 7 15 11 8 5 21 12 15 9 22 23 23 17 8 16 4 1 2 3 3 5 1 7 5 14 15 15 17 20 21 23 22 21 23
38 40 44 47 48 44 30 19 12 15 11 20 12 5 7 2 8 20 17 10 24 21 9 13 9 7 5 9 7 5 9 8 6 9 5 12 13 5 20 21 21 22 22 21 21
39 41 44 48 48 32 29 1 6 9 10 2 5 4 7 4 6 12 20 21 9 17 7 7 7 12 11 12 12 10 9 9 12 1 7 10 17 2 19 22 21 22 22 22 23
39 42 45 46 45 26 22 2 2 3 3 8 2 5 3 4 9 7 26 20 10 14 13 15 12 22 22 18 14 7 15 11 4 3 6 12 13 9 15 18 20 20 21 22 24
40 43 45 46 37 15 13 5 7 7 12 15 22 18 24 5 3 12 27 15 14 17 16 8 24 21 13 15 17 16 17 16 8 10 4 6 10 9 15 21 23 25 24 24 22
41 43 44 47 21 16 7 8 12 8 6 9 8 8 8 13 7 16 26 17 23 22 27 26 6 20 19 15 18 20 22 19 14 3 4 7 13 6 11 16 17 21 21 20 23
42 42 42 43 6 22 3 15 24 2 5 6 5 5 7 9 10 15 26 17 12 26 23 22 20 22 23 26 22 23 17 16 15 8 11 5 12 6 11 16 18 19 21 22 24
43 43 39 23 10 7 16 27 18 4 6 4 4 7 9 14 1 13 28 12 21 20 16 18 23 18 25 25 20 16 11 16 17 14 11 13 8 12 4 12 19 21 23 24 24
44 42 33 11 11 20 28 22 3 4 9 1 4 3 6 12 2 4 15 12 6 11 20 19 7 24 16 20 23 13 7 9 6 9 15 20 14 17 15 15 14 18 22 23 24
45 41 20 7 8 32 24 4 4 7 7 5 4 5 5 2 7 7 18 26 17 16 17 20 14 12 18 17 19 20 16 7 9 11 15 12 14 21 9 18 20 18 23 25 25
42 36 10 10 23 30 9 3 9 3 5 9 8 13 3 4 2 2 16 24 21 19 15 19 16 20 19 21 14 26 22 9 14 14 12 8 14 13 15 19 19 18 18 20 22
40 29 10 18 29 14 3 5 4 9 9 13 13 4 1 3 5 4 7 20 21 15 13 19 19 9 17 12 22 15 23 22 8 1 5 13 14 10 8 18 17 18 15 18 22
26 10 10 34 15 4 2 3 4 12 15 9 5 7 5 8 3 3 2 7 6 1 5 6 7 13 25 18 23 14 18 11 13 15 13 8 9 13 18 19 17 18 18 19 20
7 4 18 31 7 3 3 5 7 10 14 8 8 8 7 6 6 4 7 9 9 7 5 2 5 4 16 21 22 11 19 12 13 9 9 7 10 8 15 17 20 22 21 20 19
5 3 19 23 6 3 5 12 9 10 10 5 7 4 5 5 4 4 3 7 14 9 1 3 4 11 17 14 22 23 19 22 11 14 12 7 7 1 10 10 13 16 17 13 15
4 3 9 10 5 7 9 7 6 13 11 7 6 9 6 5 3 5 5 7 12 12 6 4 3 12 12 10 10 21 23 22 21 12 17 11 6 11 4 3 7 11 13 12 12
3 4 3 4 1 6 10 6 9 10 5 6 8 7 7 2 2 2 5 5 10 9 9 4 1 10 14 11 3 6 11 24 24 17 18 20 17 9 6 6 7 9 11 10 10
3 2 1 4 4 9 10 6 12 9 8 8 2 9 9 4 3 4 6 6 4 12 7 4 2 5 5 7 6 9 10 10 18 24 22 21 27 21 17 18 12 9 9 10 11
2 2 1 6 8 8 5 3 9 10 8 8 5 10 9 4 6 6 9 4 3 6 7 7 1 4 8 9 9 11 13 14 15 17 16 22 26 11 7 14 18 20 17 15 14
2 3 2 4 5 4 3 6 11 14 7 5 8 15 11 11 11 13 12 12 12 9 4 5 3 2 5 7 13 15 21 17 14 13 15 21 18 14 16 16 15 18 18 16 15

GFSSW_925_spd_036.txt.gz
Wind_Speed
25 26 26 25 25 25 25 24 23 22 21 21 21 20 17 17 15 7 16 14 16 14 17 23 22 19 19 12 8 6 6 3 5 2 7 11 9 6 6 13 8 5 11 25 33
26 27 27 28 27 27 26 25 26 26 24 21 20 20 17 15 12 21 23 21 16 25 23 26 21 21 15 12 7 8 8 5 4 5 5 9 7 10 8 14 12 9 17 31 32
27 29 30 31 31 30 29 29 30 28 25 21 19 18 15 11 9 8 6 23 25 30 25 22 21 18 15 10 11 9 9 5 4 7 5 10 9 10 8 12 14 14 22 28 31
28 30 32 33 34 34 34 33 32 27 23 20 16 14 9 5 5 5 2 5 27 29 24 23 21 21 16 12 14 8 11 5 3 3 4 5 9 10 10 6 14 16 23 27 26
30 32 34 35 37 38 38 37 30 27 26 20 13 9 3 9 11 3 6 7 25 30 28 23 22 21 18 16 12 17 9 5 10 8 7 4 7 4 10 9 17 19 24 25 23
32 34 37 39 40 42 42 35 29 31 25 18 10 6 6 15 8 9 9 22 30 31 29 26 23 20 13 11 16 9 15 13 11 11 9 10 9 10 11 14 18 22 25 25 25
35 37 39 41 41 45 38 33 31 22 18 13 13 11 9 18 4 7 14 23 29 32 26 29 18 19 8 12 10 15 11 11 14 14 10 9 14 15 8 19 19 22 22 23 24
35 37 39 41 42 43 35 32 15 16 8 8 17 11 9 5 16 9 16 17 23 26 27 25 11 21 9 2 7 16 16 14 17 18 14 13 10 15 14 20 20 21 21 22 24
37 39 40 41 43 36 34 19 8 10 9 19 11 9 7 4 12 20 18 16 23 22 20 18 14 18 19 13 14 14 14 18 12 11 10 15 12 8 17 19 20 20 21 22 22
39 40 41 44 46 27 28 6 3 4 6 1 2 6 8 5 9 26 19 15 22 18 16 16 14 17 17 17 18 18 19 15 15 12 13 13 14 4 12 17 18 19 20 20 23
40 40 42 43 42 18 21 6 4 7 8 10 1 7 1 1 10 17 28 25 18 22 20 23 20 26 27 23 18 14 18 18 17 13 11 15 14 8 12 17 18 19 20 22 23
41 41 41 41 30 24 11 5 9 6 15 18 24 24 21 2 9 16 33 19 24 23 24 18 28 24 23 21 20 20 17 20 16 10 8 12 12 9 12 16 17 20 21 22 21
40 41 42 39 12 15 12 9 11 14 8 12 15 16 14 21 11 22 31 26 27 29 31 24 16 23 24 22 23 24 24 20 16 9 12 14 15 15 11 13 15 18 19 20 22
41 40 39 31 5 17 4 21 16 8 6 7 7 6 14 15 13 20 33 28 19 29 29 27 18 24 24 25 24 25 23 19 17 15 15 16 14 18 19 17 16 18 20 20 23
40 40 31 14 10 10 20 23 15 5 6 8 6 8 8 19 8 24 32 28 22 22 28 22 26 23 28 28 25 22 18 16 21 17 17 20 11 17 14 16 18 19 20 22 23
40 38 16 11 9 15 24 21 4 6 9 3 5 7 8 17 9 13 22 29 23 23 25 27 14 24 23 19 22 17 16 15 16 16 19 23 20 18 18 18 18 18 18 21 23
41 25 8 10 13 24 23 8 7 9 5 5 6 3 8 11 19 14 27 31 23 24 29 26 28 19 17 23 19 23 18 10 14 17 20 20 20 19 9 20 20 17 18 20 23
40 17 10 9 22 20 14 8 13 3 10 20 13 18 15 11 13 23 21 26 32 26 17 21 21 29 24 27 20 28 24 12 18 15 17 18 18 21 24 21 10 18 18 18 21
31 12 7 20 21 13 7 8 8 13 15 15 20 10 10 6 6 12 23 23 32 29 25 22 26 30 21 22 25 24 25 26 11 6 9 16 20 16 10 18 22 23 17 18 21
19 9 8 24 18 12 7 6 8 11 17 17 16 6 8 5 8 7 16 4 16 33 14 17 17 19 25 26 25 20 24 21 15 17 17 14 19 13 22 22 19 21 21 18 21
11 5 13 24 11 6 5 8 14 16 13 10 16 14 12 12 10 6 2 8 8 6 3 15 15 23 23 26 27 22 18 23 18 16 14 12 14 16 19 17 21 21 20 19 19
10 6 16 19 3 4 7 10 11 15 15 15 11 15 15 12 10 4 4 9 9 6 14 16 10 12 26 23 25 29 24 28 13 23 19 13 8 5 9 17 18 18 19 18 17
8 4 8 16 5 6 9 8 10 11 13 11 10 10 16 14 5 3 2 5 11 10 1 5 14 15 15 20 21 30 29 25 26 15 21 17 5 10 9 3 3 8 7 7 10
5 5 4 3 0 9 10 8 10 9 8 15 7 17 16 16 11 5 3 4 9 9 8 6 11 22 19 18 19 26 29 28 27 20 18 18 15 12 4 11 5 5 4 4 8
2 4 4 7 10 14 11 9 10 9 10 11 4 10 8 7 11 12 7 11 3 8 7 6 14 7 16 4 6 14 28 30 30 27 25 20 21 17 8 8 7 7 10 10 6
5 4 2 10 9 12 10 8 9 9 11 10 6 15 14 4 11 8 9 6 5 9 8 6 3 5 14 10 8 11 13 15 23 30 27 26 23 11 6 7 16 14 14 14 16
2 6 3 6 7 9 6 10 14 15 8 6 10 16 12 10 11 14 14 14 14 11 8 6 5 6 15 11 10 15 21 21 19 19 18 23 16 16 18 14 15 15 15 14 14

GFSSW_925_spd_039.txt.gz
Wind_Speed
24 25 26 26 26 25 25 24 23 22 21 21 18 17 17 17 17 12 17 14 19 15 14 20 24 23 20 16 18 13 12 9 2 15 17 11 14 10 12 13 9 4 21 27 30
25 27 28 28 28 28 27 26 25 24 24 22 19 17 14 14 16 26 31 21 25 19 19 26 24 21 17 19 13 15 2 7 1 11 12 12 16 10 12 13 12 18 27 32 34
28 29 30 31 32 30 30 30 28 27 23 20 18 16 11 9 15 14 8 40 26 25 23 24 23 20 21 16 17 16 7 25 6 7 3 15 16 10 16 12 14 21 26 28 35
30 32 33 34 35 34 34 35 30 27 23 21 19 15 7 8 6 8 6 17 33 26 26 24 22 23 21 22 17 17 11 20 7 3 3 8 15 13 8 16 17 20 26 27 26
31 33 35 36 37 36 39 34 32 29 26 22 17 11 5 10 16 5 4 6 22 30 31 24 25 24 23 19 15 19 17 10 4 5 5 4 3 13 12 15 19 21 25 26 23
33 35 36 37 38 39 41 31 34 28 20 14 13 8 9 19 11 16 9 14 20 32 31 28 21 24 22 21 19 15 17 10 11 11 9 11 7 8 14 15 20 23 24 25 24
35 36 38 41 42 44 38 32 32 17 16 12 14 14 15 20 6 9 17 21 21 32 25 30 27 19 21 18 14 20 12 17 15 14 9 9 10 14 15 16 21 22 22 24 24
36 37 39 41 42 46 28 30 18 14 17 6 15 13 9 6 23 15 16 22 23 27 28 26 27 22 23 16 7 19 21 17 20 18 16 12 16 18 17 21 21 22 21 22 25
36 38 39 40 41 37 28 22 10 12 6 13 11 15 11 5 17 24 21 23 26 25 24 23 23 17 23 18 16 18 18 22 20 23 17 15 15 14 18 23 21 21 21 21 22
38 39 39 41 39 28 29 18 10 5 3 7 9 8 10 11 16 22 26 23 23 21 19 19 16 17 20 19 19 22 23 23 23 15 19 18 19 16 19 18 21 21 21 21 23
38 39 39 39 30 27 29 18 4 7 14 15 9 16 4 8 6 20 28 22 22 23 21 25 20 27 30 28 23 21 21 23 24 14 21 18 20 17 14 14 19 21 21 23 23
38 40 42 35 15 20 20 13 9 10 16 22 30 28 31 6 12 18 30 21 24 27 26 20 28 27 26 28 27 27 24 23 20 14 16 15 15 14 15 17 18 21 22 23 22
37 38 38 30 9 16 8 19 17 15 9 18 27 26 24 24 15 24 31 28 31 30 32 29 21 28 27 26 28 28 27 20 19 19 15 15 16 16 12 15 18 19 21 22 25
36 37 30 28 6 18 12 21 18 12 7 9 9 8 26 20 19 26 35 32 19 33 31 29 28 28 28 29 27 28 26 23 21 20 18 20 16 21 17 18 19 20 21 22 23
36 35 19 12 13 11 21 23 17 7 7 12 9 6 12 25 9 30 36 35 26 25 30 31 25 22 30 27 28 26 21 25 23 19 19 23 17 17 27 25 24 22 23 22 24
36 27 15 7 13 18 23 22 8 7 10 5 6 8 12 25 27 24 29 33 30 26 28 29 22 24 23 25 24 22 19 21 24 20 21 25 21 19 17 19 24 24 21 22 22
37 18 10 11 13 22 20 12 8 10 1 14 15 16 12 16 24 19 31 32 30 30 30 28 32 24 22 23 25 20 21 13 17 18 20 25 24 21 20 21 20 21 23 21 21
37 13 10 9 19 18 16 11 13 21 15 22 21 24 21 21 19 27 27 27 35 30 19 22 24 34 21 28 25 27 26 15 23 19 18 25 28 25 25 15 15 21 23 22 21
29 11 6 16 17 14 9 10 11 15 17 20 27 22 15 20 9 24 27 28 31 34 31 25 31 30 34 25 28 23 27 27 23 23 16 21 29 25 20 27 18 13 22 20 22
24 18 2 20 16 12 9 13 15 15 19 18 20 17 24 23 8 17 27 24 27 35 31 29 19 32 30 25 29 29 23 23 17 23 19 18 17 18 23 17 25 24 18 22 21
16 7 12 21 15 8 8 9 15 14 15 15 21 24 18 21 24 20 18 4 9 12 26 33 26 15 26 29 27 25 22 26 21 18 15 12 12 17 20 22 20 21 25 22 20
11 7 16 19 11 1 8 10 9 14 9 15 16 23 19 18 17 17 18 10 10 14 16 35 14 20 30 28 26 26 29 27 17 24 18 14 3 9 18 15 19 20 19 23 21
9 10 3 13 7 9 10 12 6 12 11 6 9 14 20 19 8 15 8 7 11 11 10 2 16 17 23 24 28 31 30 26 27 19 21 16 7 8 5 4 15 17 16 15 17
6 6 7 8 7 11 12 17 14 7 9 9 6 9 17 17 15 11 10 9 6 8 14 9 17 23 19 25 23 28 30 30 25 20 18 20 14 11 10 10 6 7 8 9 4
5 5 6 7 10 12 12 14 17 15 5 15 2 9 8 8 17 11 13 13 12 3 10 7 16 20 26 18 13 30 29 30 31 24 25 16 19 18 16 13 12 13 10 7 9
5 4 6 13 10 12 12 13 13 11 13 16 9 8 10 11 10 16 15 11 8 12 10 11 12 19 23 24 6 13 20 31 30 28 23 24 15 17 18 9 9 9 8 6 6
2 9 5 7 12 9 12 12 15 15 13 9 13 15 13 8 10 13 15 18 16 15 12 11 9 11 16 21 10 18 21 18 25 24 25 22 20 14 10 9 6 6 6 8 7

GFSSW_925_spd_042.txt.gz
Wind_Speed
25 25 26 26 26 26 25 24 24 23 22 22 20 19 18 17 19 13 17 16 20 19 8 12 20 24 23 20 18 15 11 13 6 10 8 17 19 18 19 20 12 12 29 28 37
26 27 28 28 28 28 27 27 27 26 24 22 19 17 15 15 19 28 29 27 24 16 20 22 21 21 17 21 15 16 3 8 15 7 9 11 16 17 12 15 25 28 31 33 35
29 30 30 31 31 31 30 32 29 25 25 23 18 15 13 10 11 14 15 35 33 26 25 23 23 21 22 18 18 21 7 12 22 18 15 5 16 16 15 16 24 26 29 28 33
30 32 33 34 34 34 35 38 30 27 27 21 19 15 10 6 6 6 3 15 38 25 24 26 22 23 22 21 20 18 18 18 19 20 6 15 13 7 12 20 27 25 28 30 26
32 33 35 36 36 36 39 36 27 31 26 20 15 10 3 10 13 14 5 4 29 26 28 24 25 23 24 21 20 18 19 20 15 25 25 28 9 3 5 22 27 27 28 28 26
34 36 38 39 39 39 38 28 29 30 18 14 8 7 7 18 17 21 10 16 22 29 29 27 20 22 21 23 22 18 16 15 21 8 27 23 19 20 14 22 27 28 27 27 28
35 37 39 39 39 40 29 29 31 24 17 15 10 12 14 23 11 14 21 18 22 30 25 31 30 22 23 21 23 21 16 16 16 14 8 10 25 16 12 18 25 26 25 23 22
36 38 40 41 41 35 30 30 28 17 17 15 12 13 10 14 27 21 17 22 22 23 30 28 29 21 23 20 20 22 16 17 20 16 13 10 14 26 26 25 24 25 24 22 23
39 41 42 40 39 31 32 29 23 12 14 4 10 14 10 6 23 29 22 24 25 23 25 30 24 22 22 22 18 23 17 23 20 19 17 16 15 14 24 22 25 22 22 22 20
39 40 42 40 32 27 33 34 13 5 3 6 15 9 11 14 15 28 31 24 22 21 20 23 18 20 21 20 20 19 21 19 24 22 22 19 17 15 19 22 25 24 23 21 23
39 39 41 38 27 24 31 20 15 4 11 19 11 15 16 10 7 19 29 26 22 24 24 25 18 25 30 26 23 23 21 24 21 21 19 21 18 16 18 14 24 21 22 22 22
41 42 41 36 28 22 23 16 15 14 22 20 28 33 40 36 19 16 29 26 26 27 26 22 28 28 27 25 27 28 25 24 23 21 19 22 20 19 21 22 20 25 25 23 23
41 42 40 34 22 19 14 21 21 21 13 21 30 29 30 26 25 19 28 29 29 30 29 29 20 26 28 27 28 29 27 24 21 12 11 19 17 21 18 26 12 26 25 25 24
42 42 38 33 9 23 19 24 23 18 8 10 12 9 25 25 28 26 30 28 25 32 30 28 30 30 28 29 28 27 28 27 25 19 17 23 15 17 18 15 21 22 17 24 25
45 41 32 20 20 15 24 25 21 11 7 10 8 5 7 26 5 33 29 30 31 25 31 30 26 28 29 28 28 26 27 25 26 19 19 18 15 15 20 20 24 23 23 23 25
43 39 28 16 18 16 25 24 14 6 12 14 26 25 22 22 29 20 33 30 28 29 28 31 27 27 25 23 28 26 23 24 24 18 18 22 20 20 18 23 19 22 24 24 25
45 40 23 18 11 25 23 14 6 7 19 19 29 29 28 26 20 28 28 31 28 28 28 28 33 28 27 23 26 24 22 14 17 17 16 22 21 15 17 23 22 24 21 23 22
47 32 18 15 19 20 19 12 11 11 16 22 24 29 25 22 23 20 27 28 33 31 18 24 28 35 21 30 25 28 26 15 24 18 17 22 23 21 22 21 19 25 24 23 23
46 22 18 5 20 17 10 10 10 10 16 19 23 21 25 29 20 28 27 28 31 33 31 23 29 25 31 24 25 24 26 24 21 20 16 18 28 24 23 24 21 18 23 24 24
33 21 22 10 19 15 10 15 13 14 18 18 22 20 24 24 24 24 20 28 27 32 32 30 17 30 31 26 29 30 22 22 17 21 21 19 22 19 24 23 24 18 16 22 23
17 9 10 17 17 10 11 12 15 16 16 17 20 21 22 19 21 22 13 24 28 14 32 30 26 21 29 31 28 21 22 25 20 17 15 15 14 16 26 24 20 23 17 15 21
12 7 18 14 13 7 9 12 11 16 14 15 13 18 11 17 18 14 17 15 27 24 17 19 23 20 27 29 31 28 27 25 13 21 16 14 11 10 3 24 19 15 22 17 14
9 13 11 26 9 12 15 17 17 11 17 10 19 14 15 13 15 10 16 25 33 26 12 12 14 19 26 24 30 32 30 27 21 17 20 15 11 8 9 20 19 19 13 19 14
6 8 8 10 13 17 18 17 15 13 9 14 30 12 16 16 15 7 15 16 30 29 13 6 8 20 19 21 18 29 29 28 28 17 16 18 7 7 6 5 11 14 12 11 12
6 5 10 8 13 19 21 19 18 14 3 7 16 4 23 11 16 5 13 22 23 24 17 7 13 17 25 23 23 28 26 30 30 21 22 18 19 15 10 7 7 10 10 13 10
3 3 5 11 17 17 17 15 18 16 17 16 17 7 19 16 12 13 15 13 11 19 19 17 8 13 19 22 19 22 32 30 29 29 22 24 17 20 15 12 9 11 10 10 8
2 3 2 6 13 10 11 19 21 21 13 16 10 16 19 13 15 16 14 15 17 22 18 13 11 9 16 17 21 20 13 25 26 24 25 20 17 18 19 18 14 12 9 5 1

GFSSW_925_spd_045.txt.gz
Wind_Speed
26 27 27 27 27 26 26 25 27 26 23 22 22 22 19 19 20 14 11 19 22 15 9 11 16 17 21 8 19 17 7 7 7 0 6 17 20 17 15 24 9 9 22 24 38
29 30 31 31 31 30 29 28 29 26 22 22 22 17 17 17 19 22 31 26 24 15 17 15 13 15 13 17 8 8 3 8 5 6 6 4 7 20 22 21 21 25 23 34 36
32 33 34 34 33 33 33 34 30 24 23 24 21 16 15 12 7 10 7 32 30 28 23 22 19 16 16 15 16 11 8 8 4 7 8 9 9 4 23 18 29 29 27 26 29
34 36 36 37 36 37 36 34 26 25 27 23 18 14 9 1 4 4 7 5 34 28 18 22 16 16 14 18 20 16 19 9 8 5 5 11 2 8 22 15 25 27 28 25 22
36 38 39 38 38 38 36 30 26 28 25 17 13 7 1 5 12 11 16 7 27 33 25 17 17 15 18 16 18 17 15 16 9 6 19 14 7 3 25 27 26 26 25 22 20
37 39 41 40 39 39 34 30 30 29 23 14 10 4 4 9 15 17 9 13 25 32 24 19 10 13 11 19 17 15 16 15 11 11 16 14 6 7 22 27 27 27 26 21 21
41 42 43 44 42 38 34 34 36 34 19 13 8 9 9 19 10 7 26 21 26 34 17 27 27 15 16 12 20 18 16 17 15 18 8 11 5 13 21 31 29 26 25 24 25
41 42 44 44 41 35 35 37 41 24 11 11 8 11 9 20 18 28 17 21 25 29 28 24 28 15 17 10 17 17 17 14 14 15 14 20 14 8 24 27 28 27 25 25 26
39 41 43 43 38 34 35 37 33 20 3 1 8 8 11 16 10 28 23 23 28 25 29 25 21 15 15 14 13 11 13 12 9 24 8 28 12 22 18 24 27 26 24 24 25
41 43 45 46 39 31 34 36 21 3 2 4 7 4 9 5 9 19 24 19 14 13 15 16 9 15 15 12 16 12 7 10 15 17 16 9 8 23 21 23 26 23 20 19 26
44 46 46 46 42 29 38 16 9 2 6 11 19 21 40 19 30 20 27 19 12 15 17 18 11 21 23 18 12 13 17 15 13 15 10 14 11 29 28 19 22 15 19 20 19
45 47 45 45 40 25 23 10 13 17 20 20 27 27 37 29 14 18 26 17 17 21 16 12 24 19 15 15 19 19 21 19 14 16 11 10 12 14 33 30 29 20 12 20 20
46 47 46 43 31 18 29 23 29 29 9 20 13 13 17 13 17 29 10 21 16 22 24 24 12 20 20 21 23 22 22 18 15 15 17 16 16 10 22 25 24 33 33 25 26
46 47 47 42 11 29 15 30 31 28 5 9 2 6 5 10 9 25 26 18 19 23 23 25 20 25 25 25 22 21 19 21 21 13 6 2 3 7 14 23 26 27 23 26 24
44 45 45 26 18 8 23 33 32 20 5 10 15 12 28 3 14 13 32 20 25 22 20 24 23 28 26 26 23 16 14 22 23 15 7 18 11 13 10 16 29 28 31 25 23
50 47 40 14 13 20 26 33 23 2 5 9 18 22 25 23 20 18 14 17 15 24 22 25 14 19 27 23 19 15 17 15 17 13 14 11 17 17 13 12 26 30 29 28 24
53 47 21 11 6 19 26 13 4 4 9 11 21 22 21 20 26 25 22 18 18 20 25 19 30 24 18 21 21 19 11 9 12 13 13 10 7 10 11 13 18 29 30 29 28
55 34 13 17 21 21 19 8 5 9 12 17 18 18 16 22 19 27 29 18 22 23 5 20 20 31 22 22 16 22 20 10 15 9 10 8 10 9 12 7 15 23 31 31 27
54 24 15 16 18 16 4 4 6 10 14 16 19 16 18 22 17 22 21 15 11 19 23 14 28 16 28 20 20 19 20 12 3 6 3 3 7 13 17 15 9 10 24 32 28
37 13 11 4 12 13 4 11 16 13 14 12 14 9 18 15 15 15 12 19 27 26 32 26 17 20 21 26 21 18 12 13 9 9 10 10 12 15 15 20 13 11 19 25 28
17 7 26 28 18 6 7 7 14 16 15 12 17 13 12 12 11 14 8 25 16 29 30 20 13 30 16 25 28 12 12 15 6 6 6 6 10 11 22 22 21 12 12 20 24
10 5 21 35 5 6 9 17 15 15 11 10 12 15 12 18 12 12 21 14 25 25 28 18 8 17 27 15 24 16 15 15 10 11 5 4 11 6 6 26 22 18 12 16 23
6 5 18 26 5 7 14 17 18 16 9 6 5 6 12 15 6 7 13 12 13 18 12 15 6 5 18 16 20 28 22 18 8 6 9 10 10 4 11 15 22 15 15 10 20
4 4 4 6 10 14 13 13 17 21 18 3 5 9 10 8 5 9 10 10 19 21 31 23 13 17 11 15 7 12 24 21 16 10 10 16 4 10 11 10 9 9 10 9 15
2 4 6 5 9 15 14 13 14 10 12 13 5 7 7 7 8 7 15 16 17 19 17 10 10 16 14 12 9 15 25 23 20 16 15 12 8 8 1 7 7 7 8 10 9
4 3 2 7 10 15 11 10 12 17 15 14 15 9 7 7 9 14 6 9 7 13 14 16 8 15 5 9 11 17 18 26 20 19 16 10 9 8 7 8 14 11 14 11 9
4 2 1 3 6 9 7 10 13 19 10 19 21 9 9 11 10 12 15 10 14 6 13 14 9 9 4 4 5 5 17 17 20 18 19 17 8 7 6 10 13 11 10 10 10

GFSSW_925_spd_048.txt.gz
Wind_Speed
26 28 29 30 29 28 27 26 26 26 23 21 20 20 19 17 19 12 11 17 22 13 10 19 15 12 13 4 4 6 2 4 10 6 4 5 4 5 10 12 4 6 10 24 39
30 31 33 32 31 31 30 30 26 23 22 23 22 20 16 14 16 16 37 31 25 23 17 20 10 11 4 6 5 7 2 7 7 4 4 0 3 10 8 8 16 18 20 32 35
34 34 36 35 35 35 34 30 27 24 25 24 21 17 13 8 5 10 4 16 33 26 23 21 17 7 6 5 9 10 6 7 6 9 6 7 13 5 16 9 24 28 24 27 28
36 37 38 38 37 36 35 32 29 28 27 24 17 14 6 0 5 3 5 2 27 31 27 9 4 7 6 10 12 6 13 12 8 6 5 7 8 10 9 8 21 28 31 28 22
38 39 40 41 39 37 35 33 32 32 33 20 10 8 1 1 12 10 6 4 30 31 27 14 10 8 10 10 16 14 16 12 12 8 9 3 0 9 8 18 22 22 24 26 22
38 39 40 40 39 37 35 34 36 39 32 13 4 2 2 5 11 10 16 12 33 30 24 16 10 11 6 11 14 7 19 17 13 8 6 5 2 6 14 25 25 26 24 22 22
38 38 40 40 38 37 34 33 37 42 27 8 4 5 4 18 5 6 6 17 29 40 14 26 21 12 9 4 22 18 16 10 10 13 6 9 3 11 19 24 26 24 23 19 21
40 41 42 42 39 37 32 34 36 29 13 2 6 7 9 16 17 23 22 14 21 38 26 29 28 4 3 6 8 7 9 13 14 9 2 9 7 17 22 24 23 23 20 20 20
42 45 46 45 42 39 32 30 25 13 9 7 8 6 11 15 4 17 20 12 23 25 25 15 10 7 2 4 5 4 8 8 18 18 12 11 5 23 23 23 23 23 21 19 19
44 46 47 46 42 37 28 22 24 4 5 2 2 4 7 2 14 31 16 19 7 10 4 9 5 5 7 5 11 5 5 6 9 16 16 21 11 22 25 23 24 22 22 20 20
45 47 46 46 40 26 29 15 9 6 2 8 18 13 28 26 30 10 11 17 9 6 9 8 10 16 23 12 6 6 7 10 6 10 25 21 22 20 27 21 23 23 21 21 23
45 47 51 48 35 14 23 4 7 14 11 14 13 16 32 19 11 18 11 10 10 18 9 4 18 18 6 9 11 14 11 14 15 12 10 17 19 23 27 28 29 25 23 24 22
48 49 54 44 23 11 19 12 29 28 2 11 4 3 8 5 6 17 2 6 6 9 16 19 7 15 15 14 15 15 16 16 11 6 8 7 6 19 23 23 22 23 27 26 25
49 49 53 37 6 20 11 26 33 21 4 7 6 4 12 1 3 15 8 8 9 18 10 16 20 19 17 21 18 16 20 18 17 7 5 6 12 9 23 19 23 24 22 23 24
51 49 46 14 11 10 20 31 37 2 4 5 7 9 9 10 9 14 23 5 18 11 10 17 21 24 22 26 20 19 14 14 17 5 2 15 6 11 28 23 23 24 23 19 23
53 52 31 5 12 14 24 35 10 5 4 4 6 13 13 17 14 14 12 11 9 18 20 15 12 21 27 17 20 13 11 9 6 4 10 16 6 9 21 29 29 28 21 20 22
53 45 14 8 5 21 27 10 5 3 11 9 8 9 7 15 11 15 13 11 8 9 14 18 22 23 13 19 14 13 7 7 4 7 9 9 6 13 26 29 35 36 25 25 24
54 35 11 8 13 19 15 6 2 11 3 6 7 6 7 12 4 17 13 9 18 14 7 15 19 23 21 12 19 14 11 6 9 5 7 6 9 12 12 17 35 37 32 29 23
52 30 17 22 28 17 5 3 2 6 8 11 7 5 5 7 1 10 10 2 12 20 11 9 16 4 20 19 15 11 18 11 5 2 4 4 5 9 12 7 22 26 25 25 26
35 14 7 38 29 4 4 5 4 6 8 7 5 5 5 7 7 8 6 10 11 16 15 5 9 12 28 11 20 18 9 9 4 12 5 5 6 10 11 12 14 29 29 30 26
13 4 11 37 12 5 2 3 5 13 9 5 3 3 4 2 4 6 3 9 17 18 13 9 5 13 4 10 23 4 15 6 7 6 10 4 10 8 11 12 10 20 31 31 31
9 4 18 23 6 3 3 7 9 11 10 6 4 3 1 3 1 3 6 3 14 14 10 9 6 7 10 12 4 21 8 10 9 10 3 4 12 6 12 12 11 14 28 30 30
5 3 11 14 4 4 5 7 8 9 7 4 3 4 3 2 3 1 3 6 11 11 7 8 3 8 10 4 3 5 12 10 7 6 10 13 15 6 6 8 13 19 19 30 30
2 4 4 4 2 2 5 5 8 10 0 6 5 2 4 2 4 3 2 4 7 12 8 8 4 9 8 9 10 5 12 9 17 8 10 11 11 7 15 14 16 10 14 22 28
1 1 2 4 4 9 7 7 10 6 4 9 7 5 4 5 5 4 3 5 5 6 3 2 8 11 20 27 25 24 12 13 14 14 14 11 7 9 9 12 9 5 10 17 25
1 2 3 3 5 8 5 4 9 10 8 12 5 14 12 7 9 7 6 5 3 2 3 3 5 15 23 18 18 18 6 7 13 17 6 8 8 8 6 10 6 7 14 17 23
3 2 2 3 3 3 3 9 13 15 6 10 11 7 9 12 10 13 13 12 8 8 6 5 4 6 6 6 6 5 13 7 6 7 9 11 10 4 8 9 15 7 14 10 9

GFSSW_925_spd_051.txt.gz
Wind_Speed
25 27 28 28 27 25 24 24 23 21 21 22 22 20 17 16 16 9 10 17 24 10 14 25 15 12 11 4 3 1 1 3 6 4 2 8 5 7 6 11 3 6 8 23 33
29 30 31 31 29 27 26 23 22 21 22 23 22 19 14 12 13 14 32 22 17 20 23 23 11 11 4 5 4 4 2 6 5 7 4 5 4 8 6 8 6 12 19 33 32
33 33 34 33 32 30 28 25 24 25 24 24 18 14 11 5 4 9 12 20 28 30 24 22 17 7 4 3 5 5 5 5 6 7 10 10 8 3 11 2 7 22 28 26 29
34 35 36 35 34 32 30 28 26 26 27 21 12 8 5 1 3 2 13 3 35 32 22 15 7 8 6 6 7 3 9 6 4 7 6 7 5 6 9 4 11 25 33 25 22
35 36 38 37 35 34 30 27 29 31 26 15 5 4 2 1 10 7 12 8 33 35 22 11 11 7 8 8 5 12 11 10 15 9 3 6 9 7 11 10 18 24 23 24 20
37 38 39 38 38 35 30 27 30 29 23 10 5 2 3 3 3 9 1 16 26 30 18 9 10 8 7 4 13 6 14 15 10 14 6 6 3 8 8 20 19 27 24 21 20
38 40 41 41 39 36 27 25 26 24 15 9 11 4 1 15 6 12 6 13 28 32 15 21 9 9 6 1 10 7 7 8 11 11 6 4 3 6 18 20 21 24 22 19 18
40 43 43 46 42 36 25 22 23 15 11 6 8 4 7 7 14 11 9 9 21 24 12 23 18 4 3 3 5 5 4 3 7 7 5 9 5 12 20 21 20 20 20 19 18
44 47 47 50 40 32 24 23 18 5 8 9 6 4 10 14 9 12 16 7 17 23 15 12 5 4 1 2 4 3 4 6 8 11 6 9 4 15 20 19 19 19 20 20 19
46 50 49 48 38 23 24 14 13 5 6 1 1 2 4 8 16 23 14 13 5 9 2 4 4 4 2 5 12 6 4 4 6 8 9 8 3 16 20 20 19 18 18 18 20
47 49 54 44 33 15 24 4 5 5 3 5 10 4 12 13 14 5 11 7 5 5 8 7 5 17 28 17 4 4 5 6 6 7 15 17 11 18 20 17 19 18 19 19 21
48 48 53 38 19 15 13 5 8 6 9 8 11 7 14 7 4 6 6 6 6 7 7 6 18 19 6 8 11 7 5 6 7 5 14 16 17 18 22 26 26 24 22 23 20
49 49 49 30 7 14 7 9 9 14 0 8 4 5 7 1 2 6 2 1 6 10 13 9 3 14 10 10 14 13 13 9 8 2 8 6 17 14 21 13 15 19 20 18 22
48 47 43 23 3 15 7 20 28 2 4 5 7 7 9 4 3 4 8 4 3 13 12 13 14 17 18 17 12 13 13 15 11 3 5 8 5 14 20 20 20 21 21 21 23
47 48 34 11 9 7 13 28 20 4 4 5 6 6 6 6 7 10 16 5 4 9 4 14 14 18 16 20 17 13 6 9 8 4 2 13 2 6 17 18 24 24 23 24 24
48 46 23 9 9 10 25 32 3 5 4 4 3 8 6 6 5 8 7 8 4 4 10 10 10 16 26 11 14 4 4 3 2 4 10 16 7 5 17 22 27 27 25 25 24
46 35 16 13 10 28 24 6 4 3 5 7 4 6 4 6 7 9 7 14 6 7 7 8 20 15 6 16 10 10 9 4 4 5 12 8 6 13 21 24 25 28 28 26 23
45 22 14 20 30 23 7 5 4 3 2 3 4 2 4 6 3 6 4 4 12 6 3 5 8 14 10 16 14 11 12 6 9 4 10 5 7 6 16 19 24 26 29 25 21
46 21 4 32 30 12 5 4 3 2 4 4 4 4 4 4 1 5 5 4 4 9 4 4 7 11 19 14 17 12 19 10 4 3 3 4 4 5 8 12 19 21 19 21 22
28 12 7 33 25 3 4 4 2 7 8 1 2 1 2 4 5 4 2 3 3 10 3 2 6 7 13 10 15 16 8 9 5 9 6 4 5 9 13 11 18 21 18 19 23
7 4 21 31 5 5 3 4 4 6 9 6 1 2 2 2 1 1 1 4 7 6 3 1 3 8 8 6 24 6 14 7 6 4 11 2 8 6 11 17 16 20 21 21 23
7 3 22 26 5 2 2 7 6 5 4 3 1 1 1 1 2 2 2 3 4 1 2 2 1 6 10 14 15 8 8 8 10 14 2 7 14 2 10 11 17 20 19 21 25
4 3 10 12 4 4 6 6 5 5 4 4 3 3 1 1 1 2 1 4 4 2 3 1 2 6 8 2 4 3 3 14 4 4 12 17 12 5 6 6 12 15 15 15 20
2 4 4 4 2 3 5 4 6 8 1 4 4 1 4 2 3 3 4 4 3 1 6 4 5 7 7 8 14 11 20 19 11 12 6 14 10 8 9 8 8 10 13 15 19
2 1 1 4 2 2 3 4 6 5 8 5 3 3 4 4 3 6 6 4 4 3 3 1 5 8 11 18 20 20 23 24 14 14 15 13 10 10 11 8 7 9 9 19 25
2 2 2 3 3 4 4 2 7 5 4 6 7 11 7 7 9 6 4 4 6 3 3 2 3 3 8 22 19 19 19 18 20 21 6 4 11 6 5 4 12 12 12 15 20
2 1 1 3 3 2 2 3 7 11 8 13 7 8 8 12 10 9 9 7 7 8 5 4 4 3 6 8 13 5 7 13 12 16 4 7 3 8 7 13 13 16 12 9 18

GFSSW_925_spd_054.txt.gz
Wind_Speed
27 28 29 27 27 24 22 19 18 17 17 19 19 17 16 12 11 6 8 15 23 11 14 23 14 15 12 4 4 2 1 2 3 6 3 3 4 3 9 12 3 6 5 21 32
28 29 30 28 28 26 25 22 19 18 17 19 18 14 12 8 8 12 20 17 15 21 26 25 9 11 3 5 3 3 2 6 4 3 4 6 5 7 6 8 5 10 21 31 30
31 32 31 31 30 29 27 24 22 22 21 18 14 10 9 4 3 6 15 9 23 26 22 22 21 7 4 4 5 6 5 1 3 7 9 5 4 6 10 3 6 21 24 25 28
33 34 33 34 32 29 28 24 24 24 21 18 11 4 5 1 1 5 20 4 30 26 25 19 10 8 6 6 7 4 9 6 4 5 3 3 7 5 10 5 16 22 29 26 22
34 35 34 37 33 27 25 24 23 23 20 13 5 2 1 1 7 18 10 8 25 30 23 8 15 6 6 6 6 11 4 3 10 7 4 4 7 4 8 8 19 23 22 22 18
37 39 38 41 37 27 23 21 24 22 14 10 1 3 2 2 1 16 5 17 24 25 17 11 11 6 5 5 7 5 12 9 6 5 5 6 5 7 5 16 21 24 23 19 18
40 41 41 42 37 28 20 21 24 17 10 11 7 3 3 8 6 13 6 10 23 24 8 10 9 9 5 2 7 6 4 5 5 4 5 6 3 6 16 17 23 22 19 17 16
41 44 44 45 38 26 19 22 17 7 7 6 8 1 4 5 9 6 8 6 20 17 3 7 4 2 2 3 4 6 3 2 2 6 5 8 5 3 17 19 21 21 19 17 18
41 44 44 44 35 20 23 21 9 6 7 7 2 1 4 14 6 10 10 4 15 19 7 2 2 2 3 2 4 4 4 6 4 6 3 5 3 10 14 16 20 20 19 17 16
43 44 44 39 25 22 24 7 10 7 4 1 2 2 3 7 14 18 5 9 5 9 1 2 3 2 2 4 7 6 4 5 5 5 8 6 0 13 14 16 21 21 19 19 19
44 44 44 33 16 18 22 3 6 4 7 3 7 3 7 16 6 6 4 4 5 6 7 4 4 18 22 12 2 4 5 6 6 6 6 11 6 15 16 13 16 19 20 21 21
43 44 45 29 8 13 22 7 7 5 7 4 8 7 10 5 4 12 9 5 4 4 7 3 14 11 5 5 6 6 2 4 4 3 8 7 13 14 20 23 23 21 21 20 17
44 45 42 23 3 10 11 8 9 8 1 7 4 4 7 0 1 7 6 4 4 5 8 7 6 11 9 6 10 11 7 4 2 3 6 2 7 9 14 9 14 15 16 18 22
43 44 34 19 2 11 3 15 24 7 4 5 5 6 8 4 3 5 12 2 3 10 7 9 7 11 13 14 9 11 12 14 5 1 4 6 4 7 11 18 19 17 18 19 20
42 41 27 15 8 3 18 24 9 3 2 2 4 4 9 6 5 7 15 7 4 4 6 6 8 10 12 20 14 13 7 10 8 4 3 4 0 7 12 12 18 20 20 20 21
41 38 18 10 10 20 24 17 4 5 5 2 2 5 7 6 6 6 7 6 2 5 2 8 4 7 16 9 14 3 1 4 3 4 10 13 9 6 7 13 16 19 21 21 21
42 33 8 10 10 25 15 3 4 3 3 3 2 4 3 5 6 7 4 8 5 6 7 6 5 5 4 7 8 12 9 2 3 4 15 9 9 12 6 11 17 23 23 23 22
43 23 2 14 29 17 5 5 3 1 2 2 3 1 4 5 2 7 2 3 7 4 2 4 4 6 1 10 8 11 12 6 8 6 14 6 8 6 19 8 17 16 22 19 18
42 16 9 28 26 6 5 4 3 1 4 4 4 3 2 3 2 4 2 2 1 4 3 4 6 5 5 1 3 6 16 11 4 3 1 9 4 8 5 11 11 17 13 18 21
25 10 11 33 17 3 4 3 4 1 4 3 3 1 2 2 1 2 2 2 4 2 1 2 5 3 6 4 8 8 6 7 4 7 5 4 6 8 9 9 9 8 13 15 19
7 4 22 33 6 6 3 3 3 2 4 1 1 1 2 3 2 3 2 3 3 2 2 2 4 7 5 6 10 7 8 5 7 7 7 2 6 7 11 15 14 11 14 16 18
7 3 26 27 4 3 2 5 5 3 4 3 2 3 4 5 3 3 5 2 5 2 2 2 2 6 9 7 3 3 4 4 8 12 7 3 7 5 10 9 13 15 14 15 18
3 3 14 14 4 3 5 4 3 3 3 4 3 4 1 4 2 4 3 3 4 3 3 2 2 5 7 1 5 3 2 6 5 3 15 14 7 6 6 6 10 9 8 11 16
2 4 4 4 1 2 5 4 5 7 1 2 3 4 4 3 2 3 3 5 5 3 6 1 3 7 6 2 4 5 8 6 4 3 5 15 10 7 9 8 9 9 7 7 8
3 0 2 4 3 3 2 3 4 5 4 4 3 3 4 1 5 3 3 2 2 1 3 2 5 5 15 16 10 11 15 13 5 11 5 4 11 9 12 11 6 5 6 9 8
2 2 3 2 3 4 1 2 6 4 3 4 4 6 7 4 6 7 5 3 5 2 3 1 4 7 14 14 15 14 16 14 15 17 13 16 10 4 5 5 6 4 6 5 11
2 1 1 3 2 2 2 3 6 8 7 8 9 7 9 12 9 10 12 6 5 8 8 6 3 4 5 4 5 8 15 8 7 13 5 6 2 5 4 9 7 8 8 10 10

GFSSW_925_spd_057.txt.gz
Wind_Speed
28 28 26 26 25 23 22 19 15 14 16 16 16 14 11 10 8 4 7 8 16 13 24 22 14 15 11 8 4 2 2 4 3 3 1 8 6 6 10 14 5 8 9 20 31
30 29 28 29 27 23 22 20 17 17 17 18 16 12 8 7 5 10 7 6 8 21 26 26 16 18 6 7 4 4 3 3 2 1 3 10 8 10 7 13 5 7 13 32 34
30 31 30 32 29 24 22 20 18 18 18 18 13 9 5 4 3 2 8 13 18 24 21 21 20 12 7 7 7 6 4 2 2 1 8 8 8 5 13 9 10 19 23 29 33
31 32 32 34 31 25 22 20 17 19 19 14 10 3 3 0 1 7 14 8 26 26 23 19 15 11 8 9 12 6 9 10 4 4 6 4 7 6 11 2 13 22 28 29 27
33 33 34 35 32 26 22 18 18 20 17 10 7 1 1 2 5 13 13 10 25 24 29 17 18 12 13 9 8 15 6 5 9 5 4 4 5 4 9 5 16 21 27 26 24
35 36 36 37 32 25 19 18 20 17 10 8 4 4 1 1 5 14 4 15 20 19 25 18 14 10 9 4 12 5 16 11 4 5 5 6 2 6 4 13 19 24 27 26 25
36 37 38 37 31 20 19 21 19 9 6 8 8 4 2 1 5 6 5 10 15 14 19 9 7 13 4 7 9 10 4 6 10 7 5 6 7 10 13 16 21 23 24 25 24
37 37 37 34 25 21 22 20 9 4 7 9 6 1 0 6 7 9 2 5 11 9 8 5 5 7 3 4 2 6 9 5 3 12 6 8 3 7 16 19 21 23 23 23 24
38 38 39 32 20 21 21 10 6 6 7 7 2 2 4 9 9 6 4 4 13 13 1 7 2 3 5 3 5 5 10 15 5 8 7 13 2 10 15 17 20 21 23 23 22
39 39 39 28 16 20 15 7 6 5 4 2 1 2 5 9 9 7 3 14 5 14 7 4 6 7 7 11 12 11 14 10 15 10 12 11 8 11 15 16 18 19 21 22 23
38 40 39 24 10 15 15 3 4 1 6 4 2 1 5 15 6 8 4 8 13 10 11 8 11 21 20 13 13 9 7 16 11 9 10 14 11 12 15 15 16 19 21 22 24
38 39 36 24 4 10 16 5 5 4 6 2 5 5 7 3 3 15 5 3 5 9 10 6 19 17 11 13 14 17 6 12 14 3 10 8 15 13 18 20 22 24 23 24 23
38 38 33 20 2 6 10 8 11 1 3 4 2 4 3 3 4 10 9 1 7 8 16 14 3 14 14 14 16 18 19 8 7 6 10 7 15 13 15 14 15 17 19 20 23
40 38 28 12 3 7 2 18 18 9 2 1 1 5 7 5 3 6 9 2 4 13 14 13 16 9 16 21 18 19 17 17 10 5 12 13 12 13 15 19 20 20 21 22 24
39 37 20 13 5 3 12 19 3 3 3 4 3 3 6 5 7 7 7 1 1 1 5 9 12 18 14 16 19 14 11 16 19 13 10 11 9 17 11 17 21 23 23 24 25
40 35 11 9 6 13 19 4 3 3 4 2 3 4 4 6 5 7 7 6 1 2 3 10 7 13 18 13 17 10 4 12 15 14 16 20 13 15 13 19 20 21 23 24 24
39 24 5 5 9 18 10 2 2 3 1 2 4 3 3 5 4 6 4 9 5 3 3 3 11 9 11 14 17 20 14 7 8 11 19 18 16 17 14 15 17 21 24 25 25
38 9 9 9 20 10 1 1 5 3 3 2 1 0 1 2 1 4 2 2 7 3 2 3 10 11 8 20 13 20 20 8 13 13 16 17 13 14 26 19 11 16 20 19 22
33 2 7 22 14 2 1 2 2 1 3 3 2 3 4 2 2 1 3 1 2 5 3 3 6 2 4 4 17 15 22 21 9 4 10 14 21 13 14 20 22 18 14 18 22
16 5 11 31 7 1 2 1 1 3 4 1 3 3 6 3 3 0 1 2 3 2 2 1 7 2 4 4 13 16 16 17 13 17 12 8 21 15 21 16 17 19 18 17 19
5 1 19 24 6 5 2 2 2 4 6 3 3 4 3 4 3 3 1 3 4 2 1 1 2 4 6 8 20 13 12 14 16 16 14 12 10 16 19 20 17 18 21 19 19
5 2 24 16 5 3 3 6 6 3 3 3 4 5 5 4 4 5 6 5 5 3 2 1 3 6 9 7 5 6 10 23 12 20 19 13 14 4 16 20 22 21 17 20 20
3 2 14 11 4 4 5 3 3 6 6 4 3 5 4 2 4 7 4 3 5 3 3 4 3 5 7 8 4 5 1 7 12 8 20 18 15 12 9 7 8 12 13 13 16
1 2 4 4 2 4 5 4 6 7 0 5 4 1 1 7 5 3 4 3 3 3 5 3 3 8 10 11 11 8 7 4 10 15 18 15 19 23 20 11 10 7 8 8 12
4 3 2 4 6 6 4 3 6 6 3 4 3 3 3 6 6 7 5 3 6 4 4 3 6 8 16 18 17 18 20 17 11 14 13 19 16 18 19 22 20 13 3 5 6
2 2 2 2 2 3 2 1 3 4 3 6 7 8 5 6 8 5 7 8 7 8 7 5 5 7 17 16 15 19 21 19 18 17 12 14 12 8 10 7 4 5 6 7 9
3 2 0 2 3 3 2 3 5 11 8 11 8 7 7 13 11 14 11 11 11 5 9 6 3 5 7 9 14 11 22 19 13 6 17 16 6 11 10 2 6 7 8 9 10

GFSSW_925_spd_060.txt.gz
Wind_Speed
26 26 25 27 25 22 18 16 13 13 14 15 15 12 9 6 6 5 9 5 10 15 22 22 20 17 19 12 8 3 6 5 2 4 7 11 7 8 7 11 7 10 5 24 34
28 28 28 29 27 24 20 18 14 12 15 16 13 9 6 5 6 11 7 4 10 26 24 26 19 19 13 14 6 8 6 3 6 5 4 11 12 12 10 13 8 9 11 34 35
28 29 29 30 28 26 21 18 14 13 14 15 10 6 3 1 6 7 3 10 11 29 24 23 20 17 13 12 13 10 5 1 3 4 14 11 9 9 10 10 11 15 23 30 33
30 31 30 31 29 26 21 16 14 14 14 11 9 6 1 3 1 2 12 10 18 23 23 22 20 19 14 12 15 10 12 6 4 7 5 8 11 8 10 8 10 16 24 29 29
31 32 33 32 28 23 19 17 16 17 10 6 7 3 2 5 2 9 11 2 29 27 27 21 20 18 16 14 8 17 9 5 7 5 5 6 6 4 9 6 12 19 24 28 26
32 33 34 32 26 20 21 21 21 13 5 4 4 4 4 3 3 9 5 14 24 27 25 22 15 16 9 8 16 3 16 12 5 10 7 7 6 8 5 10 15 20 25 27 27
32 34 35 32 23 21 22 19 12 6 3 3 3 2 4 6 2 6 4 11 18 22 20 21 8 16 5 10 11 13 9 9 16 14 8 7 10 10 13 13 16 19 22 25 24
32 34 36 31 21 19 20 12 7 5 4 5 4 3 5 2 2 3 4 13 16 8 18 12 9 17 7 2 6 15 15 14 16 16 9 11 10 13 14 15 17 19 21 24 25
33 34 35 29 17 18 14 6 5 7 5 5 2 6 5 1 1 2 3 11 16 10 9 11 10 11 14 12 11 13 14 18 12 15 10 14 6 14 14 15 17 18 21 22 23
33 34 34 27 13 16 14 3 4 4 3 4 5 5 9 7 5 1 4 14 12 15 9 15 10 12 13 15 15 16 18 14 17 15 18 16 7 11 13 14 17 18 20 22 23
33 32 32 25 9 11 12 5 4 5 3 5 5 3 5 6 4 6 9 9 10 18 14 14 15 20 20 18 17 8 12 18 14 11 15 17 14 14 13 14 16 18 20 22 24
33 31 29 23 3 8 9 5 6 5 4 2 1 2 2 2 2 9 7 7 11 15 16 12 19 18 16 14 14 16 12 14 14 10 9 17 18 14 16 16 18 19 20 22 22
32 31 26 18 1 4 7 7 6 2 6 6 1 2 4 4 4 9 4 2 11 16 18 18 5 19 15 15 17 19 19 12 14 12 9 17 17 16 16 15 16 17 18 19 23
33 32 21 7 3 4 1 10 9 7 5 9 6 3 2 1 3 6 5 5 7 12 15 17 20 7 18 20 18 20 18 16 13 11 14 21 15 21 19 19 19 19 20 21 22
34 30 11 4 4 3 9 12 0 5 5 4 4 3 2 1 3 4 4 4 10 9 10 11 12 19 17 17 20 16 14 14 17 15 15 16 13 16 24 19 21 21 22 22 23
32 22 4 2 1 6 12 5 5 6 3 5 2 0 3 3 2 3 2 1 2 9 14 17 6 14 23 18 11 13 16 14 15 16 18 23 18 18 18 22 22 21 22 23 23
32 7 7 6 6 14 9 5 5 6 2 4 1 1 1 3 2 4 3 3 5 8 15 17 17 17 14 17 20 17 17 10 11 14 21 23 21 18 18 19 21 19 22 23 23
26 5 6 5 15 9 6 6 6 4 2 2 2 2 5 1 3 1 3 5 3 6 10 9 14 20 18 21 19 23 21 12 20 16 19 23 25 23 26 15 18 19 19 21 22
14 2 6 16 10 4 7 7 6 2 4 4 6 8 6 4 5 4 2 4 1 4 6 5 12 3 7 14 20 20 23 25 25 16 16 18 20 18 23 28 14 15 16 19 21
6 3 13 19 6 6 6 4 1 3 5 4 7 1 5 7 5 3 2 5 4 1 5 3 8 8 4 7 19 20 17 21 18 22 22 17 20 20 19 22 26 24 18 18 18
3 3 16 17 5 4 3 4 1 3 6 4 6 8 8 7 6 9 4 5 3 4 4 5 6 6 5 12 19 17 22 18 20 18 19 18 15 14 21 26 23 24 23 19 17
4 1 20 13 0 2 4 4 1 4 3 4 6 9 11 9 9 8 7 4 3 3 6 3 6 12 17 14 8 14 14 27 16 28 22 16 15 7 9 19 21 22 22 23 21
3 3 13 8 3 5 5 5 2 4 4 3 3 3 2 8 5 8 9 1 5 7 4 4 6 9 16 18 18 17 16 19 19 22 26 20 19 9 7 7 17 19 20 17 18
3 0 4 8 7 9 2 5 3 3 4 6 8 7 8 10 10 6 6 5 7 10 4 2 12 11 13 10 10 5 10 7 17 18 21 21 18 24 16 8 7 7 5 7 9
4 4 4 5 8 7 4 5 4 5 5 10 4 5 9 6 9 12 13 11 9 7 9 7 14 13 14 15 14 16 18 17 19 18 22 20 22 17 18 19 14 14 5 4 5
3 2 5 2 3 3 8 7 5 6 3 6 5 8 9 10 10 13 10 11 13 10 13 11 13 11 15 17 18 20 21 20 21 20 19 23 23 20 9 7 10 9 6 7 5
6 6 1 1 4 4 3 3 5 9 4 8 11 7 10 12 14 10 13 15 12 8 13 12 11 11 15 13 11 16 22 22 22 20 20 23 19 19 9 12 8 7 7 7 6

GFSSW_925_spd_063.txt.gz
Wind_Speed
25 26 26 27 26 24 21 14 13 11 12 15 15 13 11 9 5 7 11 5 12 10 12 18 24 19 18 14 12 11 7 7 4 2 1 11 13 14 8 10 8 7 9 28 35
25 26 27 28 27 25 21 16 12 11 12 14 15 11 9 4 10 15 11 10 15 19 16 25 21 19 14 18 13 9 6 5 8 3 11 12 10 10 10 11 8 11 25 35 37
27 28 28 29 27 25 20 16 12 11 12 15 11 8 6 2 9 5 7 10 12 26 21 22 20 17 18 14 17 16 11 7 11 9 5 15 14 13 8 11 13 17 26 29 33
28 29 30 30 26 22 19 17 16 15 16 12 9 6 3 6 1 8 6 9 14 23 20 22 17 18 17 17 16 15 12 4 10 9 7 7 14 11 11 6 16 21 28 28 28
28 30 31 30 25 20 20 21 21 18 11 7 8 2 2 8 1 4 4 7 17 23 25 21 20 19 18 15 13 18 10 8 7 8 10 17 12 8 14 11 15 22 26 27 26
28 30 31 31 25 19 20 21 17 10 5 5 7 5 7 11 3 4 1 9 22 28 26 23 16 18 15 17 15 10 17 10 7 10 12 12 7 10 12 13 17 21 25 26 27
28 29 30 31 24 18 21 18 13 6 3 2 4 6 10 7 0 3 3 8 19 28 21 24 19 17 11 14 14 17 11 15 15 12 13 11 12 15 11 16 18 20 22 25 24
28 29 29 29 23 17 20 13 7 6 4 1 5 8 2 1 3 3 4 10 17 20 19 18 20 13 20 10 6 17 18 16 18 19 16 14 16 18 18 17 19 20 21 23 25
29 30 29 28 20 15 21 8 5 6 4 2 5 9 7 3 6 2 3 11 17 12 15 15 14 15 19 13 12 15 16 21 18 23 18 19 5 8 17 19 19 20 22 23 23
29 29 29 27 17 13 17 8 9 6 4 9 10 9 3 3 2 2 5 8 15 12 13 11 10 16 16 16 16 17 19 19 19 14 20 19 14 18 25 20 20 20 22 23 23
30 29 28 25 12 10 16 6 6 7 20 7 6 2 4 3 6 2 8 14 13 14 16 19 15 19 22 20 21 18 18 20 17 12 17 20 14 16 18 19 20 20 21 23 24
31 29 27 21 6 8 12 6 6 6 7 6 2 4 1 3 5 6 10 13 12 17 19 13 21 20 18 18 19 20 14 18 18 16 14 16 15 16 19 18 20 20 21 23 23
31 29 26 17 5 7 4 6 6 6 7 11 4 2 2 7 2 5 9 12 11 19 21 21 11 20 21 19 17 19 19 17 14 17 16 15 12 16 16 17 19 19 21 22 24
30 30 22 12 6 4 2 8 8 4 6 12 9 4 7 4 8 1 1 8 9 15 19 20 22 9 22 21 19 19 18 19 16 17 15 20 14 10 10 18 20 20 19 22 24
29 28 13 7 13 5 8 10 5 7 5 6 9 4 3 9 5 8 1 7 13 12 11 16 18 23 19 20 19 18 17 17 18 18 17 20 17 19 34 27 23 22 22 22 24
29 16 6 4 8 5 9 8 6 7 2 7 3 3 11 5 6 2 5 6 7 10 15 17 15 15 21 17 15 18 18 17 15 15 18 24 20 19 15 13 26 25 24 23 24
27 2 2 5 8 12 9 8 7 7 3 7 3 5 4 4 7 5 4 10 9 12 16 18 21 17 13 17 21 16 18 13 14 15 19 24 24 19 17 25 27 28 25 25 24
19 8 6 4 13 9 10 9 8 7 3 5 2 4 8 3 9 4 9 10 9 11 14 12 16 21 17 21 19 22 21 14 24 15 21 25 27 23 25 16 14 17 26 26 26
4 7 6 8 9 7 8 9 8 12 6 7 6 10 11 7 6 3 9 12 5 3 13 10 20 3 5 15 21 21 24 26 25 21 17 19 28 24 25 25 17 12 22 17 28
9 6 7 13 5 9 8 4 4 7 7 6 10 4 10 4 5 8 7 7 1 3 8 9 13 16 4 6 17 19 16 21 18 25 26 20 23 19 25 24 26 18 13 24 25
7 5 9 12 5 7 6 7 3 6 8 7 9 10 7 11 9 11 12 5 3 5 6 15 10 16 17 12 17 16 20 18 19 23 20 19 15 18 24 25 22 25 18 17 20
6 4 13 11 6 3 6 5 1 5 0 4 4 7 9 12 13 10 13 8 7 6 10 9 13 14 23 13 15 21 24 24 17 22 21 21 16 6 19 24 21 20 23 22 20
3 4 12 11 3 6 4 5 4 6 6 6 5 1 8 7 7 9 10 10 4 7 6 9 10 13 19 15 17 19 23 17 19 22 24 20 19 14 6 3 11 20 22 21 22
5 1 4 7 6 6 1 6 3 7 4 5 8 7 6 7 8 5 8 4 6 11 9 8 14 17 15 8 13 14 26 24 22 18 22 21 22 24 10 5 10 13 17 21 21
5 5 5 8 9 8 9 4 8 10 9 6 2 4 6 8 8 12 13 14 11 10 9 10 18 19 19 21 15 17 19 15 22 19 20 21 25 23 20 13 7 5 8 8 5
4 3 4 7 8 9 6 8 5 5 5 5 7 10 7 9 12 13 10 12 12 8 12 15 17 18 20 20 17 20 20 19 22 22 21 21 25 23 17 21 16 6 9 3 6
7 5 4 5 4 2 5 4 5 6 3 9 9 10 11 12 11 12 14 14 13 12 13 14 8 13 19 19 22 22 24 24 24 25 23 22 22 19 18 9 16 6 3 5 8

GFSSW_925_spd_066.txt.gz
Wind_Speed
26 27 28 28 26 25 22 17 14 13 13 14 16 16 12 10 6 7 12 7 18 10 13 13 17 21 21 15 14 5 5 8 2 8 15 28 12 10 12 15 14 6 19 29 38
27 28 30 31 28 24 20 16 14 14 13 13 15 13 10 8 10 18 14 13 12 12 14 19 18 21 15 18 14 10 6 8 12 2 4 6 16 17 15 18 14 17 23 36 38
27 28 30 31 29 25 20 18 16 16 16 15 13 9 8 3 9 4 13 15 15 16 17 20 21 18 18 14 19 19 16 8 16 18 18 18 12 11 18 15 20 25 27 30 33
27 28 29 30 29 25 20 20 21 18 17 16 10 7 5 5 2 8 2 12 13 16 19 22 18 20 17 18 18 18 17 15 5 10 10 7 9 12 18 6 13 26 29 27 24
28 29 30 30 28 24 20 22 21 17 12 10 7 5 1 7 5 6 2 9 12 16 22 19 20 18 18 18 18 18 18 8 7 8 7 5 7 10 13 18 13 26 27 27 23
28 29 31 30 29 24 20 24 19 14 8 8 8 5 5 9 4 1 5 12 14 22 21 23 16 16 16 19 17 16 15 15 7 6 14 13 7 11 18 17 24 25 23 24 24
28 29 30 29 28 24 19 23 15 9 9 9 4 7 12 8 2 3 7 13 18 25 19 23 20 17 16 17 14 17 19 12 15 11 15 4 5 10 11 18 25 27 22 20 20
28 29 30 29 27 23 19 22 11 8 9 3 3 6 7 3 5 6 7 9 16 21 25 21 19 15 17 14 20 13 18 17 17 19 12 13 14 8 15 14 20 28 21 21 20
29 29 30 29 27 21 19 19 11 9 8 6 5 9 6 4 7 4 8 12 14 19 22 19 16 16 11 16 15 15 15 20 20 21 18 19 5 4 18 17 19 21 24 21 18
29 30 30 29 25 18 19 20 14 11 9 9 16 10 9 2 3 2 4 8 14 17 12 14 10 14 14 14 16 17 18 19 18 18 21 20 12 14 22 8 23 20 23 22 23
30 30 31 28 23 14 21 9 4 6 11 13 2 8 5 5 6 7 7 10 13 11 15 18 12 16 20 21 21 20 21 19 17 19 13 11 20 14 10 13 10 20 23 24 22
30 30 31 27 18 13 16 7 8 8 9 17 8 8 2 6 4 4 8 10 12 14 16 13 19 19 19 20 20 21 21 20 17 20 15 14 15 14 19 12 5 20 23 26 25
30 29 31 23 15 14 11 5 8 8 7 13 11 12 5 7 8 9 9 13 13 15 18 20 14 23 21 19 19 19 20 18 17 16 18 16 14 13 12 8 10 23 23 24 27
28 29 27 18 9 8 4 7 7 4 5 13 10 4 5 5 7 5 4 9 13 16 18 20 21 19 20 22 19 19 16 19 19 18 14 18 10 11 13 15 21 21 24 24 24
28 27 16 8 14 11 9 10 8 4 5 11 9 5 1 10 7 10 1 7 12 12 10 16 20 20 21 17 21 18 18 15 16 18 19 23 13 11 24 16 18 20 22 26 24
28 21 13 5 8 9 10 10 5 6 3 6 5 7 11 10 5 5 6 7 11 10 14 15 18 15 19 20 16 16 18 17 18 15 16 21 19 16 19 20 17 25 28 28 26
28 12 9 10 9 13 11 8 6 7 10 8 6 7 9 12 6 6 9 11 9 10 13 16 18 18 13 15 19 17 13 12 14 14 18 19 19 14 14 26 21 17 27 26 27
18 7 10 11 12 11 10 8 8 4 15 6 2 2 6 7 8 4 4 9 11 7 13 14 12 22 18 17 15 18 19 14 17 15 18 20 20 17 23 25 28 29 19 21 27
10 9 12 6 10 7 7 8 8 11 16 9 10 8 10 8 4 2 8 13 5 8 9 9 14 15 13 21 17 21 19 21 23 22 15 17 17 23 20 21 29 19 16 13 17
15 13 3 10 6 8 7 6 8 14 11 8 8 8 11 3 10 5 5 7 1 7 8 10 14 16 16 7 12 16 18 17 15 21 24 18 20 14 19 17 18 19 21 22 19
6 4 8 8 5 7 8 6 8 10 10 9 11 11 10 10 11 9 8 5 4 4 3 9 9 16 18 13 12 13 15 18 17 15 18 16 16 16 12 21 19 21 21 15 14
9 3 11 6 7 2 10 9 4 9 3 5 3 5 6 9 11 13 8 4 8 10 8 10 8 12 18 18 21 14 20 19 14 18 15 16 18 22 11 7 20 18 24 25 29
6 3 9 12 6 7 3 8 8 12 10 9 6 7 8 7 5 7 9 7 10 3 6 8 7 12 16 15 17 20 18 20 20 19 21 16 14 24 18 11 9 16 12 12 24
5 2 5 8 10 10 6 9 5 9 10 11 10 7 7 6 6 6 6 4 1 6 7 3 12 17 15 16 15 12 14 19 21 16 17 20 23 22 16 6 14 10 7 9 13
4 6 5 9 8 8 12 13 11 9 11 5 0 4 9 9 12 9 10 10 8 8 7 7 15 17 21 24 19 20 19 18 19 24 21 20 23 22 7 23 12 21 19 8 11
6 5 7 8 6 7 4 8 8 10 6 6 11 14 11 12 10 13 18 11 11 11 7 13 15 16 20 20 18 22 23 20 20 22 22 28 25 20 16 15 22 16 21 17 9
5 1 3 4 9 7 8 9 7 6 4 6 9 10 9 12 13 15 15 15 13 13 12 11 10 9 18 20 16 19 20 21 19 21 20 21 19 17 15 10 15 15 17 22 15

GFSSW_925_spd_069.txt.gz
Wind_Speed
26 28 29 28 28 26 21 18 17 16 15 14 14 15 14 13 9 6 8 9 16 8 10 7 12 17 19 8 14 6 2 5 2 2 4 10 4 11 14 19 16 8 18 30 35
26 27 28 29 29 27 22 18 18 18 18 16 15 15 12 12 9 16 13 9 15 15 8 11 11 14 10 10 14 8 2 3 8 6 7 12 13 9 9 18 17 20 23 32 31
27 27 28 29 29 28 23 19 21 20 18 17 15 12 9 6 6 6 11 18 15 13 14 18 18 14 12 14 15 15 12 8 4 2 15 17 5 20 20 17 23 26 27 25 23
27 28 29 30 28 27 24 20 22 20 18 14 10 7 6 2 2 4 6 19 18 15 13 8 8 15 12 13 15 15 18 13 7 9 7 5 2 12 16 5 15 27 31 24 20
28 29 28 29 29 27 24 21 22 18 15 12 7 5 1 4 8 5 5 12 16 15 17 13 10 13 14 11 14 17 17 15 9 7 7 18 13 14 12 6 19 21 25 21 18
28 30 30 30 28 28 25 20 22 14 10 10 8 4 2 4 7 7 8 12 12 18 15 17 10 11 10 14 14 15 16 14 13 8 11 12 9 6 5 6 19 23 23 18 18
28 29 31 31 29 28 26 19 20 12 10 8 5 4 6 12 2 4 11 12 14 20 10 21 24 15 8 10 13 14 9 14 6 11 9 19 6 4 5 5 17 22 20 19 16
30 30 31 32 29 28 25 20 16 12 9 4 2 4 7 6 9 9 10 19 17 18 21 22 24 16 8 9 13 11 8 6 10 8 10 14 13 16 13 9 16 21 20 20 15
30 31 32 32 30 29 24 20 18 12 9 5 2 5 7 7 5 11 9 11 20 18 20 23 19 10 9 5 6 6 8 8 11 15 7 9 11 15 14 10 14 20 20 18 15
31 31 33 32 30 28 24 22 16 8 5 5 9 6 8 5 5 2 7 11 13 9 10 13 8 8 5 3 7 7 8 8 10 12 14 11 16 17 16 24 12 14 20 20 16
30 31 32 31 27 24 25 9 1 1 5 8 2 6 4 7 4 9 8 7 8 8 9 8 4 7 9 10 11 14 16 15 12 13 8 15 16 17 13 8 10 6 19 20 16
30 30 32 30 24 18 15 3 6 7 7 12 17 14 3 6 5 5 9 6 7 6 7 7 12 9 10 14 13 18 16 15 14 13 6 17 13 13 16 8 7 7 19 23 19
30 31 32 27 18 13 9 14 7 9 4 9 9 7 7 4 7 8 5 9 8 8 9 10 11 17 14 15 15 14 10 11 11 16 12 13 3 5 9 10 10 7 8 13 24
32 32 30 26 8 12 9 5 11 5 3 4 7 1 4 2 5 9 2 4 4 9 11 9 16 16 16 17 13 9 9 11 13 8 3 3 3 6 5 10 10 13 13 7 17
34 32 23 12 15 8 15 13 10 5 2 8 6 2 2 6 4 4 7 5 8 8 5 8 13 12 16 13 14 10 10 9 8 7 4 18 2 4 10 10 16 21 17 9 7
34 28 18 5 9 13 16 14 11 2 3 4 5 6 4 6 8 7 5 4 6 6 9 9 10 6 6 14 10 7 9 10 7 3 6 10 5 5 12 20 9 19 16 16 16
33 18 12 8 5 14 18 8 2 3 10 6 7 5 9 7 5 2 5 6 4 2 4 7 12 8 10 8 8 7 2 3 4 4 7 7 6 8 24 14 22 26 21 19 12
26 11 8 13 8 15 14 3 3 14 13 8 5 4 2 10 3 7 2 4 6 8 1 3 7 6 2 7 5 6 7 5 6 5 5 9 6 8 15 24 25 22 24 10 2
19 7 8 12 11 13 3 2 5 10 13 12 10 3 5 4 3 5 1 6 6 12 5 7 6 18 14 9 8 7 6 6 6 12 5 6 9 10 11 19 24 24 17 15 9
16 6 11 8 2 8 2 8 7 10 8 8 5 7 8 7 2 6 7 10 6 8 7 6 6 7 15 12 9 9 5 4 3 7 7 5 9 6 6 16 25 24 21 18 12
3 3 5 4 5 3 4 5 6 11 9 8 8 8 10 9 10 8 6 9 12 11 5 5 2 10 9 5 12 11 6 3 1 2 5 7 7 10 10 7 8 25 27 29 26
8 1 10 5 2 1 6 6 9 14 12 7 3 7 8 10 8 7 8 7 9 9 5 7 1 5 13 18 18 14 9 5 3 8 3 4 8 16 11 13 23 24 24 24 24
5 1 21 27 6 5 5 12 13 10 13 12 11 11 9 6 5 7 9 8 12 8 3 7 4 4 10 7 4 7 13 10 9 3 11 3 7 9 14 14 15 21 9 7 23
4 3 5 8 8 11 8 11 10 16 12 8 5 7 8 8 7 2 5 4 7 7 7 4 1 4 5 12 11 13 19 19 11 3 5 5 9 17 9 12 15 10 13 13 19
2 5 7 5 6 8 11 10 11 9 9 12 8 15 12 6 8 8 12 13 12 8 5 3 3 6 9 15 17 17 18 19 18 15 5 9 14 12 9 8 10 14 18 26 10
3 3 4 3 7 12 11 6 10 9 8 9 8 11 8 3 8 9 10 7 5 7 3 2 4 7 11 14 16 18 17 17 19 19 16 12 19 7 17 14 10 9 15 11 12
10 9 1 4 9 5 4 5 6 3 4 3 6 5 8 12 11 8 9 11 10 7 5 4 1 4 8 8 13 14 12 14 16 17 16 13 15 13 15 14 13 15 14 11 10

GFSSW_925_spd_072.txt.gz
Wind_Speed
25 24 25 25 25 24 22 19 16 17 17 16 14 13 14 12 12 6 8 10 12 13 12 10 10 11 7 4 6 4 1 2 4 4 3 1 8 1 7 18 5 3 11 28 34
26 26 27 26 25 25 23 19 17 19 17 16 15 13 12 10 10 12 16 13 15 13 11 9 6 8 3 5 4 5 4 4 2 7 4 2 1 9 3 16 8 9 19 30 33
24 25 27 27 27 25 24 21 18 21 18 15 13 9 5 6 3 7 4 17 15 13 13 11 9 5 4 3 7 6 7 7 6 6 10 3 5 10 5 11 14 23 23 23 27
26 26 25 26 27 26 25 22 18 20 17 13 8 5 3 2 2 3 5 18 17 13 13 5 3 4 5 7 9 6 15 16 11 7 8 8 11 7 8 7 8 26 28 23 20
26 27 27 28 27 26 26 23 18 19 13 9 7 3 2 1 8 6 7 16 18 17 14 6 5 4 4 6 13 11 16 13 12 10 13 13 11 15 11 8 10 16 21 21 17
28 28 29 28 28 27 26 24 18 16 11 11 6 1 2 2 4 11 12 17 17 18 13 10 7 9 5 9 8 6 9 11 9 16 12 14 10 9 7 4 17 16 16 16 15
28 29 29 31 29 28 28 24 17 13 9 8 2 4 2 10 4 14 13 13 20 22 7 22 12 3 5 8 11 10 6 9 13 15 7 20 9 2 1 7 17 16 13 11 10
30 30 30 31 30 29 28 22 16 13 7 3 2 2 6 7 7 14 15 12 16 17 21 13 14 6 5 7 7 5 3 4 6 13 12 3 4 10 9 12 11 13 15 12 8
29 30 31 31 31 30 27 20 17 10 4 1 2 3 8 8 5 14 18 11 19 15 17 5 4 5 3 3 5 7 2 6 9 17 11 3 7 13 13 20 17 18 17 14 10
29 30 31 31 30 29 24 20 7 3 4 1 5 3 7 4 7 8 11 10 6 6 1 2 2 1 4 4 3 2 3 5 5 6 9 8 7 18 15 19 20 21 18 17 14
29 30 30 31 27 22 23 4 4 3 3 7 5 4 7 2 5 3 6 2 5 6 4 4 4 4 8 6 6 4 3 9 17 13 4 16 17 22 17 11 13 13 13 18 15
30 31 31 30 22 14 9 2 4 3 6 10 13 10 21 13 2 5 9 3 5 4 3 4 5 9 6 6 7 7 7 11 12 4 5 6 9 13 15 14 18 21 18 17 13
32 34 32 26 14 5 9 10 12 15 1 8 6 5 6 4 2 5 8 5 3 5 7 6 9 9 8 7 6 6 6 10 11 2 7 12 5 5 4 6 7 15 23 18 20
32 35 30 24 4 15 8 22 16 3 4 6 4 2 3 5 2 8 6 3 1 9 6 5 14 9 8 10 5 6 7 11 8 3 3 4 4 7 10 6 13 16 14 15 16
33 32 22 12 10 6 16 24 21 4 3 4 1 2 1 6 4 4 3 4 1 2 4 7 5 7 8 11 8 12 12 8 2 3 3 3 4 4 13 11 18 18 23 15 16
33 24 17 5 10 10 21 24 6 5 3 4 3 3 4 1 1 4 2 3 1 1 2 6 4 4 7 6 6 12 6 7 5 3 2 5 5 3 7 25 18 20 18 21 20
26 13 8 6 4 12 20 5 4 3 7 3 4 4 4 5 3 5 3 1 2 3 2 5 4 3 3 3 6 3 7 3 4 3 5 5 4 7 13 11 20 27 24 20 16
17 8 6 11 8 14 12 5 8 9 5 5 5 3 5 4 2 3 3 4 5 2 4 4 4 8 8 1 4 3 8 5 6 3 3 7 3 5 9 17 17 21 22 20 17
16 4 7 5 8 6 5 6 2 4 5 9 8 7 10 7 5 4 8 7 5 7 6 3 3 5 4 6 5 4 2 6 5 1 4 3 8 9 3 8 10 13 15 19 15
11 7 6 5 2 3 5 6 4 5 7 6 7 7 8 9 7 6 6 9 4 8 3 3 3 3 7 7 11 8 5 4 3 2 3 5 4 5 12 14 6 7 13 12 13
5 4 12 1 3 5 3 3 6 11 13 7 6 6 5 5 6 7 6 9 8 6 11 5 4 7 4 6 3 7 8 6 1 4 4 2 5 4 7 5 10 9 17 17 16
5 4 28 9 5 1 3 3 6 9 11 7 7 7 5 6 7 5 6 4 4 3 4 5 3 4 3 6 3 4 6 5 4 7 1 4 4 5 7 8 12 18 8 7 13
2 3 22 12 4 5 5 12 10 8 9 6 10 8 7 7 5 5 6 9 6 5 3 4 4 4 11 7 8 7 10 5 3 3 2 3 5 13 15 14 12 16 11 6 6
2 4 5 5 1 5 4 9 5 11 11 7 7 8 8 9 8 6 8 12 13 8 12 7 4 5 4 4 4 7 12 8 5 2 5 3 14 13 15 13 13 14 20 3 14
3 1 3 3 5 8 8 4 8 6 7 11 7 10 5 7 6 6 8 7 6 13 6 5 2 4 3 6 8 10 13 12 6 4 2 7 7 10 10 8 7 8 19 22 15
3 3 5 2 4 10 7 5 6 4 4 4 5 6 10 5 2 3 5 5 2 7 7 5 1 4 5 7 8 9 11 12 11 6 5 6 5 11 8 11 12 11 12 14 11
8 6 4 6 3 5 3 4 4 2 7 5 6 4 6 3 3 5 4 4 6 0 3 1 3 2 2 4 5 7 5 4 11 6 3 3 3 11 11 13 14 15 11 9 7

GFSSW_925_spd_075.txt.gz
Wind_Speed
22 22 22 21 22 23 22 20 17 16 17 16 13 13 11 11 9 6 7 10 13 12 19 17 10 7 6 2 3 2 1 3 4 4 4 5 6 3 8 8 2 2 11 24 30
21 22 23 22 22 21 21 21 18 16 18 17 13 12 9 7 7 11 10 16 15 22 20 17 7 9 3 4 3 3 2 4 1 6 7 10 5 6 4 13 4 11 23 29 32
22 22 23 23 23 23 21 20 19 16 18 16 11 7 4 4 3 6 3 20 23 23 15 14 14 6 2 3 4 4 3 2 2 8 9 8 8 2 6 9 5 24 26 23 28
23 23 23 24 23 23 22 21 18 16 16 11 8 4 2 2 1 2 3 23 24 19 11 9 5 6 5 6 6 4 6 10 4 6 7 11 11 8 5 4 2 16 25 24 21
24 24 25 25 25 24 23 22 18 14 14 8 8 4 1 1 8 4 14 23 21 19 16 7 6 5 5 4 4 7 8 8 9 10 7 13 6 6 5 1 4 14 19 18 17
25 25 26 26 26 25 24 22 17 11 10 7 5 1 2 2 1 10 19 22 19 19 12 9 8 7 3 4 3 4 4 10 9 12 10 9 5 3 6 9 6 15 19 16 17
27 27 27 26 26 26 25 22 16 9 6 5 2 3 1 8 2 13 17 20 23 24 7 14 4 2 1 4 3 9 9 7 8 10 6 13 3 4 3 11 13 15 17 17 14
28 28 28 26 27 26 25 20 14 9 4 2 2 1 6 2 1 16 16 7 19 20 5 17 11 1 2 4 5 3 3 4 3 7 11 2 3 5 9 12 15 17 16 16 14
28 28 27 28 27 25 23 18 12 5 7 6 4 2 8 6 6 17 20 7 14 12 14 8 11 5 1 1 4 6 1 1 2 3 7 4 5 13 14 22 18 20 19 17 14
26 29 29 29 27 23 18 6 9 10 9 4 1 2 7 2 5 9 20 15 4 7 4 4 3 3 3 4 4 2 1 1 2 4 3 9 4 13 11 13 16 17 18 18 16
28 28 31 29 23 19 13 5 3 3 4 6 5 4 4 13 3 5 12 9 4 5 4 3 4 5 7 7 6 2 3 3 3 5 4 10 8 16 10 6 10 13 16 18 18
29 30 33 27 18 7 2 1 2 1 5 9 7 6 14 5 3 2 8 5 5 4 4 5 4 8 4 3 5 3 5 3 6 2 4 5 1 9 12 9 7 11 16 18 17
31 31 30 23 5 4 7 3 22 4 2 6 5 5 5 8 4 4 6 4 5 4 5 5 5 4 4 3 3 3 6 3 5 3 6 9 5 6 9 6 7 10 11 14 17
32 29 24 19 2 10 6 21 20 2 4 5 4 5 3 5 1 2 7 4 2 8 6 4 4 5 5 5 6 5 7 5 4 2 2 3 2 6 7 8 15 13 17 15 18
30 23 16 8 8 4 10 22 10 4 4 1 0 2 4 5 2 4 3 4 5 3 6 6 2 5 5 9 7 9 6 6 4 2 2 1 4 4 11 15 17 16 17 15 14
24 18 10 4 8 6 17 15 2 5 3 3 2 3 5 3 3 2 4 5 3 4 2 5 2 5 8 7 9 7 3 5 5 4 2 5 5 4 5 15 13 14 17 18 16
17 10 7 6 3 10 21 3 4 4 7 7 3 2 3 2 1 3 3 6 2 3 0 4 2 5 5 0 3 5 6 2 2 2 5 2 4 7 10 12 13 21 22 23 19
14 8 8 12 16 19 7 5 9 4 4 5 4 4 5 1 1 4 4 4 7 5 3 3 2 7 8 2 1 2 7 5 5 4 4 1 5 1 3 9 15 13 16 13 19
11 6 9 9 10 3 5 6 2 4 5 7 3 7 7 6 4 5 5 6 6 5 5 2 1 4 2 6 1 3 5 1 7 4 3 1 5 4 12 17 14 7 11 18 19
6 7 9 21 8 6 5 5 3 7 5 5 5 5 7 8 5 5 6 5 5 9 1 1 2 2 5 7 8 7 3 4 4 4 3 4 5 6 14 15 13 12 7 14 15
5 4 24 6 2 6 4 2 4 7 6 7 5 5 3 4 4 4 4 3 6 7 7 2 3 5 3 6 6 8 6 5 4 4 5 3 2 9 8 7 12 10 11 10 15
4 4 26 6 5 2 3 5 6 9 8 7 4 5 4 7 7 5 5 8 13 4 4 4 5 4 4 6 6 15 5 4 4 6 2 1 4 6 13 9 9 14 15 10 8
3 1 18 8 4 3 4 5 8 10 7 6 7 7 6 6 6 6 6 8 13 7 3 4 4 3 4 6 8 8 6 5 5 3 2 1 3 11 15 15 12 16 18 13 5
3 4 5 5 2 5 3 6 4 7 7 5 6 5 6 8 9 4 4 7 9 9 14 7 4 4 5 3 3 3 5 6 5 4 3 4 5 13 18 20 17 17 17 17 13
4 1 2 3 5 6 5 3 4 5 5 9 6 9 2 5 3 4 6 6 6 13 7 5 4 3 3 3 3 3 3 5 4 3 4 6 6 6 12 15 15 13 15 16 15
3 3 4 1 2 7 6 4 4 4 4 4 5 4 7 4 3 0 2 2 1 6 5 5 2 2 4 4 5 1 3 5 6 4 1 3 3 4 7 11 17 16 14 13 14
5 2 4 4 3 4 2 2 2 3 6 3 3 3 2 2 4 4 4 2 2 2 3 3 3 3 3 5 6 5 4 4 2 1 4 5 1 4 5 9 12 13 14 14 14

GFSSW_925_spd_078.txt.gz
Wind_Speed
21 20 20 20 20 19 18 18 16 16 15 16 14 10 10 8 7 5 7 8 13 19 16 18 11 7 6 2 3 2 1 1 1 2 4 2 2 3 9 4 2 1 7 19 28
21 21 21 21 20 20 20 17 17 15 14 16 13 9 7 5 7 11 13 16 15 22 23 18 6 8 2 3 2 1 1 2 1 4 5 8 7 5 5 7 6 14 22 26 28
21 21 21 22 21 22 20 18 17 16 12 13 10 7 3 4 2 6 2 20 21 24 23 18 16 4 2 2 3 2 3 2 4 8 10 8 5 5 4 3 6 19 21 20 24
21 22 22 22 22 22 22 19 18 15 12 9 6 5 3 2 1 3 4 26 27 21 20 13 6 6 4 4 3 2 7 7 4 9 7 7 13 7 7 3 5 18 21 20 17
23 24 23 24 23 21 21 20 18 14 9 7 6 4 1 1 7 1 20 26 26 19 15 6 6 5 5 4 2 4 7 7 9 5 6 12 8 5 8 7 14 18 19 16 14
24 24 24 23 23 23 21 20 18 13 7 5 3 1 1 1 4 9 23 27 21 18 11 8 8 5 5 2 3 3 7 10 6 6 8 9 6 6 8 9 15 18 16 15 14
24 24 23 24 23 23 23 20 16 10 5 4 2 3 2 6 2 14 21 20 20 15 6 7 4 3 1 2 3 3 3 4 6 4 4 12 6 4 12 14 18 19 16 14 14
24 24 24 24 25 23 22 20 14 9 5 4 5 2 5 1 4 17 17 11 14 13 4 13 3 2 1 4 5 3 3 3 3 4 5 3 3 6 9 13 16 20 17 16 14
25 25 24 26 25 22 21 14 8 5 9 8 4 2 6 2 7 19 16 11 14 9 8 2 4 1 1 2 4 5 3 2 3 2 5 1 1 3 7 12 16 17 18 16 14
26 26 26 27 23 22 14 5 16 14 10 5 2 2 4 3 4 17 17 20 5 6 3 3 3 3 3 3 4 3 4 2 2 5 1 6 4 4 7 4 10 13 15 16 14
27 27 27 26 24 17 2 6 3 3 4 6 4 4 4 8 6 7 14 8 6 5 4 3 4 6 7 6 4 3 4 0 2 3 3 3 4 8 9 5 9 12 15 16 17
28 28 26 22 17 4 7 4 4 3 5 7 5 6 9 3 2 4 24 6 5 5 5 4 5 7 5 4 4 2 5 2 3 0 4 2 2 3 9 4 3 9 11 15 16
29 26 22 18 3 3 2 3 15 4 2 5 5 4 5 8 4 6 8 5 6 5 5 6 5 7 5 4 3 1 5 3 3 4 3 4 3 3 6 3 3 3 5 9 16
27 21 18 13 1 7 2 16 13 9 4 2 3 5 4 3 2 3 7 6 3 8 9 4 2 7 4 3 5 1 7 5 2 2 1 2 3 3 7 8 9 8 7 9 11
21 18 13 6 6 1 9 22 5 3 4 1 2 2 2 5 5 4 2 4 8 5 5 6 6 4 3 6 7 6 6 6 4 2 3 3 4 4 3 7 12 17 14 12 13
18 13 8 3 6 4 15 16 2 5 3 5 4 2 4 4 2 3 5 8 2 5 3 3 1 3 7 6 8 5 5 8 5 3 2 2 4 5 3 4 4 12 15 17 16
15 9 7 6 4 11 18 3 4 5 5 7 4 5 3 3 4 5 5 8 3 5 1 4 3 5 4 2 3 5 6 2 3 2 5 5 4 2 7 10 9 13 16 16 17
12 10 13 7 15 11 3 5 8 3 3 4 4 3 5 5 8 7 4 5 6 5 4 4 3 5 9 3 2 4 7 5 5 5 4 2 6 1 5 8 12 15 8 12 15
7 4 18 20 9 4 5 6 1 3 5 6 3 7 6 5 5 6 4 3 3 4 4 5 0 5 4 4 2 3 5 3 7 2 4 1 6 4 20 19 21 19 13 5 12
5 5 17 19 7 4 5 4 3 4 6 3 4 3 4 7 4 5 5 5 7 6 3 1 5 3 5 6 6 7 1 3 4 4 3 3 4 4 16 17 19 20 17 13 10
4 4 19 10 8 6 4 3 4 7 6 6 4 5 4 3 5 4 5 1 9 6 8 2 4 4 5 8 5 6 5 6 5 3 5 4 2 6 8 12 14 17 19 18 12
4 3 20 8 5 2 3 4 5 7 8 7 4 5 5 7 6 4 4 4 14 3 4 4 5 5 2 5 5 4 3 3 4 3 2 3 3 7 7 11 13 15 19 20 11
3 2 12 5 4 3 4 5 5 10 7 7 7 7 5 4 5 4 4 6 13 6 2 1 3 4 4 5 5 6 5 3 4 3 1 4 4 6 9 13 15 16 18 18 19
3 4 5 5 1 5 3 4 4 6 4 4 5 4 5 8 8 3 4 5 8 8 13 6 4 3 6 4 3 4 4 4 3 3 5 3 1 5 9 11 14 16 17 16 17
4 0 2 3 5 5 4 3 4 6 5 8 5 7 3 4 4 4 5 6 6 13 6 5 4 3 4 5 3 3 2 3 3 1 3 7 4 1 4 7 7 10 15 17 16
3 3 3 2 2 5 6 4 5 4 5 5 5 4 7 5 2 2 2 4 1 6 4 4 3 3 2 3 3 3 6 7 5 3 4 2 3 3 2 2 9 11 13 14 14
4 2 4 4 3 3 2 1 2 2 5 4 2 3 5 2 4 3 2 2 1 2 3 3 4 3 3 2 1 2 0 3 2 2 2 3 1 5 5 7 8 8 9 11 11

GFSSW_925_spd_081.txt.gz
Wind_Speed
18 17 17 17 17 16 17 15 14 13 11 12 13 11 8 7 5 5 7 7 12 21 19 17 7 12 6 4 2 3 2 4 3 2 5 1 4 5 7 5 3 4 7 19 30
18 18 18 18 17 17 16 15 15 14 11 11 10 9 7 4 4 10 9 13 16 26 21 22 12 14 4 4 2 2 1 3 3 6 8 8 7 9 0 2 8 11 19 29 29
18 18 19 19 18 18 17 15 14 14 11 8 7 7 4 3 3 4 2 16 20 25 18 14 17 8 5 3 3 1 2 1 4 9 13 10 8 7 5 5 7 19 23 27 28
20 20 19 19 19 18 17 16 14 12 11 7 4 4 3 2 2 2 3 22 24 23 20 16 11 10 6 6 4 3 5 6 3 7 6 9 12 8 6 4 8 20 23 26 23
20 20 20 19 19 18 18 17 15 13 7 7 4 2 1 2 5 7 15 24 23 20 19 11 16 7 8 6 4 8 5 5 6 6 4 12 9 6 7 7 14 21 23 21 21
20 20 20 21 20 20 19 17 15 10 8 2 3 2 1 2 5 6 22 24 17 14 13 16 11 5 7 4 5 3 7 10 6 7 9 9 6 5 8 11 13 20 21 20 20
21 22 22 22 22 22 22 18 15 11 5 4 2 1 2 1 2 16 20 16 19 8 8 5 10 4 5 4 1 4 4 3 6 9 5 14 7 3 15 15 17 19 19 18 19
23 23 23 22 23 23 22 17 11 9 6 7 7 2 3 2 6 16 15 13 14 8 5 4 5 3 1 3 2 3 2 2 4 6 8 6 8 9 16 17 18 19 18 18 18
24 24 23 24 23 22 19 8 5 4 10 9 6 3 1 6 6 13 10 13 12 6 5 6 3 2 2 2 4 1 5 5 4 3 6 3 7 13 15 18 19 19 18 18 17
26 25 24 23 21 20 2 12 15 14 9 5 1 2 3 4 8 15 4 19 6 9 6 4 3 5 3 5 8 8 6 4 5 6 4 5 5 10 11 13 18 19 17 18 18
26 26 23 21 19 13 9 3 2 3 4 4 3 1 2 2 12 12 13 10 13 11 6 6 7 13 12 7 3 5 6 7 3 3 2 5 6 11 12 7 14 16 18 18 19
26 25 20 16 9 8 9 0 3 3 4 6 7 5 7 4 6 11 15 5 11 12 10 7 13 9 8 5 4 4 4 4 3 4 2 4 5 8 13 11 12 15 18 19 19
24 19 15 13 4 2 1 2 12 4 2 2 4 4 2 7 7 12 19 8 13 10 11 12 7 11 9 7 8 4 5 3 3 1 4 4 5 7 8 10 7 14 17 17 19
21 15 11 5 2 3 1 11 11 12 2 2 3 2 5 4 4 7 19 8 5 12 11 6 6 15 10 9 8 9 7 4 2 1 2 2 3 3 7 12 11 11 14 17 20
15 11 7 3 2 1 4 18 3 3 2 5 3 2 3 3 12 4 3 3 11 9 5 5 12 15 11 10 8 2 5 5 2 2 2 3 3 6 3 3 10 14 13 13 19
12 9 7 4 5 3 12 13 3 3 4 2 3 2 5 2 2 5 2 5 3 6 3 4 3 4 6 8 11 10 7 5 4 1 5 5 3 8 5 8 8 9 16 19 17
10 11 8 4 4 14 12 0 2 3 5 7 4 4 8 6 6 4 5 6 2 9 10 4 3 2 4 8 8 7 8 5 6 5 5 4 5 5 8 11 12 14 12 16 19
4 10 13 9 11 8 1 1 6 3 4 4 4 5 5 5 7 7 4 4 10 3 3 7 6 5 9 2 5 13 12 5 9 9 7 2 8 6 9 10 13 15 15 6 11
1 1 11 18 8 3 2 6 3 4 6 8 3 4 4 4 5 5 7 5 6 8 1 4 4 1 9 7 3 6 8 2 5 1 9 4 4 7 14 16 18 20 19 15 8
2 2 10 21 9 2 5 5 3 7 6 3 3 4 4 4 4 4 5 5 6 9 3 2 6 7 6 2 10 3 4 6 3 10 11 4 3 3 15 18 19 21 20 18 11
3 1 14 17 6 7 4 4 3 8 7 6 4 3 6 4 6 4 4 3 8 7 6 1 1 3 1 7 7 2 3 3 3 3 6 7 4 5 8 11 13 15 17 19 19
3 2 20 10 5 2 4 3 5 10 8 7 5 8 5 6 6 4 4 5 13 4 4 4 4 5 4 2 3 5 3 2 7 6 2 1 5 5 7 9 10 14 17 18 20
2 2 12 5 4 4 3 4 8 11 9 7 7 8 6 4 5 4 3 5 12 6 3 2 3 5 3 3 2 4 5 3 2 0 4 6 5 5 7 10 12 14 15 15 19
2 3 4 5 3 4 3 4 3 6 8 7 6 3 3 6 8 4 3 4 7 8 11 2 4 3 1 4 2 2 4 5 3 3 7 3 11 5 8 11 12 14 14 16 17
4 3 1 4 6 7 3 3 4 4 5 10 6 10 4 3 3 4 3 3 7 11 5 4 4 6 8 6 2 1 2 4 5 4 2 9 8 6 6 8 10 10 12 15 17
3 2 2 3 2 6 5 4 7 4 6 6 7 9 8 5 4 3 1 4 3 7 4 3 4 5 3 3 3 3 5 5 2 1 3 4 5 4 5 6 9 11 13 15 15
2 2 1 3 2 2 3 2 3 2 6 7 4 6 9 6 4 5 6 4 3 3 3 2 5 2 4 2 2 5 4 5 1 2 1 4 5 4 3 6 8 9 11 12 13

GFSSW_925_spd_084.txt.gz
Wind_Speed
15 15 15 14 14 14 14 13 12 10 13 12 11 9 7 7 6 5 9 5 11 23 20 17 15 13 12 8 4 4 2 5 6 3 8 6 5 3 3 7 4 5 7 25 29
16 16 16 15 14 14 14 13 13 13 8 12 13 8 6 4 6 13 10 12 15 27 23 21 16 16 9 7 3 4 0 8 9 9 9 9 7 9 5 8 5 9 19 29 29
17 17 17 16 16 15 13 13 13 12 13 6 11 6 3 1 6 3 3 16 22 28 19 16 16 14 8 7 7 3 2 3 10 10 10 10 12 9 6 7 9 16 21 27 28
17 16 17 17 16 15 15 14 13 13 10 10 5 8 4 5 1 3 1 21 28 23 20 16 15 13 10 9 7 5 2 2 7 4 5 7 12 8 9 5 4 14 24 28 23
15 16 16 17 17 17 16 15 13 12 11 7 5 4 3 7 0 4 12 22 26 22 22 17 15 12 12 8 6 9 4 1 2 4 3 10 8 8 9 7 13 20 25 24 21
17 16 17 18 18 18 19 16 13 11 10 6 6 2 5 8 3 9 17 22 22 23 20 15 11 7 9 9 9 4 5 4 4 5 7 6 12 7 8 13 16 21 23 22 21
20 19 18 18 18 19 19 18 13 10 7 7 6 5 6 5 3 14 17 16 20 19 17 15 8 11 6 7 6 5 7 7 6 10 8 10 10 8 14 15 16 21 20 19 19
21 19 19 18 18 18 17 13 9 7 7 7 6 5 1 1 9 16 14 14 12 14 14 10 10 6 10 5 8 11 10 9 10 10 7 6 9 16 15 16 17 20 19 18 18
20 21 20 18 18 16 8 8 6 7 9 7 5 7 7 7 12 14 16 15 14 12 10 8 11 9 7 12 11 10 11 10 10 3 9 10 13 11 16 14 16 18 19 18 17
21 22 22 18 15 12 8 10 13 11 7 5 4 6 5 9 14 14 12 15 14 12 12 10 9 9 11 12 14 15 11 12 12 8 11 6 12 15 15 14 16 17 17 18 17
22 22 19 16 13 1 9 4 5 6 9 5 4 3 14 11 18 13 17 17 12 13 11 14 11 16 17 17 7 12 11 12 10 8 7 7 13 14 15 13 12 16 16 18 18
23 19 14 10 5 8 4 4 6 5 3 9 7 6 4 15 10 16 21 11 15 16 12 10 16 14 12 8 9 11 12 14 10 6 6 9 10 14 14 11 15 15 16 18 19
20 14 9 4 3 2 1 5 7 4 6 7 6 6 10 14 13 21 18 9 16 16 16 14 11 11 14 13 13 13 14 11 13 6 3 12 8 10 15 14 11 14 14 16 20
15 10 5 3 2 2 2 5 8 7 6 7 9 7 9 9 13 23 22 11 7 15 15 11 7 17 17 16 16 16 5 6 9 10 10 14 7 6 6 7 7 9 13 14 19
11 8 4 1 4 4 3 10 2 5 5 5 9 6 12 12 20 17 21 7 12 10 10 10 15 18 17 16 14 5 10 10 8 10 4 13 7 8 9 9 11 12 12 16 15
7 6 4 2 4 4 7 8 5 7 4 6 4 11 14 11 10 15 13 11 3 11 14 6 12 14 12 10 13 8 10 9 8 9 11 10 11 6 5 4 3 2 8 17 18
4 8 6 3 5 8 7 5 6 3 3 4 4 12 15 13 11 19 15 12 8 13 13 11 11 4 4 14 13 14 16 10 11 9 9 12 7 11 8 6 6 6 6 10 21
4 3 7 4 9 5 6 8 2 3 6 2 1 9 11 13 10 11 13 10 5 8 14 12 11 6 2 7 12 19 18 10 13 13 12 6 9 8 8 8 10 11 9 8 13
3 3 4 12 5 3 7 2 5 4 5 6 7 11 11 7 8 9 6 5 5 8 4 11 6 5 3 1 5 19 15 6 6 11 9 13 13 13 8 11 13 14 13 9 1
2 5 9 13 3 7 1 5 4 7 6 4 4 4 10 9 10 7 4 5 3 7 5 2 9 2 3 3 1 7 9 10 9 14 14 10 16 10 7 10 13 14 15 16 11
3 5 10 10 5 1 4 5 6 7 6 6 3 5 8 6 7 3 3 7 6 4 3 2 5 8 6 2 2 6 11 10 8 5 14 10 8 7 9 8 10 12 14 15 18
5 3 15 7 0 2 6 4 2 5 4 4 5 6 6 4 6 4 4 6 8 5 2 3 3 9 8 6 1 3 5 9 11 12 6 6 7 6 11 7 9 12 14 15 17
2 4 12 8 3 7 6 9 10 8 9 4 5 7 2 4 5 7 5 5 6 4 4 4 4 8 9 8 5 4 1 4 8 8 13 10 9 9 11 11 10 12 14 14 17
2 1 5 7 4 6 6 6 6 8 12 8 5 3 4 7 4 9 9 5 6 6 5 5 1 6 1 7 4 7 3 1 8 11 9 4 19 13 11 10 12 11 13 15 15
4 4 3 3 7 8 7 4 6 4 5 7 5 7 3 4 8 6 5 10 8 3 2 3 3 2 7 6 4 2 2 2 1 5 5 18 17 13 10 10 10 11 12 14 15
2 2 4 5 2 6 4 8 8 7 5 7 8 8 4 7 6 7 7 2 4 2 2 1 3 3 1 2 1 5 4 2 2 4 7 11 14 10 9 9 9 9 11 13 14
3 2 3 1 2 3 6 4 6 4 8 8 4 5 9 8 7 6 6 4 5 3 2 1 5 6 5 2 3 8 11 7 6 4 6 9 14 9 9 8 7 8 10 11 12

GFSSW_925_spd_087.txt.gz
Wind_Speed
15 15 15 13 12 12 13 12 12 11 13 12 8 13 14 8 7 9 14 5 15 14 18 17 18 14 14 11 4 7 3 4 5 6 11 15 8 3 6 8 4 3 24 26 31
16 16 16 16 14 13 13 13 12 12 10 13 11 8 12 7 11 19 13 12 13 23 18 20 17 16 12 13 4 5 2 7 8 11 13 12 8 7 3 9 9 12 25 31 29
16 16 16 16 15 15 13 13 13 12 12 11 11 5 6 7 12 0 23 16 19 28 20 20 17 15 16 9 6 5 4 2 11 12 14 14 13 6 6 8 13 18 25 26 27
15 16 16 17 16 16 15 14 14 13 11 10 7 8 3 6 2 9 7 18 23 25 21 19 15 16 14 12 7 5 9 7 6 8 8 10 14 10 6 5 8 16 23 25 22
17 17 17 17 18 17 17 16 14 13 11 9 6 6 3 8 9 2 10 20 23 23 22 17 17 17 15 13 13 5 12 2 3 8 11 12 12 13 11 7 8 16 24 23 20
18 19 18 18 18 18 18 19 16 14 11 7 4 3 7 13 5 5 15 21 26 24 21 18 13 15 11 9 8 10 9 2 3 8 10 12 13 11 7 12 13 20 25 22 20
19 19 18 19 18 17 18 19 16 12 10 7 6 5 11 6 0 9 16 22 25 21 18 18 12 9 12 10 11 3 10 8 7 10 10 16 12 12 9 14 18 20 22 20 19
19 19 20 20 19 17 17 14 10 9 7 7 6 8 7 3 7 12 16 19 20 19 16 13 7 13 10 3 10 13 13 11 12 13 8 9 10 17 11 13 19 22 20 18 18
20 21 21 20 19 16 10 6 6 2 7 7 7 12 6 8 14 14 14 17 17 16 14 9 13 15 13 11 13 14 14 16 12 8 12 8 17 18 17 15 16 17 18 18 17
21 20 19 17 16 10 2 5 9 9 6 6 10 7 9 14 16 14 15 16 16 14 10 13 11 14 12 14 16 18 18 19 10 10 13 13 19 19 16 17 14 17 13 16 16
21 18 15 13 10 4 5 3 6 7 12 7 11 10 11 18 17 15 15 17 15 16 13 17 14 17 20 21 21 16 15 13 11 15 10 11 19 19 16 16 17 16 15 11 16
17 14 10 7 5 9 5 6 9 8 8 14 5 3 6 18 16 15 19 15 14 16 18 13 18 17 17 16 14 19 19 18 4 10 8 14 17 16 17 14 16 15 16 12 17
14 8 6 1 2 5 9 6 8 7 7 12 11 14 12 21 15 18 21 16 18 19 20 15 15 15 14 16 15 18 16 14 11 9 14 13 17 19 10 8 9 15 15 14 15
11 6 4 2 4 2 7 4 8 4 6 12 12 9 19 18 15 20 24 11 13 20 18 15 9 14 12 17 18 17 17 19 20 14 12 18 9 18 22 13 14 10 8 12 16
9 5 2 5 12 11 6 9 9 5 6 14 15 16 14 21 18 18 21 15 15 14 13 16 13 14 18 17 19 13 9 6 10 16 11 21 9 12 18 16 16 17 16 17 13
6 4 4 6 9 10 7 9 6 8 2 8 10 13 19 20 15 21 18 9 10 13 14 12 11 14 18 16 17 4 18 13 12 14 13 14 11 13 15 15 16 11 12 16 19
6 2 3 8 10 10 9 9 8 4 8 9 10 16 20 15 18 19 19 16 12 14 14 7 16 16 11 16 13 9 13 11 11 13 11 18 7 8 13 6 9 8 11 14 18
8 11 9 9 10 9 9 11 1 12 8 2 5 12 18 17 18 20 19 17 10 17 16 12 15 10 13 15 14 18 21 13 13 14 14 11 11 10 13 10 11 12 6 7 18
7 9 13 5 7 8 8 9 8 8 6 6 6 17 12 16 11 17 13 12 6 5 8 14 12 10 4 14 8 18 20 25 15 17 14 13 15 13 13 13 14 7 8 13 6
7 10 2 6 7 11 10 2 7 6 1 13 14 12 11 12 12 16 8 4 3 4 9 10 13 14 10 9 13 12 15 19 10 14 16 16 18 13 14 12 8 10 11 13 15
10 6 6 5 9 10 3 11 7 7 3 7 20 6 14 4 8 6 3 7 4 7 8 10 3 11 9 14 17 11 12 15 14 15 12 13 9 18 14 11 10 9 10 12 14
8 5 9 5 9 3 8 5 3 3 2 1 6 9 8 5 1 4 6 8 4 7 10 6 8 11 17 5 4 11 11 17 11 18 14 5 10 15 14 17 13 11 10 11 12
3 4 5 10 6 6 6 8 8 2 5 3 3 6 5 15 7 9 8 2 4 4 5 3 10 7 6 7 8 11 12 10 15 16 12 15 11 17 10 17 16 13 12 12 14
4 2 4 4 5 6 4 3 8 3 5 5 1 3 8 8 6 9 8 4 4 2 7 5 13 6 5 2 12 18 7 10 13 11 11 3 24 20 18 17 13 14 13 13 14
4 4 5 6 7 7 4 2 2 5 3 1 3 3 3 3 6 9 10 8 6 5 3 5 9 5 5 6 7 8 10 7 15 17 9 18 20 20 16 17 16 12 12 14 14
2 1 4 5 1 4 2 7 6 6 9 5 4 1 4 4 8 7 5 7 5 3 3 4 6 7 7 0 0 5 7 5 5 4 8 18 17 16 15 13 12 13 13 12 12
3 2 5 4 2 5 7 5 5 3 7 6 3 2 7 7 6 7 6 4 3 6 3 5 4 7 13 5 5 10 12 11 7 5 9 17 18 15 15 14 12 11 11 11 11

GFSSW_925_spd_090.txt.gz
Wind_Speed
16 16 16 16 15 15 15 15 14 14 14 13 13 13 10 10 13 8 12 12 17 13 12 13 17 21 18 13 12 4 3 5 7 9 12 10 8 3 5 2 5 7 24 25 29
15 15 16 16 16 15 16 15 15 15 15 14 12 11 11 8 11 21 17 16 12 15 17 21 18 17 12 15 6 2 3 10 11 14 15 14 11 9 4 7 8 24 28 30 27
16 15 16 16 16 16 15 15 16 15 15 14 12 10 9 7 11 6 23 25 16 16 21 21 16 15 15 10 13 8 3 7 15 15 17 16 13 6 12 6 18 26 27 24 25
17 17 18 17 17 16 17 16 16 16 14 13 11 9 8 7 2 5 14 23 14 19 21 20 17 16 16 16 11 5 16 4 13 18 15 14 15 9 5 2 13 23 25 22 20
18 20 20 19 19 18 17 17 17 16 14 11 9 7 6 8 13 6 10 16 15 20 22 19 18 16 16 9 6 2 3 14 12 17 16 15 15 12 11 7 3 23 22 21 18
20 19 20 19 20 19 18 18 17 16 13 10 6 5 6 11 4 6 11 14 18 23 22 20 13 16 16 8 12 4 15 10 17 17 17 16 16 12 13 10 14 23 22 20 18
18 18 18 19 20 20 19 18 15 13 10 8 6 5 12 15 3 4 12 16 20 24 19 21 19 16 9 13 13 25 22 10 9 22 16 21 11 13 11 12 17 20 20 18 17
19 20 20 20 19 19 18 14 9 9 7 6 6 8 7 14 6 8 11 15 19 22 22 17 17 13 17 11 11 13 12 6 10 19 17 11 10 14 9 14 18 21 20 18 17
20 20 19 19 18 15 11 2 2 1 5 8 5 10 9 6 13 12 15 18 21 19 19 14 7 13 15 15 11 12 13 16 14 18 24 8 16 15 6 14 19 19 17 18 16
20 17 17 15 14 10 2 2 3 7 5 6 13 9 12 12 15 15 14 15 18 15 14 8 7 14 16 14 15 17 20 13 12 17 21 11 17 18 17 20 17 15 15 15 16
20 15 11 11 10 3 1 3 5 6 14 11 5 13 13 13 16 14 16 15 16 13 15 14 12 17 22 20 20 19 18 16 2 13 14 18 22 18 19 15 16 12 10 14 13
15 12 8 6 4 5 7 7 9 9 8 21 17 17 8 20 14 15 18 14 14 16 18 11 18 18 19 19 21 23 16 18 13 8 10 21 17 21 21 18 14 13 15 11 12
13 8 7 7 7 9 13 13 8 8 8 12 16 10 6 14 14 17 17 17 16 18 20 18 15 21 19 18 22 22 18 16 7 8 11 13 15 20 20 19 22 17 13 16 13
11 7 7 7 8 16 18 3 9 5 6 15 16 12 15 14 14 18 21 17 10 17 20 20 18 19 17 20 17 19 12 13 12 16 13 24 9 19 22 17 18 17 13 13 17
12 9 8 9 14 12 10 9 9 7 5 9 14 8 14 16 14 17 21 21 14 18 16 19 17 17 17 18 18 16 17 24 25 15 15 17 8 3 13 17 17 19 17 18 15
12 9 8 10 11 12 10 9 9 6 2 6 9 10 15 16 22 20 16 20 15 17 21 17 15 13 12 15 13 22 14 13 15 10 13 13 11 13 6 9 16 18 15 18 18
14 14 14 12 11 12 9 8 6 6 9 8 12 13 18 17 16 17 18 20 15 13 15 18 20 12 13 17 19 20 13 10 10 10 12 20 15 9 16 6 28 20 20 17 16
16 16 18 21 12 11 7 9 6 13 9 24 5 11 15 19 15 19 18 15 19 20 13 14 12 17 15 20 16 16 19 12 16 13 13 16 10 10 14 24 6 13 9 9 18
17 15 11 18 15 5 7 2 3 7 16 11 8 2 13 18 9 16 18 17 18 9 4 18 12 17 13 15 6 16 17 17 16 18 15 8 19 20 17 13 9 9 12 10 25
11 17 25 2 4 1 8 5 11 11 4 6 5 3 8 14 11 17 20 7 11 8 2 12 8 16 11 4 7 16 12 17 15 15 14 14 19 17 18 11 6 8 11 12 19
7 6 9 6 8 6 1 9 12 1 6 5 2 4 9 10 11 13 9 3 2 7 4 16 12 10 12 14 14 10 12 14 17 14 11 7 6 18 19 13 9 9 10 9 14
16 12 3 6 6 6 12 4 3 5 11 6 2 6 9 1 8 5 4 7 6 7 5 13 8 11 15 13 18 21 14 16 12 17 6 6 3 6 16 13 12 10 12 12 15
5 4 3 8 4 7 7 8 10 5 2 6 2 2 4 3 3 13 14 0 5 3 4 10 8 5 13 5 6 9 16 15 15 16 5 9 7 13 13 16 12 12 14 11 14
6 2 4 1 5 4 2 5 8 3 2 2 6 3 7 2 8 6 10 3 1 5 7 6 9 9 5 5 15 17 16 14 12 10 6 16 17 19 16 17 12 14 15 14 14
4 5 5 8 9 10 9 5 3 6 3 3 2 9 6 4 7 13 6 6 5 3 4 5 7 5 12 9 12 15 18 12 10 14 12 15 20 21 17 17 13 13 15 17 16
6 3 2 3 1 3 3 8 9 8 10 5 1 4 7 12 6 10 6 5 7 6 6 6 7 6 10 1 10 7 5 7 7 13 9 21 9 15 18 19 14 13 14 14 15
10 3 7 3 3 5 8 7 7 3 5 6 6 6 1 9 11 12 9 11 7 3 4 6 6 9 10 7 4 7 5 6 9 9 18 17 10 13 19 15 14 14 13 13 14

GFSSW_925_spd_093.txt.gz
Wind_Speed
15 15 15 15 14 14 14 14 13 14 14 14 13 12 12 14 12 7 9 12 12 7 8 8 12 19 20 16 17 6 3 2 9 9 8 13 7 3 8 3 13 10 14 24 39
14 14 15 16 15 15 15 14 14 14 15 14 12 13 11 13 13 16 22 15 18 12 12 14 12 16 10 12 7 4 3 3 9 13 16 11 6 8 4 4 5 21 17 27 38
16 15 15 15 16 16 16 15 14 14 13 13 12 12 9 9 5 8 7 23 15 13 15 21 21 16 15 11 5 6 4 6 14 20 18 12 7 2 7 2 23 24 20 17 30
18 18 17 16 16 16 16 17 15 14 13 11 10 10 8 2 1 2 4 19 19 15 14 21 15 12 10 12 10 3 16 7 18 19 17 14 13 7 10 4 8 21 17 17 20
20 20 19 19 17 16 17 17 17 15 13 10 8 7 3 4 9 5 7 17 17 14 17 14 15 11 14 9 19 15 9 7 17 18 16 17 12 10 12 5 3 18 13 11 19
20 20 20 20 19 18 18 18 16 14 12 8 6 2 2 5 8 10 12 18 14 16 17 17 10 11 9 15 6 3 2 10 14 16 19 17 15 9 15 15 10 19 12 10 10
20 20 21 21 20 19 18 18 16 12 8 6 3 1 5 14 13 7 13 14 18 19 9 23 27 10 8 14 8 4 7 7 16 19 18 18 13 13 15 15 19 18 14 10 9
21 21 20 20 18 18 17 15 11 8 6 5 4 3 7 16 16 11 13 13 15 18 25 24 24 10 7 7 3 7 6 5 14 16 14 6 9 13 9 11 18 18 15 11 9
21 20 18 18 17 16 12 7 5 2 3 6 4 4 8 6 14 13 16 16 17 20 26 26 17 5 9 6 6 7 6 15 14 10 17 5 10 12 5 12 14 17 13 9 15
21 19 16 15 15 11 5 5 2 5 6 4 10 4 8 12 14 18 19 21 14 12 14 13 1 1 6 4 7 6 8 2 8 2 10 3 12 10 7 14 16 15 13 9 16
21 17 14 13 12 6 4 3 2 3 9 9 9 6 2 11 15 15 21 18 14 8 7 7 4 7 11 12 16 12 11 7 7 8 6 9 17 14 10 10 15 15 12 10 14
17 15 13 12 13 11 7 5 10 10 6 18 18 17 25 11 9 9 15 6 8 8 9 4 8 12 14 19 19 18 13 10 6 4 8 16 15 12 11 10 14 8 8 13 14
16 14 14 15 15 15 11 17 15 17 4 13 13 11 12 13 10 9 11 9 8 8 8 9 12 18 18 16 17 15 9 15 10 10 11 6 5 9 13 8 3 2 4 8 10
17 12 12 14 11 10 17 21 18 14 3 6 10 9 5 9 6 16 15 8 6 11 10 10 20 16 17 14 12 8 9 11 21 9 5 6 2 5 13 11 9 9 6 7 8
19 16 11 10 16 8 16 13 10 8 4 12 11 8 6 6 5 11 21 10 11 10 7 10 13 14 15 15 12 11 10 15 22 17 8 12 6 3 3 14 12 13 9 8 10
22 22 15 10 11 23 20 21 11 2 2 4 6 6 10 10 13 10 10 10 11 11 11 14 13 15 9 14 12 10 7 7 3 4 1 9 8 5 8 11 8 15 14 9 8
23 23 22 13 7 16 22 8 2 4 17 12 5 2 8 8 13 10 11 10 7 5 7 11 16 11 9 6 6 6 2 3 1 3 6 10 10 3 13 14 15 4 9 12 10
27 24 21 26 23 19 21 4 4 3 7 7 7 19 10 10 11 14 9 8 13 13 6 7 7 13 4 4 7 7 6 5 7 5 7 6 6 5 8 10 11 8 10 10 7
28 15 9 23 13 15 1 5 4 1 6 7 18 6 4 4 6 12 9 10 13 11 5 3 10 8 8 7 9 8 8 9 4 7 3 5 5 7 5 7 9 7 6 1 5
14 7 15 21 13 5 6 0 4 8 8 11 9 7 7 10 8 18 11 10 3 9 5 1 5 12 11 4 0 2 4 5 1 4 4 4 3 7 10 12 12 9 13 8 10
2 2 5 9 19 6 2 4 8 7 2 6 5 4 7 7 6 4 7 19 13 8 11 6 4 8 7 4 4 2 4 1 1 1 4 5 1 8 9 10 12 13 13 12 11
7 3 15 3 5 2 7 6 8 8 5 4 6 8 5 11 8 3 5 8 14 8 4 3 4 6 7 4 7 6 6 4 4 5 3 5 1 1 14 12 14 12 13 13 11
3 4 6 6 5 4 4 6 7 3 8 3 4 3 4 2 6 7 7 10 8 7 3 6 5 4 6 1 5 5 8 7 3 2 5 4 4 6 14 12 13 12 13 11 11
3 3 2 2 2 2 2 5 6 1 3 3 7 3 6 2 2 4 7 9 4 5 1 5 3 4 3 3 4 4 5 7 2 4 5 2 13 15 16 15 15 11 12 12 12
3 2 2 4 6 6 7 7 9 4 4 2 2 1 5 6 6 2 5 4 6 3 3 4 3 6 9 8 8 9 9 9 1 11 6 7 10 15 16 17 16 14 13 14 13
3 4 6 2 5 5 4 5 11 8 8 9 7 9 8 6 4 3 4 6 0 5 1 2 1 9 7 6 6 9 6 6 6 13 10 10 16 14 13 15 17 13 13 14 14
11 14 3 6 4 7 5 6 8 3 5 7 9 9 13 7 6 7 9 9 7 4 5 3 4 3 6 10 7 5 8 7 5 8 13 12 11 13 16 14 16 13 14 13 11

GFSSW_925_spd_096.txt.gz
Wind_Speed
14 15 14 14 15 14 14 13 12 12 12 12 11 12 13 14 14 7 7 11 17 11 11 8 11 11 7 3 7 3 2 5 8 11 7 7 7 5 5 13 14 7 14 25 35
15 15 15 15 15 14 14 14 14 13 12 12 10 10 12 12 12 13 17 13 12 14 10 10 6 8 3 3 4 4 4 4 16 14 12 11 5 7 3 10 5 20 19 32 34
16 16 16 16 16 15 14 15 14 14 12 11 10 8 9 9 4 8 3 19 21 14 16 14 5 3 5 3 3 3 2 10 7 12 20 15 10 6 8 7 16 22 23 26 31
17 17 16 16 15 15 15 14 15 15 13 11 8 8 5 2 4 3 4 16 20 14 14 6 3 4 5 6 4 4 7 4 8 12 16 14 10 8 13 11 17 22 24 25 20
18 18 17 17 16 16 16 16 14 14 13 11 7 4 1 1 9 7 2 21 19 15 15 6 6 5 4 6 7 7 7 8 15 12 12 14 9 6 9 15 15 20 22 22 19
19 19 18 17 17 16 16 16 15 13 11 9 5 2 0 2 5 7 10 22 18 19 15 10 6 8 7 9 8 9 6 12 10 11 12 11 8 9 5 5 18 19 20 17 19
19 19 19 18 17 16 15 15 13 11 8 6 3 3 2 12 4 10 14 19 21 19 6 22 14 2 5 5 12 13 7 11 15 12 13 15 5 11 7 3 17 16 15 16 15
20 19 17 17 16 16 15 13 10 7 4 4 3 3 7 7 13 8 13 8 16 15 22 11 7 6 5 7 1 5 5 5 11 12 12 4 6 14 10 6 14 14 10 12 18
21 19 17 16 16 14 9 6 6 4 0 4 4 3 9 13 10 18 21 7 13 15 15 11 4 6 2 2 5 1 3 4 14 6 11 2 7 14 11 9 16 14 8 12 19
21 18 15 16 16 12 6 6 3 5 6 5 6 3 6 4 8 6 24 14 5 3 2 3 3 2 3 5 4 3 4 2 9 3 8 1 7 14 11 9 15 12 7 15 18
21 18 13 13 13 13 9 3 3 1 5 8 7 5 7 5 13 8 18 11 3 4 5 4 3 5 6 6 6 5 4 7 5 2 7 9 7 13 6 8 10 10 7 14 18
22 19 15 13 15 16 9 2 8 3 8 15 14 8 18 9 4 7 15 6 4 5 2 5 4 7 4 7 7 4 1 7 12 10 5 4 6 8 2 5 12 9 6 11 13
21 20 19 16 16 9 5 14 18 17 3 8 7 6 6 9 7 8 9 6 5 4 4 6 6 7 6 8 8 7 5 8 10 11 4 12 3 2 9 5 7 4 6 10 15
22 19 18 17 7 6 8 11 22 9 4 6 3 6 4 9 3 10 11 5 2 8 5 6 7 6 6 8 6 7 8 11 24 10 5 2 4 4 6 11 9 6 5 11 14
22 20 17 17 14 4 11 21 33 3 4 11 3 3 4 8 4 4 18 3 5 7 6 8 4 7 8 13 8 11 8 13 21 5 10 6 5 3 6 12 16 6 7 6 9
23 23 19 12 11 19 17 24 6 5 2 7 3 7 3 2 2 1 8 1 2 2 4 7 7 7 10 11 12 12 4 6 6 4 1 9 5 4 8 17 15 10 6 7 7
26 25 19 10 7 5 21 5 5 3 6 6 4 5 5 5 4 5 5 5 5 2 4 6 9 9 6 6 3 4 7 2 0 1 6 14 4 6 14 21 22 15 13 6 5
29 21 15 22 17 15 10 5 4 2 5 5 4 9 4 4 3 3 8 4 4 4 1 2 8 6 4 9 8 4 8 6 5 4 2 12 4 4 4 5 4 2 4 4 6
23 8 7 14 3 3 5 5 4 2 4 4 8 7 7 7 5 5 6 3 4 4 7 3 6 6 1 6 8 3 2 6 5 3 4 3 2 7 8 5 6 3 2 3 4
16 7 7 10 6 5 5 4 4 5 2 2 2 3 4 8 5 7 8 3 7 7 5 6 4 4 7 3 3 8 4 4 3 4 2 3 5 3 5 6 10 7 6 6 6
6 3 4 12 17 5 3 4 3 7 6 2 4 3 4 4 4 2 2 5 3 9 9 4 3 8 2 3 6 4 3 5 4 4 6 4 2 4 11 11 10 8 6 7 8
4 2 18 19 4 3 3 4 3 5 2 3 2 5 4 3 4 2 1 4 8 6 7 4 4 1 5 9 4 5 6 5 4 2 3 4 2 10 15 13 10 7 6 7 9
3 3 1 10 3 2 3 3 6 2 2 2 4 5 3 4 5 3 1 6 13 5 2 4 3 3 8 7 7 4 2 6 4 2 5 5 5 7 12 15 11 6 5 5 9
2 3 4 4 2 6 3 3 1 4 3 2 1 5 3 2 4 4 4 3 14 2 5 3 3 5 2 4 1 6 7 4 6 4 4 3 14 12 12 11 15 10 8 9 10
2 3 3 1 4 4 7 6 6 5 7 9 6 2 6 2 3 1 2 3 9 3 3 2 3 4 4 6 5 3 8 4 3 6 6 16 17 18 14 13 13 11 11 9 10
3 3 5 4 5 5 6 4 7 3 4 5 7 12 5 4 1 2 3 4 3 4 7 4 2 5 6 12 11 6 14 8 8 8 14 16 14 16 16 16 13 13 12 11 10
7 5 3 6 2 6 3 3 5 3 6 8 4 4 6 3 3 3 3 2 4 4 5 3 3 3 2 10 7 7 7 7 4 6 22 16 15 20 19 17 16 14 13 14 12

GFSSW_925_spd_099.txt.gz
Wind_Speed
14 14 13 13 13 13 13 12 13 12 12 13 12 11 10 11 12 8 7 10 16 11 15 15 9 5 4 2 4 3 1 4 11 8 9 4 6 2 3 16 5 2 12 19 27
15 15 15 14 14 13 13 13 13 13 13 12 12 11 10 11 11 12 15 15 14 20 20 15 6 7 2 3 3 3 1 6 2 2 12 6 8 5 9 12 15 18 20 29 27
16 16 15 15 14 13 13 13 13 13 13 12 10 10 9 8 4 8 2 20 22 22 15 11 12 6 2 3 3 4 2 4 4 14 11 12 5 3 15 9 21 22 22 23 25
17 17 17 16 16 15 14 14 14 13 12 12 10 7 6 2 3 2 6 19 25 20 13 8 4 6 3 4 3 3 1 0 7 15 11 9 10 7 7 2 17 23 24 22 18
18 17 17 16 15 15 14 14 14 13 12 10 8 4 2 0 9 4 4 24 27 19 15 7 5 4 4 2 4 1 3 2 2 7 11 11 8 6 16 12 16 21 22 19 16
18 17 16 15 15 13 12 12 13 12 10 8 3 1 2 3 5 4 12 28 24 21 13 9 8 6 3 2 5 8 10 1 2 8 11 6 7 6 9 10 19 21 20 17 16
17 16 15 15 15 14 13 11 9 9 8 5 1 3 0 11 6 5 20 21 21 20 6 12 5 3 2 2 6 8 5 2 4 9 4 13 4 6 10 15 22 19 18 17 18
17 15 14 12 12 13 12 8 6 4 5 2 3 3 7 2 5 12 12 9 14 14 4 11 6 0 3 4 2 7 3 4 5 7 5 1 5 14 7 13 19 18 16 16 14
18 15 13 12 12 11 8 7 3 3 3 4 4 3 9 8 7 18 14 5 15 11 7 6 7 5 1 2 4 4 3 4 7 8 7 3 6 17 7 11 16 17 16 13 14
19 15 13 12 11 10 7 4 3 7 8 5 4 2 6 1 5 8 18 10 5 7 3 4 2 3 2 4 4 3 2 2 7 6 13 2 4 17 6 11 9 11 15 13 16
22 18 14 14 13 13 7 1 2 0 4 8 5 5 4 6 5 6 11 7 3 4 5 4 4 5 8 5 4 4 2 6 5 4 4 2 9 16 7 8 17 7 10 15 16
22 21 18 15 16 18 5 3 4 1 7 13 11 7 10 2 3 3 18 5 4 4 3 5 5 7 6 6 4 5 3 4 7 8 3 5 9 13 8 10 13 6 11 14 13
23 22 19 19 18 9 5 8 1 10 0 7 5 4 4 9 5 4 11 5 4 4 4 5 3 6 4 2 4 3 4 6 5 7 4 7 1 10 7 4 5 6 9 15 17
20 20 21 17 5 6 9 3 19 2 4 6 2 5 4 4 2 5 12 6 1 7 5 4 5 3 3 3 6 1 6 8 15 7 4 4 3 3 3 4 20 12 9 15 15
20 20 19 14 11 3 6 21 15 4 3 11 3 1 2 7 4 3 7 4 6 5 6 6 4 4 5 7 6 7 7 11 14 4 6 3 3 2 4 5 8 16 8 11 17
26 25 22 10 8 10 11 21 3 5 3 7 5 6 3 2 2 2 3 5 3 1 1 6 3 5 7 5 8 3 6 11 5 3 0 7 4 3 6 11 10 9 8 8 14
30 22 17 8 4 6 18 4 5 3 4 7 4 5 3 2 3 3 5 4 4 4 4 6 5 5 5 3 1 4 7 2 3 1 5 8 4 3 6 6 16 14 12 11 14
28 20 11 14 7 8 3 5 6 2 3 5 5 5 4 5 4 7 6 2 1 3 2 2 5 7 4 9 7 7 10 5 5 4 1 4 4 1 6 9 9 10 10 8 8
26 7 5 4 6 5 5 5 4 3 4 4 5 6 6 5 5 4 4 2 4 2 1 4 5 3 5 5 10 4 4 6 6 3 4 2 3 2 3 7 9 8 7 6 3
17 6 4 3 14 7 5 3 4 4 3 2 3 4 3 7 4 4 4 3 2 2 4 4 3 2 4 2 3 8 7 4 3 5 3 1 0 3 2 8 10 8 8 6 3
5 3 3 11 6 5 3 5 5 7 4 2 2 3 3 1 4 3 1 3 1 6 3 1 3 5 1 2 6 3 2 6 5 4 5 4 3 3 5 7 9 8 7 6 5
4 2 7 16 4 2 3 4 3 4 3 3 3 3 1 1 2 3 1 3 4 2 2 1 2 1 5 4 4 2 7 5 5 2 3 4 2 4 10 9 10 9 7 8 7
1 2 3 4 1 2 2 2 2 2 3 2 2 2 2 3 3 3 3 4 6 3 3 3 2 2 8 6 7 6 4 4 6 4 4 5 3 5 7 7 7 10 8 8 8
3 2 4 4 1 4 4 1 2 5 4 4 3 3 4 2 4 2 1 3 6 2 5 6 2 4 4 5 2 4 3 2 5 4 6 3 11 7 9 10 7 7 9 9 7
3 1 2 2 4 6 4 2 3 5 4 9 6 1 3 2 2 4 4 6 6 9 3 4 3 2 3 2 2 3 4 5 4 5 6 11 19 19 15 13 9 10 9 12 10
2 3 4 1 1 5 4 4 3 3 4 4 5 6 4 4 2 1 1 2 2 7 5 3 3 1 4 10 7 5 12 6 3 7 7 18 8 8 11 10 10 11 11 14 12
4 2 3 5 3 4 1 3 1 5 3 2 2 3 4 2 4 5 4 2 2 6 4 3 3 3 2 5 3 7 10 5 3 2 22 15 8 17 14 14 13 15 14 14 11

GFSSW_925_spd_102.txt.gz
Wind_Speed
13 13 13 13 13 12 11 12 12 11 11 11 11 10 11 12 12 7 7 10 18 15 15 16 10 6 6 2 3 3 2 1 2 13 6 4 4 2 5 6 4 1 11 15 25
15 14 13 13 13 13 13 11 11 11 11 11 11 10 9 12 12 12 17 13 12 18 19 19 6 8 2 3 3 2 1 2 6 4 7 2 5 5 6 8 14 18 19 24 24
15 15 14 14 13 12 12 13 12 12 11 10 10 8 8 8 4 7 6 19 20 22 20 18 16 5 3 3 4 3 2 3 4 5 14 11 3 2 12 7 16 23 19 19 20
16 15 14 13 13 12 12 12 13 12 11 10 8 6 4 2 2 2 6 22 25 20 19 14 6 5 5 3 3 2 3 5 8 10 8 12 8 11 6 2 15 19 20 19 15
16 15 15 14 13 12 11 11 11 11 10 9 8 4 1 1 8 6 6 22 26 20 13 6 6 5 5 4 4 2 4 4 4 14 7 10 13 12 1 9 14 19 18 15 14
16 16 15 14 14 12 10 10 9 9 8 7 5 1 1 2 6 9 7 30 26 19 10 6 7 5 3 2 3 3 4 3 5 7 11 11 12 11 9 3 14 17 15 14 15
17 16 15 13 12 12 12 11 11 8 8 4 1 1 1 10 5 2 21 24 24 12 6 6 3 2 4 2 3 4 6 1 7 7 6 9 10 9 11 6 15 16 14 13 14
17 15 12 11 10 10 10 10 7 5 3 1 6 2 6 2 2 10 13 13 17 9 5 13 4 4 2 4 2 5 4 3 3 4 8 10 4 16 19 13 17 15 13 13 11
17 15 12 10 9 7 7 7 5 2 2 4 3 2 8 5 4 12 12 9 11 8 4 2 1 2 1 3 4 4 3 2 2 2 2 3 5 16 18 14 15 14 13 13 8
18 16 14 12 10 8 6 1 4 7 5 3 3 2 6 1 5 11 12 14 5 4 3 3 3 3 3 4 4 4 2 3 5 1 6 5 3 15 12 16 17 14 13 10 12
21 18 16 15 14 11 1 6 3 1 4 7 4 3 4 6 3 6 14 8 5 4 4 2 4 7 6 6 5 4 4 6 4 6 6 5 7 17 8 15 10 12 12 12 14
22 20 18 17 18 13 2 3 3 0 6 9 6 6 11 4 1 5 19 5 6 4 4 5 6 6 7 7 7 1 7 5 9 7 3 7 4 13 7 13 17 7 13 15 13
22 22 20 20 17 1 3 5 2 7 1 6 5 4 3 9 5 6 8 3 6 6 4 6 3 7 5 5 7 3 4 5 6 8 3 1 4 10 6 9 17 6 6 13 15
23 24 24 17 4 4 6 1 13 5 4 5 3 2 4 4 1 6 13 6 2 7 8 3 2 7 3 4 6 5 10 9 17 7 4 7 4 8 14 7 6 14 10 11 16
24 28 26 16 10 3 1 12 2 4 4 11 4 1 1 5 5 2 7 4 5 5 6 5 5 5 3 4 6 4 6 9 10 3 4 3 2 2 11 13 14 22 11 13 15
26 30 22 9 6 8 5 10 4 5 3 6 5 6 2 2 2 3 3 5 3 4 4 4 1 5 7 4 8 7 9 10 4 3 1 7 4 4 9 20 15 17 19 12 15
34 25 19 8 3 1 12 2 4 4 4 6 4 5 3 5 4 3 6 3 4 4 2 4 3 3 4 4 1 2 5 3 3 0 5 2 4 5 3 6 19 20 21 15 16
33 20 8 9 2 4 3 5 6 2 3 4 3 3 4 6 4 6 3 3 5 4 3 5 3 7 4 8 7 8 8 6 5 5 2 3 4 4 3 7 9 13 13 12 14
26 6 5 6 7 2 5 5 4 4 3 6 4 6 6 4 4 4 4 2 2 2 5 3 5 4 5 4 9 5 3 6 7 3 4 2 3 4 5 5 9 9 11 8 13
11 5 6 3 12 4 5 1 2 3 2 1 3 3 4 6 3 4 3 1 3 1 3 4 2 3 4 3 2 6 6 3 3 5 3 2 3 3 2 7 8 9 9 6 6
4 3 8 10 4 5 3 4 4 5 3 1 1 3 2 3 2 3 1 1 1 1 5 3 3 6 1 2 7 2 1 5 5 4 6 4 5 3 6 10 8 8 7 6 5
2 3 4 2 4 1 2 4 2 3 2 3 1 2 1 2 3 1 3 3 1 1 3 1 4 3 7 2 2 2 5 6 5 4 1 3 4 1 8 10 11 6 6 5 5
3 1 2 1 3 2 4 1 1 5 4 4 3 1 1 2 3 1 2 2 3 1 3 4 2 2 7 6 5 4 2 4 5 4 5 6 4 6 8 10 8 10 8 6 7
3 2 4 4 1 6 2 1 3 4 3 3 2 3 3 4 4 1 4 2 3 4 5 5 3 4 5 5 3 4 5 2 4 4 6 4 9 11 13 13 11 10 9 6 4
3 1 3 1 4 3 2 2 3 5 4 7 5 6 3 4 2 5 4 6 2 6 3 3 4 2 2 4 3 3 5 5 3 5 6 8 10 17 17 13 11 11 10 9 7
2 2 3 1 2 3 5 4 2 2 5 6 4 4 3 5 2 2 4 5 2 5 3 4 1 1 2 3 7 3 14 10 3 2 4 8 2 8 11 9 12 13 12 12 11
4 2 3 4 3 3 1 2 1 1 1 2 3 3 6 4 2 2 2 3 1 3 2 4 2 3 2 6 5 6 9 5 5 1 4 6 7 12 15 14 14 13 12 12 12

GFSSW_925_spd_105.txt.gz
Wind_Speed
12 12 12 12 12 12 11 11 10 10 10 10 10 9 9 10 11 7 7 10 10 15 16 17 8 10 6 5 3 2 2 3 2 9 5 1 6 4 9 12 4 3 14 20 24
14 13 12 12 12 12 12 12 11 10 10 10 10 9 8 11 10 11 15 11 11 20 18 20 11 12 3 4 3 2 1 2 2 3 4 4 9 12 7 12 11 17 20 25 23
14 13 12 11 11 11 10 11 11 11 11 10 10 9 6 8 4 5 6 16 18 22 16 12 15 7 3 3 3 3 1 8 3 2 3 5 10 9 13 8 16 25 23 22 22
14 13 12 11 10 10 10 9 8 9 10 10 9 8 5 2 2 2 14 21 19 19 17 11 8 7 4 4 4 2 3 6 7 8 5 4 9 7 4 4 16 22 25 23 19
14 13 12 11 10 10 10 9 8 7 7 7 7 3 1 2 6 4 5 18 22 18 20 11 15 6 6 5 6 4 3 8 10 13 12 9 7 6 11 16 18 21 21 19 17
15 13 12 12 12 11 10 11 9 7 4 4 2 2 2 4 5 10 10 22 20 12 11 13 9 5 5 4 6 5 5 6 13 14 15 15 6 5 2 16 17 18 18 16 16
16 14 13 12 11 10 9 10 10 7 6 2 2 3 2 7 7 3 14 16 18 9 8 5 5 4 5 6 2 7 4 7 15 17 13 17 8 3 10 16 18 16 15 14 15
17 15 13 11 9 9 7 7 8 5 2 2 8 2 5 2 3 10 11 12 14 7 5 3 1 1 2 1 3 3 1 3 6 14 8 6 10 11 7 13 18 17 15 14 14
19 16 13 11 10 8 7 3 3 2 3 4 2 2 2 2 3 11 10 12 12 3 3 5 3 2 3 5 3 3 2 5 6 3 9 4 6 17 15 12 17 17 15 14 13
18 17 15 13 12 9 5 4 6 6 5 2 3 3 3 3 6 12 6 16 5 7 5 4 2 4 2 7 7 8 4 6 6 5 6 7 7 21 16 15 17 17 16 16 15
19 17 17 16 16 13 4 5 2 3 5 5 3 3 2 3 10 6 9 8 6 8 6 5 6 12 11 5 4 8 5 8 5 4 6 5 11 18 17 17 17 15 16 16 16
21 19 20 19 18 8 4 2 2 3 6 7 7 7 8 3 4 7 13 5 8 13 8 7 14 7 4 5 6 8 10 7 10 3 7 8 4 15 18 17 17 17 17 17 14
21 22 22 21 15 3 3 4 3 1 3 3 3 3 1 9 6 11 14 8 11 12 13 13 4 9 7 6 8 4 3 8 7 9 11 10 2 9 5 6 7 8 15 17 17
22 24 26 18 2 2 4 3 6 4 2 6 2 2 4 3 5 7 15 9 5 12 8 9 4 13 8 10 7 7 7 9 17 7 4 3 2 8 12 10 14 16 10 17 18
23 27 25 12 6 3 2 7 2 3 2 11 2 2 2 2 13 7 7 4 7 8 5 4 11 12 11 7 7 1 12 13 15 7 7 9 4 4 14 16 17 18 19 15 18
25 29 20 6 4 4 3 4 3 2 4 4 5 6 2 2 2 6 9 1 2 5 3 4 2 7 8 7 8 9 15 12 5 2 3 11 8 6 14 27 21 25 22 20 16
30 25 13 5 1 4 5 2 1 3 3 6 4 5 2 5 4 6 10 6 4 6 9 4 5 2 3 6 7 9 14 5 3 3 4 3 9 7 16 10 25 27 23 20 17
30 10 3 3 3 3 2 1 5 1 2 2 2 2 3 5 3 3 7 7 4 2 4 8 9 9 7 9 6 13 11 6 7 6 4 6 7 1 4 11 16 23 22 22 17
14 4 4 8 5 3 1 4 1 1 2 6 1 3 3 2 0 1 3 3 1 4 2 4 5 1 6 6 12 7 9 7 1 1 5 5 3 3 4 9 15 20 21 21 16
4 2 6 9 7 1 4 3 1 2 1 1 3 3 3 4 1 2 2 1 4 0 2 6 3 3 5 7 3 7 9 10 5 8 7 4 3 4 8 9 13 16 20 18 18
2 2 10 2 6 4 3 1 1 3 4 2 3 2 2 2 2 1 1 2 1 3 3 4 3 4 3 9 12 6 5 3 6 3 9 6 4 3 8 12 14 13 14 15 15
1 2 3 8 1 1 1 0 2 2 1 1 1 2 3 2 2 1 3 0 2 2 3 2 2 4 3 2 3 2 10 13 9 10 1 3 2 3 6 11 13 13 12 11 12
2 2 2 2 2 2 0 1 2 1 4 4 2 4 2 3 2 3 3 2 2 3 3 4 1 3 5 4 3 2 1 3 2 3 9 8 3 3 8 10 13 13 11 9 8
1 2 1 3 2 1 2 1 2 3 2 2 2 2 2 3 4 2 3 1 4 3 8 1 2 4 5 1 1 2 2 3 7 9 6 6 7 11 11 10 10 10 9 8 6
3 2 1 1 3 2 2 1 2 3 4 8 3 5 1 2 2 3 3 3 1 7 3 1 3 3 3 2 8 6 5 3 7 2 9 9 12 16 16 14 11 9 10 9 6
1 2 2 3 0 1 2 2 1 1 4 4 3 5 4 3 3 3 4 4 3 5 2 3 2 1 3 1 5 4 10 5 3 1 2 6 8 8 14 13 13 11 10 10 9
2 1 1 1 2 1 0 1 2 1 2 2 2 2 5 3 1 3 3 1 2 2 2 2 2 3 4 5 4 4 7 7 1 1 1 5 4 16 17 15 14 13 11 9 10

GFSSW_925_spd_108.txt.gz
Wind_Speed
12 12 12 12 11 10 10 9 9 8 8 9 9 9 9 9 10 6 10 6 9 15 16 13 13 13 13 8 3 2 2 5 6 14 7 10 12 5 4 12 6 4 15 25 25
12 12 12 11 11 11 10 10 10 10 10 9 9 8 7 8 9 15 11 10 10 21 18 18 14 15 10 9 5 6 3 1 4 8 8 8 10 12 10 12 12 17 25 27 24
12 12 11 10 10 9 9 9 9 10 10 10 10 8 4 5 7 3 3 11 17 24 18 16 14 13 9 4 6 1 2 10 10 7 2 12 12 8 13 12 17 22 26 24 23
13 12 11 10 9 9 8 8 7 8 9 10 9 7 2 3 2 3 10 15 22 21 18 15 14 12 6 6 6 2 1 7 8 3 4 6 11 9 5 10 14 22 25 26 20
13 12 10 10 9 9 8 8 7 8 7 7 7 1 3 7 4 5 5 21 22 21 22 15 14 11 10 6 6 3 3 9 9 9 6 2 7 4 8 11 18 22 22 20 18
13 11 10 10 10 9 9 9 8 8 7 4 3 2 6 9 2 4 10 17 21 21 22 18 10 10 5 6 5 3 8 10 10 12 11 12 8 3 8 17 22 21 19 18 17
15 12 11 10 9 9 8 7 8 6 5 4 3 2 8 3 6 3 16 16 19 18 17 17 8 11 4 7 7 6 6 13 14 15 15 12 5 7 13 19 21 19 17 16 16
16 14 12 10 10 10 9 7 5 4 2 3 5 4 4 2 2 6 12 14 13 11 13 9 7 10 10 4 7 10 7 7 9 11 12 12 13 6 10 18 19 19 17 15 15
18 16 15 13 11 11 7 4 4 1 5 8 2 5 4 3 5 8 12 17 14 9 9 7 7 8 8 10 8 8 3 9 8 8 5 3 12 12 10 18 19 18 18 15 14
18 17 16 16 13 12 4 2 4 7 2 4 5 5 4 5 10 10 7 17 13 9 9 10 8 10 11 11 10 12 11 11 6 10 16 12 8 15 13 17 18 18 19 16 15
17 18 17 18 15 13 4 1 5 5 7 7 2 3 7 9 14 10 12 12 12 12 11 14 11 16 16 13 6 8 5 17 7 9 4 5 12 21 17 15 19 18 18 18 16
17 18 19 19 15 8 3 5 6 5 6 5 6 6 4 3 9 11 13 9 11 13 11 9 17 17 6 4 10 8 9 12 8 4 9 8 11 15 14 16 17 18 18 18 17
17 19 21 19 11 3 5 6 3 6 5 3 2 3 6 11 10 16 15 5 13 14 15 14 14 7 10 11 9 4 5 11 10 8 10 7 4 13 11 12 17 17 16 18 18
18 20 21 14 0 2 3 2 4 4 4 5 6 5 7 6 7 15 15 7 7 14 13 11 5 14 13 11 9 8 3 6 18 12 5 7 3 3 11 15 20 16 20 19 18
19 22 21 9 7 4 2 4 2 4 1 3 4 3 6 6 16 12 15 7 10 11 9 7 11 16 16 13 7 4 0 5 11 6 12 7 4 2 17 14 16 14 19 19 19
22 25 17 3 4 4 2 5 4 6 5 3 1 1 11 6 5 13 11 9 3 8 13 6 10 11 11 9 8 1 10 3 3 3 5 13 4 5 13 22 26 22 23 20 20
27 18 6 5 2 2 3 4 6 3 2 3 3 0 5 8 11 15 13 11 7 10 12 6 11 8 5 13 9 8 13 6 7 6 3 4 9 3 15 19 25 28 25 21 18
15 5 3 5 2 3 5 6 4 3 5 2 2 4 4 1 8 6 12 9 3 8 9 12 14 13 11 12 11 15 17 7 7 7 6 4 7 3 4 15 21 23 25 23 21
4 4 2 2 6 5 6 2 4 3 3 4 3 6 6 6 1 6 6 9 8 7 4 10 10 9 11 13 9 17 14 17 15 8 6 8 3 6 8 11 15 22 21 21 21
2 3 4 3 2 7 1 7 5 4 4 3 1 4 3 5 8 7 7 4 7 4 6 4 7 10 15 14 15 14 14 16 10 9 11 7 7 6 12 13 17 17 24 24 20
3 3 3 3 5 5 6 10 6 5 3 5 2 1 2 1 3 5 5 7 2 6 4 5 8 10 10 15 16 13 12 15 15 14 11 9 7 4 8 11 15 16 19 22 21
4 2 1 5 3 1 6 3 2 4 3 2 2 4 5 3 2 4 5 4 1 4 6 3 6 9 15 8 11 15 21 17 12 16 9 13 3 3 5 8 8 10 14 17 20
1 3 2 4 3 5 5 4 4 4 7 5 2 4 3 3 2 1 3 4 2 3 3 2 6 8 9 9 6 13 13 15 18 17 16 13 7 7 8 8 7 10 11 12 14
3 4 3 1 2 2 3 3 3 3 2 4 5 3 3 2 2 2 5 4 1 4 4 3 11 11 7 4 5 13 11 14 16 11 13 13 8 9 11 12 13 13 12 10 9
2 3 4 3 4 2 2 1 1 0 1 3 4 3 3 3 3 1 2 6 5 3 3 4 11 7 9 5 4 4 11 14 17 17 17 10 14 10 14 14 13 12 10 12 10
3 2 2 4 4 5 4 2 2 1 5 1 1 1 2 1 6 5 2 1 1 1 1 3 7 6 7 4 5 5 4 10 15 12 13 8 6 4 11 12 12 11 11 10 9
2 1 4 5 5 6 2 3 2 1 2 3 4 4 3 5 4 5 4 3 4 4 2 3 4 7 11 8 8 11 3 1 2 5 8 11 4 10 12 11 11 11 11 9 8

GFSSW_925_spd_111.txt.gz
Wind_Speed
12 12 11 11 10 10 10 10 9 9 9 10 11 11 10 10 11 10 13 5 14 9 12 14 14 13 13 7 6 3 4 5 8 14 7 6 11 11 5 11 9 4 23 24 26
12 11 11 10 9 9 9 9 10 10 11 11 11 10 8 9 14 19 15 12 12 16 16 17 15 15 12 10 7 7 3 2 3 11 8 13 12 10 10 11 8 18 22 26 24
11 11 11 10 10 9 9 9 9 10 11 11 11 9 5 7 13 5 16 18 15 22 19 16 13 13 16 10 17 1 3 8 9 9 8 11 12 11 11 9 16 22 23 22 23
12 12 11 10 10 9 9 8 9 9 10 10 10 6 4 6 3 7 3 11 20 21 20 18 13 15 14 8 10 2 3 10 11 5 4 7 11 9 10 11 14 21 23 22 19
13 11 10 10 9 9 9 9 9 9 8 8 6 3 5 8 8 2 5 17 19 22 23 18 15 15 13 9 6 7 5 10 14 7 7 4 9 5 6 13 16 21 21 20 17
13 12 11 10 10 9 9 9 8 9 8 7 4 3 9 14 2 0 6 17 19 23 21 19 12 16 9 8 4 8 9 15 11 7 3 10 8 1 9 15 20 21 20 18 17
16 14 13 11 11 10 10 10 8 6 4 3 3 4 11 3 3 4 12 17 18 21 16 20 12 12 10 9 10 4 9 12 10 14 5 7 7 4 11 18 21 21 18 17 16
16 15 14 13 12 11 11 9 6 5 1 3 6 7 9 1 3 5 12 14 14 18 17 17 11 16 16 4 8 6 8 7 11 13 7 6 10 6 12 19 21 21 18 16 17
15 16 14 15 15 13 11 6 5 1 3 6 4 10 5 3 9 8 12 15 14 12 12 9 11 15 13 10 11 10 6 9 6 8 9 9 15 10 12 20 20 18 18 17 16
15 17 15 17 16 14 7 2 3 3 1 6 11 8 6 11 11 10 11 14 14 13 11 12 10 14 13 13 13 15 13 9 7 9 5 5 5 11 11 15 16 18 19 15 14
15 17 17 19 17 14 3 3 6 7 13 10 8 6 6 8 12 9 12 16 12 12 15 18 13 17 20 20 5 3 4 9 8 12 3 8 11 15 15 12 13 14 18 20 16
14 16 17 20 17 11 4 7 10 10 5 6 4 5 3 16 11 11 16 13 13 14 18 12 17 18 18 11 6 10 13 13 10 15 7 12 12 18 13 16 18 12 16 19 19
15 17 18 20 15 3 10 12 7 9 7 6 5 8 10 10 12 14 17 11 13 16 17 14 15 19 18 7 9 14 12 17 21 16 8 9 4 14 15 13 6 15 15 11 18
17 18 19 17 6 4 9 1 6 7 6 13 8 5 6 11 9 16 16 7 10 15 13 14 10 17 10 14 14 2 12 9 12 15 3 13 2 1 12 16 10 12 19 19 19
19 20 21 12 14 12 4 6 9 5 2 3 7 4 11 10 15 11 14 8 11 11 10 13 9 11 15 18 8 5 10 25 13 11 12 10 6 2 8 14 17 15 14 18 22
23 23 15 5 8 11 8 10 8 5 2 6 5 8 11 10 9 11 12 10 8 10 11 13 7 10 16 14 9 3 6 7 8 6 7 13 12 14 15 23 24 20 21 15 16
22 13 8 6 2 3 8 9 4 4 4 4 2 12 13 11 11 13 13 14 9 10 11 12 10 14 13 15 8 10 7 3 1 3 2 9 9 9 24 25 26 27 15 20 24
6 3 4 10 7 8 12 11 2 4 10 4 4 5 7 4 14 14 13 12 12 12 10 12 13 14 10 13 11 15 13 6 4 3 5 6 4 5 26 20 24 29 25 23 18
3 3 6 3 9 9 9 7 6 7 5 3 8 10 14 13 6 6 10 12 9 11 13 14 16 19 15 14 15 14 16 19 8 8 7 7 8 8 15 17 18 28 28 28 23
7 12 5 4 5 9 10 9 5 4 6 9 3 6 7 8 7 6 4 7 4 2 11 7 6 13 12 11 15 18 13 15 12 9 4 3 10 5 12 16 15 23 26 27 22
9 5 5 7 9 9 1 7 6 6 5 8 3 3 2 3 7 16 4 4 0 9 7 16 9 11 12 18 17 13 14 13 16 14 9 6 1 16 14 13 15 16 26 26 26
15 2 6 5 9 3 6 4 5 3 5 1 5 8 4 2 8 3 6 1 7 9 8 12 8 13 15 12 17 17 17 15 11 18 14 13 6 6 5 10 13 16 15 21 22
6 6 6 9 6 5 4 8 4 5 5 5 3 5 2 5 5 4 5 2 1 9 8 9 9 10 11 12 8 14 15 19 19 14 16 13 7 13 10 9 10 10 12 15 14
6 5 5 6 6 6 4 2 4 2 2 5 6 5 5 10 7 7 6 6 2 6 8 5 14 15 7 12 15 19 19 16 20 14 14 16 16 14 15 13 11 9 8 10 14
8 3 6 2 5 3 3 3 2 1 1 2 3 7 8 3 6 8 4 9 8 7 6 7 14 12 13 9 19 20 21 20 18 17 17 14 8 16 20 19 15 12 8 8 9
6 4 4 1 0 5 5 2 3 2 3 1 7 1 6 4 7 5 9 8 1 5 8 10 12 13 14 10 14 14 10 8 17 17 17 19 10 12 9 16 18 13 11 9 9
4 6 6 8 7 9 7 4 5 2 2 3 6 8 5 9 9 6 6 5 4 7 7 6 12 3 17 12 13 15 12 11 14 16 16 13 7 7 22 10 11 13 11 9 11

GFSSW_925_spd_114.txt.gz
Wind_Speed
12 11 11 11 10 10 10 11 11 11 11 13 13 13 12 12 12 10 13 8 14 15 7 10 15 17 12 9 3 4 3 2 7 12 4 17 14 6 8 9 14 18 21 24 27
12 12 11 10 10 10 10 10 11 11 12 12 13 13 11 11 15 22 19 18 11 13 13 16 14 13 12 13 5 6 3 6 2 10 11 13 18 16 13 13 15 18 21 24 24
12 12 11 10 9 9 10 10 11 11 11 12 12 9 8 8 10 6 13 24 16 16 18 18 14 14 14 14 11 2 5 1 6 10 7 11 9 9 15 3 23 23 21 20 23
13 12 11 10 9 9 10 10 11 10 11 11 9 7 5 5 2 6 10 20 16 13 18 21 16 14 15 15 6 5 4 5 6 7 5 13 10 9 13 5 20 22 19 19 18
14 13 12 11 11 11 11 11 11 11 11 9 7 5 4 8 10 5 5 13 15 16 21 18 16 14 15 4 7 6 6 12 8 7 2 4 8 14 3 4 20 21 18 19 17
16 15 13 12 12 12 12 12 12 11 9 7 6 3 6 11 2 3 4 13 17 20 21 20 13 13 15 2 4 7 9 15 8 6 3 8 8 5 16 15 20 21 19 18 18
15 15 14 15 15 14 14 12 11 9 6 4 3 4 10 15 3 6 7 12 17 21 18 20 19 14 12 5 15 14 15 12 9 2 4 7 4 7 12 17 20 19 18 17 15
15 16 15 16 16 15 15 13 9 8 3 2 4 5 8 2 4 7 11 14 16 19 21 15 17 11 16 7 5 9 6 6 6 7 3 7 10 1 12 17 20 20 18 16 16
14 15 16 17 19 17 16 10 7 4 2 3 4 9 8 1 11 13 12 15 17 17 17 15 14 13 15 13 12 8 6 9 6 4 3 3 7 10 8 17 19 19 18 16 13
14 15 17 18 21 18 14 7 7 4 3 8 15 10 13 11 10 9 12 13 13 13 14 8 8 13 15 13 10 9 10 7 9 5 3 4 9 12 10 12 19 17 18 17 15
14 16 18 20 22 20 13 5 5 6 11 10 14 14 4 7 5 11 12 12 13 11 13 14 11 16 19 19 7 6 4 9 9 12 5 3 4 13 6 9 10 16 15 17 19
16 17 19 20 22 19 7 6 11 13 14 17 6 8 9 4 9 10 13 11 12 13 17 11 16 19 20 6 10 16 13 14 11 15 3 4 14 14 7 7 7 9 17 17 11
18 18 20 21 23 13 11 16 12 12 11 4 7 12 5 10 10 12 15 16 13 14 15 18 15 19 20 7 6 24 9 13 8 10 3 9 3 8 9 9 15 13 18 17 22
19 20 21 22 12 11 17 2 6 10 5 3 8 5 6 10 10 14 18 12 9 14 17 16 15 18 18 12 11 8 17 12 11 8 3 13 3 1 14 10 11 16 9 9 3
22 23 23 19 16 11 8 5 9 10 4 3 6 4 7 9 13 13 14 13 13 13 12 12 12 10 16 17 17 12 12 18 15 8 9 12 4 6 10 11 17 22 12 19 25
26 23 18 6 9 14 11 9 9 0 4 4 5 8 9 13 7 13 10 13 12 12 12 17 12 7 9 8 12 18 21 16 13 5 4 12 5 8 16 31 24 15 14 10 10
22 14 9 10 6 7 8 8 3 5 2 5 5 4 8 10 10 9 12 12 11 9 11 13 10 5 9 15 8 7 13 4 3 7 4 15 9 6 23 18 22 19 19 17 15
12 6 7 17 8 11 9 7 5 8 9 1 6 10 7 13 8 9 11 11 16 14 9 10 12 15 15 17 10 11 12 5 3 3 1 4 2 5 23 20 25 22 19 17 21
8 8 7 12 8 7 7 8 7 11 7 9 2 2 9 9 6 9 13 13 13 8 11 7 15 14 13 14 13 13 10 16 5 7 6 1 5 2 20 15 19 20 22 19 9
6 13 13 4 5 8 8 6 6 7 10 6 5 5 8 13 8 3 8 4 1 8 8 6 13 16 13 11 15 16 7 10 5 3 5 6 7 5 9 15 21 21 25 21 20
4 6 4 7 7 7 10 8 3 5 7 8 12 3 6 4 6 1 10 3 4 1 5 12 11 2 10 10 13 11 12 10 13 8 4 8 4 11 3 10 16 21 24 24 21
10 10 7 5 8 8 4 4 2 3 4 4 7 9 7 6 10 6 7 9 11 9 3 10 10 8 12 13 16 16 16 17 10 11 10 10 3 12 16 9 12 21 22 23 20
6 10 6 9 8 10 7 5 8 9 6 8 8 4 10 11 4 10 11 1 3 5 9 11 5 8 13 8 8 13 17 14 15 15 15 9 5 17 14 16 14 13 21 18 22
5 4 5 7 10 11 4 3 5 7 6 5 5 7 6 7 8 2 1 7 1 4 7 3 12 12 5 8 11 15 18 17 16 12 15 13 15 16 16 14 13 13 22 19 12
5 7 8 2 3 3 5 6 2 3 3 1 2 6 8 7 7 3 5 2 6 6 5 5 11 13 4 11 10 15 20 20 18 16 17 13 5 9 9 10 9 8 12 21 20
6 8 10 7 2 7 6 2 4 5 3 5 5 7 7 4 5 8 6 6 3 5 11 10 10 13 14 9 12 15 18 21 18 20 17 16 8 16 11 18 27 6 7 14 15
10 10 7 7 5 9 1 7 6 6 3 4 7 10 7 13 10 13 8 9 1 5 6 9 13 5 13 7 14 9 10 14 15 9 5 12 10 9 10 15 2 7 3 9 8

GFSSW_925_spd_117.txt.gz
Wind_Speed
13 12 12 11 11 11 11 10 10 11 11 12 13 13 12 12 13 9 9 12 9 12 5 6 11 16 19 7 6 2 2 3 1 4 3 5 5 10 6 20 14 10 18 22 26
13 12 12 12 11 10 11 12 11 11 11 12 12 12 11 11 12 13 21 13 12 8 14 11 10 16 7 7 5 3 2 1 15 8 3 6 5 11 8 9 14 16 26 32 40
13 12 11 11 11 11 12 12 11 11 11 11 11 11 10 8 5 7 7 23 18 13 12 17 19 11 8 10 8 5 3 4 3 11 5 2 4 7 21 10 18 22 19 24 26
15 13 13 12 13 13 13 13 12 12 11 11 9 8 6 2 1 0 4 17 19 13 11 12 10 9 9 10 9 3 6 5 10 6 8 3 2 10 11 15 18 19 14 18 12
16 16 15 14 14 14 14 14 13 12 11 9 8 8 2 4 8 5 3 15 19 10 13 12 10 10 10 2 7 6 8 5 9 4 9 8 10 8 5 23 17 19 17 14 10
16 16 16 15 15 15 15 15 14 12 10 7 5 4 2 5 3 7 6 13 13 16 13 18 9 10 8 2 7 7 7 11 7 5 11 12 7 12 3 19 15 14 16 11 10
15 16 16 16 17 18 17 17 14 11 9 5 3 3 5 13 3 7 9 10 16 18 9 23 27 10 7 1 13 13 13 9 5 4 7 15 11 4 3 15 18 13 12 13 8
15 16 18 18 20 21 19 17 12 8 6 4 1 1 7 11 10 10 13 10 12 19 22 26 26 10 5 5 6 6 7 5 4 2 4 3 5 3 14 18 16 16 13 13 14
15 16 18 20 21 23 20 16 9 6 3 1 1 4 8 4 8 17 16 16 17 19 23 24 19 7 6 2 4 3 3 10 1 8 5 5 2 6 8 14 14 14 12 12 12
16 17 19 20 22 25 23 14 10 5 3 5 8 6 9 6 12 13 12 18 13 10 11 9 4 5 4 3 5 14 6 6 6 4 3 2 8 14 9 10 9 12 13 10 12
16 18 20 21 22 25 26 5 2 2 7 9 4 6 11 15 5 4 13 15 9 7 8 8 2 6 10 14 14 4 11 14 9 6 2 6 2 13 10 9 8 5 12 13 12
18 19 21 21 23 26 16 4 9 11 7 11 17 11 11 6 2 9 11 5 6 6 7 2 8 11 15 5 9 10 15 7 7 13 1 4 5 9 14 5 4 8 6 17 13
20 21 22 22 25 18 8 16 14 19 4 8 14 8 7 6 10 9 9 9 7 8 10 9 13 17 16 11 10 3 2 9 9 10 4 5 4 6 4 5 8 9 12 14 14
24 25 23 22 12 10 10 16 11 14 3 1 4 3 5 5 6 15 16 8 7 10 10 9 17 14 13 12 8 5 12 9 20 8 1 5 2 4 6 8 6 9 12 7 9
29 28 21 14 14 7 16 20 11 11 5 9 4 6 4 6 3 9 15 8 13 8 7 11 11 9 9 12 11 7 13 11 14 9 4 7 2 4 4 9 13 13 11 4 9
32 25 11 3 7 11 16 15 17 2 3 2 6 6 4 8 7 8 7 7 9 10 8 10 7 7 8 2 20 24 17 5 5 1 1 8 6 4 12 27 23 20 11 4 7
35 19 7 9 5 14 18 9 3 4 3 2 3 5 1 2 7 9 7 7 5 1 5 8 9 8 4 18 19 15 6 1 1 2 1 9 8 7 23 21 26 22 14 10 8
28 14 8 15 12 11 16 4 4 11 7 3 2 8 3 6 7 8 8 7 10 9 5 5 4 4 4 8 13 14 9 6 3 1 2 3 2 5 10 18 19 18 16 13 20
21 9 6 18 10 11 2 3 3 8 11 9 9 5 5 7 4 6 8 9 9 9 3 2 7 6 9 8 8 4 6 8 7 2 3 1 2 11 14 13 19 20 19 18 16
13 7 17 19 18 11 2 6 4 6 8 11 6 7 1 4 3 3 3 7 2 8 8 7 5 7 11 5 7 3 5 2 3 5 3 5 7 5 9 7 15 23 19 16 6
5 3 15 11 16 2 4 7 3 5 5 5 7 7 4 2 7 4 9 12 18 6 6 6 1 9 6 5 6 3 4 4 4 5 4 4 4 12 18 16 10 12 19 20 13
7 3 12 11 2 4 6 2 2 1 1 4 4 4 6 6 4 5 6 4 11 11 5 8 3 6 9 6 9 7 5 6 3 8 2 4 4 12 17 15 15 9 17 19 18
4 6 19 10 4 8 2 5 1 7 8 7 7 9 7 5 4 5 3 6 9 7 4 7 5 5 9 8 7 4 6 4 4 2 6 2 5 10 11 8 13 12 15 14 15
3 3 3 3 7 10 7 4 5 4 3 4 6 7 7 5 6 5 4 2 5 4 4 4 3 1 2 2 4 6 9 11 6 2 5 6 5 10 6 7 4 8 15 19 17
3 4 9 7 2 7 5 7 5 1 4 2 2 5 8 5 8 7 2 1 9 4 6 2 4 6 9 3 3 8 8 9 11 17 4 2 9 10 6 6 3 6 6 9 14
3 4 8 10 5 3 2 4 4 10 6 7 8 10 4 7 7 7 9 3 2 5 3 5 5 7 8 11 11 10 14 13 15 22 17 7 8 5 5 7 13 10 13 3 6
8 10 4 8 8 3 3 4 9 6 4 2 5 7 8 9 8 6 8 9 3 3 1 1 1 3 4 8 8 7 15 17 12 16 6 8 6 3 4 6 4 9 17 15 10

GFSSW_925_spd_120.txt.gz
Wind_Speed
14 13 13 12 12 11 11 11 11 10 10 11 12 12 12 12 12 7 7 9 6 8 1 3 8 9 8 4 9 4 3 1 1 4 3 4 9 6 9 21 13 5 16 20 28
14 13 12 12 12 12 12 12 11 11 11 11 11 11 10 11 11 12 16 11 15 6 12 7 4 6 2 4 3 3 2 8 9 11 1 2 3 18 17 17 12 17 21 31 33
16 15 14 13 13 13 13 12 12 12 11 10 10 9 8 7 3 7 5 15 18 9 6 6 10 2 5 1 4 4 3 5 19 12 5 2 7 6 14 4 21 21 24 26 28
16 16 15 14 14 14 14 14 13 12 11 9 8 7 6 2 3 3 2 10 18 13 9 2 1 3 4 6 5 4 1 3 7 13 5 1 4 7 1 9 17 19 26 26 19
15 16 16 16 16 16 16 16 14 12 12 8 7 5 2 1 8 4 0 15 19 12 11 5 4 5 3 3 5 4 5 5 5 7 7 11 10 3 5 13 21 21 21 21 18
15 16 16 16 17 18 18 18 16 11 10 8 4 4 1 3 2 8 7 14 15 17 10 9 6 1 5 5 4 4 10 10 7 8 7 9 3 8 12 18 20 25 19 19 17
15 16 17 18 19 20 20 19 17 9 8 6 3 3 2 11 8 5 7 9 20 18 5 21 7 1 8 3 4 10 6 10 9 8 5 17 7 8 4 16 13 19 14 13 21
15 16 18 19 20 21 22 21 15 8 6 3 3 1 7 7 12 12 16 6 14 14 19 14 7 3 4 2 5 2 2 4 6 3 0 3 5 1 10 16 14 14 12 12 23
15 16 18 20 21 23 23 22 11 4 3 1 1 1 9 10 6 15 13 8 13 15 16 11 2 6 1 6 4 5 2 4 3 7 3 6 5 3 6 11 14 13 9 16 17
17 18 19 20 22 24 23 19 8 0 1 2 4 4 7 4 6 3 14 14 5 3 2 4 2 2 3 3 5 4 2 3 6 3 6 5 7 4 8 9 3 10 7 18 19
19 20 21 21 21 24 25 5 4 1 3 8 6 5 7 2 8 5 8 10 4 4 5 3 4 4 11 3 3 4 6 6 8 9 7 3 8 9 5 3 5 6 9 15 16
21 22 22 22 21 23 16 1 7 1 8 13 14 8 18 14 1 4 5 3 6 6 1 6 6 9 5 5 7 6 7 6 5 9 2 5 8 10 9 2 3 3 3 17 12
24 26 25 21 20 9 8 12 16 20 3 9 5 5 6 3 3 5 8 4 3 3 4 7 8 7 6 6 8 1 9 9 7 8 1 5 4 4 5 4 2 2 5 6 19
25 29 26 18 6 6 9 13 19 5 4 7 2 4 3 3 4 10 13 4 1 9 5 6 12 9 9 12 6 3 6 14 11 8 3 4 2 5 8 5 4 4 2 1 10
26 30 19 11 9 4 11 26 27 5 4 2 1 8 5 5 1 1 10 4 7 7 4 9 6 7 7 17 9 6 10 11 7 2 1 3 0 3 5 8 7 8 6 4 1
29 27 12 3 6 8 18 25 6 5 3 3 5 4 0 3 4 7 5 2 4 5 5 10 6 6 6 10 15 18 13 11 6 2 0 2 3 4 5 6 11 9 7 6 3
29 20 9 7 4 5 20 5 5 3 6 2 3 3 4 2 3 6 5 3 3 4 4 7 6 6 16 17 7 15 6 3 1 1 2 4 5 8 4 9 15 16 13 10 6
23 12 9 14 11 10 10 5 3 7 4 7 4 5 3 3 3 3 3 3 4 4 2 4 6 10 6 11 12 8 7 6 6 4 3 4 4 6 12 13 16 15 14 7 8
16 6 7 9 7 9 5 4 4 4 4 6 3 4 3 3 5 1 7 3 4 8 6 0 5 4 7 7 11 5 5 5 7 3 2 3 6 8 7 5 4 14 16 14 11
13 6 8 7 8 7 4 4 4 1 4 5 4 3 2 6 5 7 5 3 7 4 4 3 2 2 8 7 7 9 7 4 2 5 2 2 5 5 5 9 12 15 17 16 10
6 4 6 7 15 4 2 6 5 3 1 2 4 3 5 2 4 5 6 4 10 8 7 3 4 8 4 1 9 2 2 5 5 5 5 3 6 8 12 9 12 15 17 17 12
6 3 4 11 3 2 2 5 4 4 6 7 5 6 4 3 3 4 3 3 10 4 4 3 4 2 4 8 4 4 3 4 5 4 1 4 6 3 9 7 9 15 18 17 15
3 3 9 6 3 3 6 6 6 2 4 4 5 4 4 2 1 1 1 4 3 3 2 5 4 4 8 7 7 6 5 2 3 3 2 3 6 6 9 7 8 10 13 18 19
2 3 4 4 1 3 5 6 3 2 3 3 1 5 4 7 4 2 4 4 5 4 7 5 3 4 4 6 4 8 9 6 6 4 5 5 8 2 6 7 2 3 8 15 18
1 4 3 3 5 8 5 3 5 1 4 8 7 9 2 6 5 6 6 7 6 5 5 5 3 4 3 7 18 16 12 11 8 2 4 9 7 12 13 5 6 7 0 8 8
1 1 4 4 4 7 3 1 8 3 3 2 3 5 6 5 4 2 2 3 4 6 3 3 1 2 3 6 16 12 12 13 8 9 2 6 4 10 8 11 13 8 10 11 9
4 6 3 5 5 5 3 7 6 7 1 6 4 4 6 4 3 5 2 3 1 4 3 3 3 3 2 6 4 7 7 9 8 8 2 8 5 6 9 8 5 7 9 9 11